Darstellungsparameter: Aktuell verwendete Einstellungen:
Skalierung der Graphiken ... ?
xyx+y,   Skalierungsfaktor:      Skalierung: Modus: x, Faktor: 1
Darstellungszeitraum ... ?
Vom - - bis: - -   Zeitraum: 11.02.2019 - 10.08.2019
Min/Max/Avg-Anzeige ... ?
Zeige MMA aktuell
Zeige MMA Monat
Zeige MMA alles
Zeige --A aktuell
Zeige --A Monat
Zeige --A alles
Keine MMA-Anzeige
MMA:
Minimum Maximum Average (ber die Originaldaten)
MMA-Basis: 23.02.2003 - 16.08.2019
Quicknavigation für Darstellung... ?
Tage:      1T, 2T, 3T, 5T -1T -2T -3T -5T +1T +2T +3T +5T
Wochen: 1W, 2W, 3W -1W -2W -3W +1W +2W +3W
Monate: 1M, 3M, 6M -1M -3M -6M +1M +3M +6M
Jahre:    1J, 3J, 5J, 10J -1J -3J -5J -10J +1J +3J +5J +10J
Nutze für die Darstellung ... ?
Originaldaten oder Mittelwerte auf ...
Stundenbasis Tagesbasis Wochenbasis
Monatsbasis Jahresbasis      Datenbasis: Original-Daten
Darstellen als:
Statistik (Auto) Statistik J:M      Darstellung:
Zur Graphik,    zurück zur Übersicht aller Sensoren.
 
Tabellarische Datenbersicht: ?
 
Sensor: Nr:Datum:Temp:Feuchte:Taupunkt:
Aussen-T/F 1 11-02-2019 00:00:00 5.3 C 87 % 3.32 C
2 11-02-2019 00:05:00 5.2 C 88 % 3.38 C
3 11-02-2019 00:10:00 5.1 C 88 % 3.28 C
4 11-02-2019 00:15:00 5.1 C 88 % 3.28 C
5 11-02-2019 00:20:00 5.1 C 89 % 3.44 C
6 11-02-2019 00:25:00 5 C 89 % 3.34 C
7 11-02-2019 00:30:00 4.9 C 89 % 3.24 C
8 11-02-2019 00:35:00 4.9 C 89 % 3.24 C
9 11-02-2019 00:40:00 4.9 C 90 % 3.4 C
10 11-02-2019 00:45:00 4.8 C 90 % 3.3 C
11 11-02-2019 00:50:00 4.7 C 90 % 3.2 C
12 11-02-2019 00:55:00 4.6 C 91 % 3.26 C
13 11-02-2019 01:00:00 4.6 C 91 % 3.26 C
14 11-02-2019 01:05:00 4.4 C 91 % 3.06 C
15 11-02-2019 01:10:00 4.4 C 92 % 3.22 C
16 11-02-2019 01:15:00 4.3 C 92 % 3.12 C
17 11-02-2019 01:20:00 4.3 C 92 % 3.12 C
18 11-02-2019 01:25:00 4.3 C 93 % 3.27 C
19 11-02-2019 01:30:00 4.3 C 93 % 3.27 C
20 11-02-2019 01:35:00 4.2 C 93 % 3.17 C
21 11-02-2019 01:40:00 4.2 C 93 % 3.17 C
22 11-02-2019 01:45:00 4.2 C 93 % 3.17 C
23 11-02-2019 01:50:00 4.2 C 93 % 3.17 C
24 11-02-2019 01:55:00 4.2 C 93 % 3.17 C
25 11-02-2019 02:00:00 4.2 C 93 % 3.17 C
Sensor: Nr:Datum:Temp:Feuchte:Taupunkt:
Aussen-T/F 26 11-02-2019 02:05:00 4.2 C 93 % 3.17 C
27 11-02-2019 02:10:00 4.1 C 93 % 3.07 C
28 11-02-2019 02:15:00 4 C 93 % 2.97 C
29 11-02-2019 02:20:00 3.9 C 93 % 2.87 C
30 11-02-2019 02:25:00 3.9 C 93 % 2.87 C
31 11-02-2019 02:30:00 3.9 C 93 % 2.87 C
32 11-02-2019 02:35:00 3.8 C 93 % 2.77 C
33 11-02-2019 02:40:00 3.8 C 93 % 2.77 C
34 11-02-2019 02:45:00 3.8 C 94 % 2.93 C
35 11-02-2019 02:50:00 3.8 C 94 % 2.93 C
36 11-02-2019 02:55:00 3.8 C 94 % 2.93 C
37 11-02-2019 03:00:00 3.9 C 94 % 3.02 C
38 11-02-2019 03:05:00 3.9 C 94 % 3.02 C
39 11-02-2019 03:10:00 3.9 C 94 % 3.02 C
40 11-02-2019 03:15:00 4 C 94 % 3.12 C
41 11-02-2019 03:20:00 4.1 C 94 % 3.22 C
42 11-02-2019 03:25:00 4 C 93 % 2.97 C
43 11-02-2019 03:30:00 3.9 C 93 % 2.87 C
44 11-02-2019 03:35:00 3.7 C 92 % 2.52 C
45 11-02-2019 03:40:00 3.6 C 93 % 2.58 C
46 11-02-2019 03:45:00 3.6 C 93 % 2.58 C
47 11-02-2019 03:50:00 3.5 C 93 % 2.48 C
48 11-02-2019 03:55:00 3.5 C 93 % 2.48 C
49 11-02-2019 04:00:00 3.5 C 93 % 2.48 C
50 11-02-2019 04:05:00 3.5 C 93 % 2.48 C
Sensor: Nr:Datum:Temp:Feuchte:Taupunkt:
Aussen-T/F 51 11-02-2019 04:10:00 3.6 C 93 % 2.58 C
52 11-02-2019 04:15:00 3.6 C 94 % 2.73 C
53 11-02-2019 04:20:00 3.6 C 94 % 2.73 C
54 11-02-2019 04:25:00 3.6 C 94 % 2.73 C
55 11-02-2019 04:30:00 3.6 C 94 % 2.73 C
56 11-02-2019 04:35:00 3.6 C 94 % 2.73 C
57 11-02-2019 04:40:00 3.6 C 94 % 2.73 C
58 11-02-2019 04:45:00 3.7 C 94 % 2.83 C
59 11-02-2019 04:50:00 3.7 C 94 % 2.83 C
60 11-02-2019 04:55:00 3.7 C 94 % 2.83 C
61 11-02-2019 05:00:00 3.8 C 94 % 2.93 C
62 11-02-2019 05:05:00 3.8 C 94 % 2.93 C
63 11-02-2019 05:10:00 3.8 C 94 % 2.93 C
64 11-02-2019 05:15:00 3.9 C 94 % 3.02 C
65 11-02-2019 05:20:00 3.9 C 94 % 3.02 C
66 11-02-2019 05:25:00 3.9 C 94 % 3.02 C
67 11-02-2019 05:30:00 3.9 C 94 % 3.02 C
68 11-02-2019 05:35:00 3.9 C 94 % 3.02 C
69 11-02-2019 05:40:00 3.9 C 94 % 3.02 C
70 11-02-2019 05:45:00 3.8 C 94 % 2.93 C
71 11-02-2019 05:50:00 3.8 C 94 % 2.93 C
72 11-02-2019 05:55:00 3.8 C 94 % 2.93 C
73 11-02-2019 06:00:00 3.8 C 94 % 2.93 C
74 11-02-2019 06:05:00 3.8 C 94 % 2.93 C
75 11-02-2019 06:10:00 3.8 C 94 % 2.93 C
Sensor: Nr:Datum:Temp:Feuchte:Taupunkt:
Aussen-T/F 76 11-02-2019 06:15:00 3.8 C 94 % 2.93 C
77 11-02-2019 06:20:00 3.8 C 94 % 2.93 C
78 11-02-2019 06:25:00 3.8 C 94 % 2.93 C
79 11-02-2019 06:30:00 3.8 C 94 % 2.93 C
80 11-02-2019 06:35:00 3.8 C 94 % 2.93 C
81 11-02-2019 06:40:00 3.8 C 94 % 2.93 C
82 11-02-2019 06:45:00 3.9 C 94 % 3.02 C
83 11-02-2019 06:50:00 3.9 C 94 % 3.02 C
84 11-02-2019 06:55:00 3.9 C 94 % 3.02 C
85 11-02-2019 07:00:00 3.9 C 94 % 3.02 C
86 11-02-2019 07:05:00 3.9 C 94 % 3.02 C
87 11-02-2019 07:10:00 4 C 94 % 3.12 C
88 11-02-2019 07:15:00 4 C 93 % 2.97 C
89 11-02-2019 07:20:00 4.1 C 93 % 3.07 C
90 11-02-2019 07:25:00 4.1 C 93 % 3.07 C
91 11-02-2019 07:30:00 4.1 C 93 % 3.07 C
92 11-02-2019 07:35:00 4.1 C 92 % 2.92 C
93 11-02-2019 07:40:00 4.1 C 92 % 2.92 C
94 11-02-2019 07:45:00 4.1 C 92 % 2.92 C
95 11-02-2019 07:50:00 4.2 C 92 % 3.02 C
96 11-02-2019 07:55:00 4.2 C 91 % 2.87 C
97 11-02-2019 08:00:00 4.2 C 91 % 2.87 C
98 11-02-2019 08:05:00 4.2 C 91 % 2.87 C
99 11-02-2019 08:10:00 4.2 C 91 % 2.87 C
100 11-02-2019 08:15:00 4.1 C 91 % 2.77 C
Sensor: Nr:Datum:Temp:Feuchte:Taupunkt:
Aussen-T/F 101 11-02-2019 08:20:00 4.1 C 91 % 2.77 C
102 11-02-2019 08:25:00 4 C 91 % 2.67 C
103 11-02-2019 08:30:00 4 C 91 % 2.67 C
104 11-02-2019 08:35:00 4 C 91 % 2.67 C
105 11-02-2019 08:40:00 4 C 91 % 2.67 C
106 11-02-2019 08:45:00 4.1 C 91 % 2.77 C
107 11-02-2019 08:50:00 4.1 C 91 % 2.77 C
108 11-02-2019 08:55:00 4.1 C 91 % 2.77 C
109 11-02-2019 09:00:00 4.1 C 91 % 2.77 C
110 11-02-2019 09:05:00 4.1 C 91 % 2.77 C
111 11-02-2019 09:10:00 4.1 C 91 % 2.77 C
112 11-02-2019 09:15:00 4.1 C 90 % 2.61 C
113 11-02-2019 09:20:00 4.1 C 90 % 2.61 C
114 11-02-2019 09:25:00 4.2 C 90 % 2.71 C
115 11-02-2019 09:30:00 4.2 C 90 % 2.71 C
116 11-02-2019 09:35:00 4.2 C 90 % 2.71 C
117 11-02-2019 09:40:00 4.3 C 90 % 2.81 C
118 11-02-2019 09:45:00 4.3 C 89 % 2.65 C
119 11-02-2019 09:50:00 4.4 C 89 % 2.75 C
120 11-02-2019 09:55:00 4.4 C 88 % 2.59 C
121 11-02-2019 10:00:00 4.5 C 88 % 2.69 C
122 11-02-2019 10:05:00 4.6 C 88 % 2.79 C
123 11-02-2019 10:10:00 4.7 C 88 % 2.89 C
124 11-02-2019 10:15:00 4.8 C 88 % 2.99 C
125 11-02-2019 10:20:00 4.9 C 88 % 3.08 C
Sensor: Nr:Datum:Temp:Feuchte:Taupunkt:
Aussen-T/F 126 11-02-2019 10:25:00 5 C 87 % 3.02 C
127 11-02-2019 10:30:00 5.1 C 86 % 2.96 C
128 11-02-2019 10:35:00 5.2 C 85 % 2.89 C
129 11-02-2019 10:40:00 5.2 C 84 % 2.72 C
130 11-02-2019 10:45:00 5.2 C 84 % 2.72 C
131 11-02-2019 10:50:00 5.3 C 85 % 2.99 C
132 11-02-2019 10:55:00 5.3 C 85 % 2.99 C
133 11-02-2019 11:00:00 5.5 C 85 % 3.18 C
134 11-02-2019 11:05:00 5.7 C 84 % 3.21 C
135 11-02-2019 11:10:00 5.7 C 83 % 3.04 C
136 11-02-2019 11:15:00 5.8 C 83 % 3.14 C
137 11-02-2019 11:20:00 5.9 C 82 % 3.07 C
138 11-02-2019 11:25:00 5.9 C 82 % 3.07 C
139 11-02-2019 11:30:00 5.9 C 81 % 2.9 C
140 11-02-2019 11:35:00 6.1 C 81 % 3.09 C
141 11-02-2019 11:40:00 6.1 C 82 % 3.26 C
142 11-02-2019 11:45:00 6.2 C 80 % 3.01 C
143 11-02-2019 11:50:00 6.2 C 81 % 3.19 C
144 11-02-2019 11:55:00 6.3 C 81 % 3.29 C
145 11-02-2019 12:00:00 6.3 C 80 % 3.11 C
146 11-02-2019 12:05:00 6.4 C 78 % 2.85 C
147 11-02-2019 12:10:00 6.5 C 79 % 3.13 C
148 11-02-2019 12:15:00 6.6 C 78 % 3.05 C
149 11-02-2019 12:20:00 6.6 C 78 % 3.05 C
150 11-02-2019 12:25:00 6.6 C 78 % 3.05 C
Sensor: Nr:Datum:Temp:Feuchte:Taupunkt:
Aussen-T/F 151 11-02-2019 12:30:00 6.6 C 78 % 3.05 C
152 11-02-2019 12:35:00 6.7 C 78 % 3.14 C
153 11-02-2019 12:40:00 6.7 C 79 % 3.32 C
154 11-02-2019 12:45:00 6.8 C 78 % 3.24 C
155 11-02-2019 12:50:00 6.8 C 79 % 3.42 C
156 11-02-2019 12:55:00 6.8 C 78 % 3.24 C
157 11-02-2019 13:00:00 6.9 C 78 % 3.34 C
158 11-02-2019 13:05:00 7.1 C 76 % 3.16 C
159 11-02-2019 13:10:00 7.2 C 76 % 3.26 C
160 11-02-2019 13:15:00 7.2 C 75 % 3.07 C
161 11-02-2019 13:20:00 7.2 C 75 % 3.07 C
162 11-02-2019 13:25:00 7.3 C 75 % 3.17 C
163 11-02-2019 13:30:00 7.3 C 75 % 3.17 C
164 11-02-2019 13:35:00 7.4 C 74 % 3.08 C
165 11-02-2019 13:40:00 7.5 C 73 % 2.98 C
166 11-02-2019 13:45:00 7.6 C 72 % 2.88 C
167 11-02-2019 13:50:00 7.4 C 71 % 2.5 C
168 11-02-2019 13:55:00 7.4 C 73 % 2.89 C
169 11-02-2019 14:00:00 7.3 C 73 % 2.79 C
170 11-02-2019 14:05:00 7.3 C 73 % 2.79 C
171 11-02-2019 14:10:00 7.3 C 73 % 2.79 C
172 11-02-2019 14:15:00 7.3 C 73 % 2.79 C
173 11-02-2019 14:20:00 7.3 C 74 % 2.98 C
174 11-02-2019 14:25:00 7.3 C 72 % 2.6 C
175 11-02-2019 14:30:00 7.3 C 73 % 2.79 C
Sensor: Nr:Datum:Temp:Feuchte:Taupunkt:
Aussen-T/F 176 11-02-2019 14:35:00 7.4 C 73 % 2.89 C
177 11-02-2019 14:40:00 7.4 C 74 % 3.08 C
178 11-02-2019 14:45:00 7.5 C 72 % 2.79 C
179 11-02-2019 14:50:00 7.5 C 73 % 2.98 C
180 11-02-2019 14:55:00 7.4 C 72 % 2.69 C
181 11-02-2019 15:00:00 7.4 C 73 % 2.89 C
182 11-02-2019 15:05:00 7.4 C 74 % 3.08 C
183 11-02-2019 15:10:00 7.3 C 73 % 2.79 C
184 11-02-2019 15:15:00 7.3 C 74 % 2.98 C
185 11-02-2019 15:20:00 7.3 C 74 % 2.98 C
186 11-02-2019 15:25:00 7.3 C 74 % 2.98 C
187 11-02-2019 15:30:00 7.3 C 74 % 2.98 C
188 11-02-2019 15:35:00 7.4 C 73 % 2.89 C
189 11-02-2019 15:40:00 7.4 C 74 % 3.08 C
190 11-02-2019 15:45:00 7.4 C 74 % 3.08 C
191 11-02-2019 15:50:00 7.4 C 74 % 3.08 C
192 11-02-2019 15:55:00 7.4 C 74 % 3.08 C
193 11-02-2019 16:00:00 7.3 C 75 % 3.17 C
194 11-02-2019 16:05:00 7.3 C 76 % 3.36 C
195 11-02-2019 16:10:00 7.1 C 78 % 3.53 C
196 11-02-2019 16:15:00 7 C 78 % 3.43 C
197 11-02-2019 16:20:00 6.9 C 79 % 3.52 C
198 11-02-2019 16:25:00 6.8 C 79 % 3.42 C
199 11-02-2019 16:30:00 6.8 C 79 % 3.42 C
200 11-02-2019 16:35:00 6.8 C 79 % 3.42 C
Sensor: Nr:Datum:Temp:Feuchte:Taupunkt:
Aussen-T/F 201 11-02-2019 16:40:00 6.8 C 79 % 3.42 C
202 11-02-2019 16:45:00 6.8 C 81 % 3.77 C
203 11-02-2019 16:50:00 6.7 C 82 % 3.85 C
204 11-02-2019 16:55:00 6.6 C 83 % 3.92 C
205 11-02-2019 17:00:00 6.4 C 84 % 3.9 C
206 11-02-2019 17:05:00 6.4 C 84 % 3.9 C
207 11-02-2019 17:10:00 6.3 C 84 % 3.8 C
208 11-02-2019 17:15:00 6.2 C 85 % 3.87 C
209 11-02-2019 17:20:00 6.1 C 85 % 3.77 C
210 11-02-2019 17:25:00 6.1 C 86 % 3.94 C
211 11-02-2019 17:30:00 6.1 C 84 % 3.61 C
212 11-02-2019 17:35:00 6.1 C 83 % 3.44 C
213 11-02-2019 17:40:00 6.2 C 83 % 3.53 C
214 11-02-2019 17:45:00 6.2 C 83 % 3.53 C
215 11-02-2019 17:50:00 6.2 C 83 % 3.53 C
216 11-02-2019 17:55:00 6.1 C 81 % 3.09 C
217 11-02-2019 18:00:00 6.1 C 79 % 2.74 C
218 11-02-2019 18:05:00 6.1 C 79 % 2.74 C
219 11-02-2019 18:10:00 6 C 78 % 2.46 C
220 11-02-2019 18:15:00 5.9 C 79 % 2.54 C
221 11-02-2019 18:20:00 5.8 C 79 % 2.45 C
222 11-02-2019 18:25:00 5.8 C 79 % 2.45 C
223 11-02-2019 18:30:00 5.7 C 79 % 2.35 C
224 11-02-2019 18:35:00 5.7 C 79 % 2.35 C
225 11-02-2019 18:40:00 5.6 C 80 % 2.43 C
Sensor: Nr:Datum:Temp:Feuchte:Taupunkt:
Aussen-T/F 226 11-02-2019 18:45:00 5.4 C 80 % 2.23 C
227 11-02-2019 18:50:00 5.4 C 80 % 2.23 C
228 11-02-2019 18:55:00 5.3 C 81 % 2.31 C
229 11-02-2019 19:00:00 5.3 C 81 % 2.31 C
230 11-02-2019 19:05:00 5.2 C 81 % 2.21 C
231 11-02-2019 19:10:00 5 C 82 % 2.19 C
232 11-02-2019 19:15:00 4.9 C 83 % 2.26 C
233 11-02-2019 19:20:00 4.7 C 84 % 2.23 C
234 11-02-2019 19:25:00 4.6 C 84 % 2.14 C
235 11-02-2019 19:30:00 4.5 C 86 % 2.37 C
236 11-02-2019 19:35:00 4.6 C 87 % 2.63 C
237 11-02-2019 19:40:00 4.8 C 87 % 2.82 C
238 11-02-2019 19:45:00 4.8 C 87 % 2.82 C
239 11-02-2019 19:50:00 4.8 C 87 % 2.82 C
240 11-02-2019 19:55:00 4.8 C 87 % 2.82 C
241 11-02-2019 20:00:00 4.8 C 87 % 2.82 C
242 11-02-2019 20:05:00 4.7 C 86 % 2.56 C
243 11-02-2019 20:10:00 4.4 C 86 % 2.27 C
244 11-02-2019 20:15:00 4.3 C 87 % 2.33 C
245 11-02-2019 20:20:00 4.2 C 87 % 2.23 C
246 11-02-2019 20:25:00 4.1 C 88 % 2.3 C
247 11-02-2019 20:30:00 3.9 C 88 % 2.1 C
248 11-02-2019 20:35:00 3.9 C 88 % 2.1 C
249 11-02-2019 20:40:00 3.9 C 89 % 2.26 C
250 11-02-2019 20:45:00 3.9 C 88 % 2.1 C
Sensor: Nr:Datum:Temp:Feuchte:Taupunkt:
Aussen-T/F 251 11-02-2019 20:50:00 3.9 C 88 % 2.1 C
252 11-02-2019 20:55:00 3.9 C 88 % 2.1 C
253 11-02-2019 21:00:00 3.8 C 88 % 2 C
254 11-02-2019 21:05:00 3.7 C 88 % 1.9 C
255 11-02-2019 21:10:00 3.7 C 88 % 1.9 C
256 11-02-2019 21:15:00 3.5 C 89 % 1.86 C
257 11-02-2019 21:20:00 3.4 C 89 % 1.76 C
258 11-02-2019 21:25:00 3.4 C 89 % 1.76 C
259 11-02-2019 21:30:00 3.4 C 89 % 1.76 C
260 11-02-2019 21:35:00 3.4 C 89 % 1.76 C
261 11-02-2019 21:40:00 3.4 C 89 % 1.76 C
262 11-02-2019 21:45:00 3.3 C 88 % 1.51 C
263 11-02-2019 21:50:00 3.2 C 89 % 1.57 C
264 11-02-2019 21:55:00 3.2 C 89 % 1.57 C
265 11-02-2019 22:00:00 3.1 C 89 % 1.47 C
266 11-02-2019 22:05:00 3 C 89 % 1.37 C
267 11-02-2019 22:10:00 2.9 C 89 % 1.27 C
268 11-02-2019 22:15:00 2.8 C 89 % 1.17 C
269 11-02-2019 22:20:00 2.8 C 90 % 1.33 C
270 11-02-2019 22:25:00 2.7 C 90 % 1.23 C
271 11-02-2019 22:30:00 2.7 C 90 % 1.23 C
272 11-02-2019 22:35:00 2.7 C 90 % 1.23 C
273 11-02-2019 22:40:00 2.7 C 91 % 1.38 C
274 11-02-2019 22:45:00 2.6 C 91 % 1.28 C
275 11-02-2019 22:50:00 2.6 C 91 % 1.28 C
Sensor: Nr:Datum:Temp:Feuchte:Taupunkt:
Aussen-T/F 276 11-02-2019 22:55:00 2.6 C 91 % 1.28 C
277 11-02-2019 23:00:00 2.5 C 91 % 1.18 C
278 11-02-2019 23:05:00 2.5 C 91 % 1.18 C
279 11-02-2019 23:10:00 2.4 C 91 % 1.08 C
280 11-02-2019 23:15:00 2.4 C 91 % 1.08 C
281 11-02-2019 23:20:00 2.4 C 92 % 1.24 C
282 11-02-2019 23:25:00 2.5 C 92 % 1.34 C
283 11-02-2019 23:30:00 2.5 C 92 % 1.34 C
284 11-02-2019 23:35:00 2.6 C 92 % 1.43 C
285 11-02-2019 23:40:00 2.6 C 92 % 1.43 C
286 11-02-2019 23:45:00 2.7 C 92 % 1.53 C
287 11-02-2019 23:50:00 2.8 C 92 % 1.63 C
288 11-02-2019 23:55:00 2.9 C 91 % 1.58 C
289 12-02-2019 00:00:00 2.9 C 91 % 1.58 C
290 12-02-2019 00:05:00 3 C 91 % 1.68 C
291 12-02-2019 00:10:00 3 C 90 % 1.52 C
292 12-02-2019 00:15:00 3.1 C 90 % 1.62 C
293 12-02-2019 00:20:00 3.1 C 90 % 1.62 C
294 12-02-2019 00:25:00 3.1 C 90 % 1.62 C
295 12-02-2019 00:30:00 3.1 C 90 % 1.62 C
296 12-02-2019 00:35:00 3.2 C 90 % 1.72 C
297 12-02-2019 00:40:00 3.3 C 90 % 1.82 C
298 12-02-2019 00:45:00 3.3 C 89 % 1.67 C
299 12-02-2019 00:50:00 3.2 C 89 % 1.57 C
300 12-02-2019 00:55:00 3.2 C 89 % 1.57 C
Sensor: Nr:Datum:Temp:Feuchte:Taupunkt:
Aussen-T/F 301 12-02-2019 01:00:00 3.2 C 89 % 1.57 C
302 12-02-2019 01:05:00 3.2 C 89 % 1.57 C
303 12-02-2019 01:10:00 3.2 C 90 % 1.72 C
304 12-02-2019 01:15:00 3.1 C 90 % 1.62 C
305 12-02-2019 01:20:00 3.1 C 90 % 1.62 C
306 12-02-2019 01:25:00 3.1 C 90 % 1.62 C
307 12-02-2019 01:30:00 3.1 C 90 % 1.62 C
308 12-02-2019 01:35:00 3.1 C 90 % 1.62 C
309 12-02-2019 01:40:00 3 C 90 % 1.52 C
310 12-02-2019 01:45:00 2.9 C 90 % 1.43 C
311 12-02-2019 01:50:00 2.9 C 90 % 1.43 C
312 12-02-2019 01:55:00 2.8 C 90 % 1.33 C
313 12-02-2019 02:00:00 2.8 C 90 % 1.33 C
314 12-02-2019 02:05:00 2.7 C 90 % 1.23 C
315 12-02-2019 02:10:00 2.7 C 91 % 1.38 C
316 12-02-2019 02:15:00 2.8 C 91 % 1.48 C
317 12-02-2019 02:20:00 2.8 C 91 % 1.48 C
318 12-02-2019 02:25:00 2.8 C 91 % 1.48 C
319 12-02-2019 02:30:00 2.8 C 91 % 1.48 C
320 12-02-2019 02:35:00 2.8 C 91 % 1.48 C
321 12-02-2019 02:40:00 2.9 C 91 % 1.58 C
322 12-02-2019 02:45:00 2.9 C 91 % 1.58 C
323 12-02-2019 02:50:00 2.8 C 91 % 1.48 C
324 12-02-2019 02:55:00 2.8 C 91 % 1.48 C
325 12-02-2019 03:00:00 2.8 C 91 % 1.48 C
Sensor: Nr:Datum:Temp:Feuchte:Taupunkt:
Aussen-T/F 326 12-02-2019 03:05:00 2.8 C 91 % 1.48 C
327 12-02-2019 03:10:00 2.8 C 91 % 1.48 C
328 12-02-2019 03:15:00 2.8 C 91 % 1.48 C
329 12-02-2019 03:20:00 2.8 C 91 % 1.48 C
330 12-02-2019 03:25:00 2.7 C 91 % 1.38 C
331 12-02-2019 03:30:00 2.7 C 90 % 1.23 C
332 12-02-2019 03:35:00 2.6 C 90 % 1.13 C
333 12-02-2019 03:40:00 2.5 C 90 % 1.03 C
334 12-02-2019 03:45:00 2.4 C 91 % 1.08 C
335 12-02-2019 03:50:00 2.4 C 91 % 1.08 C
336 12-02-2019 03:55:00 2.3 C 91 % 0.99 C
337 12-02-2019 04:00:00 2.3 C 91 % 0.99 C
338 12-02-2019 04:05:00 2.3 C 91 % 0.99 C
339 12-02-2019 04:10:00 2.3 C 91 % 0.99 C
340 12-02-2019 04:15:00 2.3 C 92 % 1.14 C
341 12-02-2019 04:20:00 2.4 C 92 % 1.24 C
342 12-02-2019 04:25:00 2.4 C 92 % 1.24 C
343 12-02-2019 04:30:00 2.5 C 92 % 1.34 C
344 12-02-2019 04:35:00 2.6 C 91 % 1.28 C
345 12-02-2019 04:40:00 2.6 C 91 % 1.28 C
346 12-02-2019 04:45:00 2.7 C 91 % 1.38 C
347 12-02-2019 04:50:00 2.7 C 91 % 1.38 C
348 12-02-2019 04:55:00 2.7 C 91 % 1.38 C
349 12-02-2019 05:00:00 2.7 C 91 % 1.38 C
350 12-02-2019 05:05:00 2.7 C 91 % 1.38 C
Sensor: Nr:Datum:Temp:Feuchte:Taupunkt:
Aussen-T/F 351 12-02-2019 05:10:00 2.7 C 90 % 1.23 C
352 12-02-2019 05:15:00 2.7 C 90 % 1.23 C
353 12-02-2019 05:20:00 2.6 C 90 % 1.13 C
354 12-02-2019 05:25:00 2.6 C 90 % 1.13 C
355 12-02-2019 05:30:00 2.6 C 90 % 1.13 C
356 12-02-2019 05:35:00 2.6 C 91 % 1.28 C
357 12-02-2019 05:40:00 2.6 C 91 % 1.28 C
358 12-02-2019 05:45:00 2.6 C 91 % 1.28 C
359 12-02-2019 05:50:00 2.6 C 91 % 1.28 C
360 12-02-2019 05:55:00 2.6 C 90 % 1.13 C
361 12-02-2019 06:00:00 2.6 C 90 % 1.13 C
362 12-02-2019 06:05:00 2.5 C 90 % 1.03 C
363 12-02-2019 06:10:00 2.5 C 90 % 1.03 C
364 12-02-2019 06:15:00 2.5 C 90 % 1.03 C
365 12-02-2019 06:20:00 2.5 C 90 % 1.03 C
366 12-02-2019 06:25:00 2.4 C 90 % 0.93 C
367 12-02-2019 06:30:00 2.3 C 90 % 0.83 C
368 12-02-2019 06:35:00 2.3 C 90 % 0.83 C
369 12-02-2019 06:40:00 2.3 C 90 % 0.83 C
370 12-02-2019 06:45:00 2.3 C 90 % 0.83 C
371 12-02-2019 06:50:00 2.3 C 90 % 0.83 C
372 12-02-2019 06:55:00 2.3 C 91 % 0.99 C
373 12-02-2019 07:00:00 2.4 C 90 % 0.93 C
374 12-02-2019 07:05:00 2.4 C 90 % 0.93 C
375 12-02-2019 07:10:00 2.5 C 90 % 1.03 C
Sensor: Nr:Datum:Temp:Feuchte:Taupunkt:
Aussen-T/F 376 12-02-2019 07:15:00 2.5 C 90 % 1.03 C
377 12-02-2019 07:20:00 2.5 C 90 % 1.03 C
378 12-02-2019 07:25:00 2.4 C 90 % 0.93 C
379 12-02-2019 07:30:00 2.4 C 90 % 0.93 C
380 12-02-2019 07:35:00 2.4 C 90 % 0.93 C
381 12-02-2019 07:40:00 2.4 C 90 % 0.93 C
382 12-02-2019 07:45:00 2.4 C 90 % 0.93 C
383 12-02-2019 07:50:00 2.4 C 90 % 0.93 C
384 12-02-2019 07:55:00 2.3 C 90 % 0.83 C
385 12-02-2019 08:00:00 2.3 C 90 % 0.83 C
386 12-02-2019 08:05:00 2.3 C 90 % 0.83 C
387 12-02-2019 08:10:00 2.3 C 90 % 0.83 C
388 12-02-2019 08:15:00 2.3 C 90 % 0.83 C
389 12-02-2019 08:20:00 2.3 C 90 % 0.83 C
390 12-02-2019 08:25:00 2.2 C 90 % 0.73 C
391 12-02-2019 08:30:00 2.2 C 90 % 0.73 C
392 12-02-2019 08:35:00 2.2 C 90 % 0.73 C
393 12-02-2019 08:40:00 2.2 C 90 % 0.73 C
394 12-02-2019 08:45:00 2.3 C 90 % 0.83 C
395 12-02-2019 08:50:00 2.3 C 90 % 0.83 C
396 12-02-2019 08:55:00 2.4 C 90 % 0.93 C
397 12-02-2019 09:00:00 2.5 C 90 % 1.03 C
398 12-02-2019 09:05:00 2.6 C 90 % 1.13 C
399 12-02-2019 09:10:00 2.7 C 89 % 1.07 C
400 12-02-2019 09:15:00 2.8 C 89 % 1.17 C
Sensor: Nr:Datum:Temp:Feuchte:Taupunkt:
Aussen-T/F 401 12-02-2019 09:20:00 2.8 C 89 % 1.17 C
402 12-02-2019 09:25:00 2.9 C 89 % 1.27 C
403 12-02-2019 09:30:00 3 C 89 % 1.37 C
404 12-02-2019 09:35:00 3.1 C 88 % 1.31 C
405 12-02-2019 09:40:00 3.2 C 88 % 1.41 C
406 12-02-2019 09:45:00 3.3 C 88 % 1.51 C
407 12-02-2019 09:50:00 3.4 C 88 % 1.61 C
408 12-02-2019 09:55:00 3.5 C 88 % 1.7 C
409 12-02-2019 10:00:00 3.6 C 88 % 1.8 C
410 12-02-2019 10:05:00 3.7 C 87 % 1.74 C
411 12-02-2019 10:10:00 3.7 C 87 % 1.74 C
412 12-02-2019 10:15:00 3.8 C 87 % 1.84 C
413 12-02-2019 10:20:00 3.8 C 87 % 1.84 C
414 12-02-2019 10:25:00 3.9 C 86 % 1.78 C
415 12-02-2019 10:30:00 4 C 86 % 1.88 C
416 12-02-2019 10:35:00 4.1 C 86 % 1.97 C
417 12-02-2019 10:40:00 4.2 C 86 % 2.07 C
418 12-02-2019 10:45:00 4.2 C 85 % 1.91 C
419 12-02-2019 10:50:00 4.2 C 85 % 1.91 C
420 12-02-2019 10:55:00 4.3 C 86 % 2.17 C
421 12-02-2019 11:00:00 4.3 C 85 % 2.01 C
422 12-02-2019 11:05:00 4.4 C 85 % 2.11 C
423 12-02-2019 11:10:00 4.4 C 85 % 2.11 C
424 12-02-2019 11:15:00 4.5 C 84 % 2.04 C
425 12-02-2019 11:20:00 4.6 C 84 % 2.14 C
Sensor: Nr:Datum:Temp:Feuchte:Taupunkt:
Aussen-T/F 426 12-02-2019 11:25:00 4.6 C 84 % 2.14 C
427 12-02-2019 11:30:00 4.7 C 84 % 2.23 C
428 12-02-2019 11:35:00 4.7 C 84 % 2.23 C
429 12-02-2019 11:40:00 4.8 C 84 % 2.33 C
430 12-02-2019 11:45:00 4.9 C 84 % 2.43 C
431 12-02-2019 11:50:00 5 C 83 % 2.36 C
432 12-02-2019 11:55:00 5 C 83 % 2.36 C
433 12-02-2019 12:00:00 5.1 C 83 % 2.46 C
434 12-02-2019 12:05:00 5.1 C 83 % 2.46 C
435 12-02-2019 12:10:00 5.2 C 83 % 2.56 C
436 12-02-2019 12:15:00 5.3 C 83 % 2.65 C
437 12-02-2019 12:20:00 5.3 C 82 % 2.48 C
438 12-02-2019 12:25:00 5.4 C 82 % 2.58 C
439 12-02-2019 12:30:00 5.4 C 82 % 2.58 C
440 12-02-2019 12:35:00 5.5 C 83 % 2.85 C
441 12-02-2019 12:40:00 5.6 C 83 % 2.95 C
442 12-02-2019 12:45:00 5.7 C 81 % 2.7 C
443 12-02-2019 12:50:00 5.8 C 81 % 2.8 C
444 12-02-2019 12:55:00 5.9 C 81 % 2.9 C
445 12-02-2019 13:00:00 6 C 81 % 2.99 C
446 12-02-2019 13:05:00 6.1 C 81 % 3.09 C
447 12-02-2019 13:10:00 6.2 C 80 % 3.01 C
448 12-02-2019 13:15:00 6.2 C 80 % 3.01 C
449 12-02-2019 13:20:00 6.2 C 79 % 2.84 C
450 12-02-2019 13:25:00 6.3 C 80 % 3.11 C
Sensor: Nr:Datum:Temp:Feuchte:Taupunkt:
Aussen-T/F 451 12-02-2019 13:30:00 6.3 C 80 % 3.11 C
452 12-02-2019 13:35:00 6.4 C 80 % 3.21 C
453 12-02-2019 13:40:00 6.4 C 78 % 2.85 C
454 12-02-2019 13:45:00 6.5 C 78 % 2.95 C
455 12-02-2019 13:50:00 6.5 C 78 % 2.95 C
456 12-02-2019 13:55:00 6.6 C 78 % 3.05 C
457 12-02-2019 14:00:00 6.7 C 78 % 3.14 C
458 12-02-2019 14:05:00 6.7 C 78 % 3.14 C
459 12-02-2019 14:10:00 6.8 C 78 % 3.24 C
460 12-02-2019 14:15:00 6.9 C 77 % 3.16 C
461 12-02-2019 14:20:00 6.9 C 76 % 2.97 C
462 12-02-2019 14:25:00 6.9 C 76 % 2.97 C
463 12-02-2019 14:30:00 6.9 C 76 % 2.97 C
464 12-02-2019 14:35:00 6.9 C 76 % 2.97 C
465 12-02-2019 14:40:00 7 C 76 % 3.07 C
466 12-02-2019 14:45:00 6.9 C 77 % 3.16 C
467 12-02-2019 14:50:00 6.9 C 76 % 2.97 C
468 12-02-2019 14:55:00 7 C 77 % 3.25 C
469 12-02-2019 15:00:00 6.9 C 76 % 2.97 C
470 12-02-2019 15:05:00 6.9 C 75 % 2.78 C
471 12-02-2019 15:10:00 7 C 75 % 2.88 C
472 12-02-2019 15:15:00 7 C 76 % 3.07 C
473 12-02-2019 15:20:00 7.1 C 76 % 3.16 C
474 12-02-2019 15:25:00 7.1 C 76 % 3.16 C
475 12-02-2019 15:30:00 7.1 C 76 % 3.16 C
Sensor: Nr:Datum:Temp:Feuchte:Taupunkt:
Aussen-T/F 476 12-02-2019 15:35:00 7.1 C 75 % 2.98 C
477 12-02-2019 15:40:00 7.1 C 76 % 3.16 C
478 12-02-2019 15:45:00 7.1 C 76 % 3.16 C
479 12-02-2019 15:50:00 7.1 C 76 % 3.16 C
480 12-02-2019 15:55:00 7.1 C 76 % 3.16 C
481 12-02-2019 16:00:00 7.2 C 77 % 3.45 C
482 12-02-2019 16:05:00 7.3 C 76 % 3.36 C
483 12-02-2019 16:10:00 7.4 C 76 % 3.45 C
484 12-02-2019 16:15:00 7.5 C 75 % 3.36 C
485 12-02-2019 16:20:00 7.6 C 75 % 3.46 C
486 12-02-2019 16:25:00 7.5 C 74 % 3.17 C
487 12-02-2019 16:30:00 7.5 C 75 % 3.36 C
488 12-02-2019 16:35:00 7.5 C 74 % 3.17 C
489 12-02-2019 16:40:00 7.5 C 73 % 2.98 C
490 12-02-2019 16:45:00 7.4 C 74 % 3.08 C
491 12-02-2019 16:50:00 7.4 C 75 % 3.27 C
492 12-02-2019 16:55:00 7.3 C 74 % 2.98 C
493 12-02-2019 17:00:00 7.2 C 75 % 3.07 C
494 12-02-2019 17:05:00 7.1 C 75 % 2.98 C
495 12-02-2019 17:10:00 7 C 76 % 3.07 C
496 12-02-2019 17:15:00 6.9 C 75 % 2.78 C
497 12-02-2019 17:20:00 6.8 C 76 % 2.87 C
498 12-02-2019 17:25:00 6.8 C 77 % 3.06 C
499 12-02-2019 17:30:00 6.7 C 77 % 2.96 C
500 12-02-2019 17:35:00 6.4 C 78 % 2.85 C
Sensor: Nr:Datum:Temp:Feuchte:Taupunkt:
Aussen-T/F 501 12-02-2019 17:40:00 6.3 C 79 % 2.93 C
502 12-02-2019 17:45:00 6.1 C 79 % 2.74 C
503 12-02-2019 17:50:00 5.8 C 80 % 2.62 C
504 12-02-2019 17:55:00 5.6 C 81 % 2.6 C
505 12-02-2019 18:00:00 5.3 C 81 % 2.31 C
506 12-02-2019 18:05:00 5.1 C 82 % 2.29 C
507 12-02-2019 18:10:00 4.9 C 83 % 2.26 C
508 12-02-2019 18:15:00 4.7 C 84 % 2.23 C
509 12-02-2019 18:20:00 4.6 C 84 % 2.14 C
510 12-02-2019 18:25:00 4.4 C 85 % 2.11 C
511 12-02-2019 18:30:00 4.2 C 85 % 1.91 C
512 12-02-2019 18:35:00 4.1 C 86 % 1.97 C
513 12-02-2019 18:40:00 3.9 C 86 % 1.78 C
514 12-02-2019 18:45:00 3.8 C 86 % 1.68 C
515 12-02-2019 18:50:00 3.7 C 87 % 1.74 C
516 12-02-2019 18:55:00 3.6 C 87 % 1.64 C
517 12-02-2019 19:00:00 3.5 C 87 % 1.55 C
518 12-02-2019 19:05:00 3.4 C 87 % 1.45 C
519 12-02-2019 19:10:00 3.3 C 88 % 1.51 C
520 12-02-2019 19:15:00 3.2 C 88 % 1.41 C
521 12-02-2019 19:20:00 3.1 C 88 % 1.31 C
522 12-02-2019 19:25:00 3.1 C 89 % 1.47 C
523 12-02-2019 19:30:00 2.9 C 89 % 1.27 C
524 12-02-2019 19:35:00 2.9 C 89 % 1.27 C
525 12-02-2019 19:40:00 2.8 C 89 % 1.17 C
Sensor: Nr:Datum:Temp:Feuchte:Taupunkt:
Aussen-T/F 526 12-02-2019 19:45:00 2.8 C 89 % 1.17 C
527 12-02-2019 19:50:00 2.7 C 89 % 1.07 C
528 12-02-2019 19:55:00 2.6 C 89 % 0.97 C
529 12-02-2019 20:00:00 2.6 C 90 % 1.13 C
530 12-02-2019 20:05:00 2.5 C 90 % 1.03 C
531 12-02-2019 20:10:00 2.4 C 90 % 0.93 C
532 12-02-2019 20:15:00 2.4 C 90 % 0.93 C
533 12-02-2019 20:20:00 2.4 C 90 % 0.93 C
534 12-02-2019 20:25:00 2.4 C 90 % 0.93 C
535 12-02-2019 20:30:00 2.3 C 90 % 0.83 C
536 12-02-2019 20:35:00 2.3 C 90 % 0.83 C
537 12-02-2019 20:40:00 2.3 C 91 % 0.99 C
538 12-02-2019 20:45:00 2.2 C 91 % 0.89 C
539 12-02-2019 20:50:00 2.1 C 91 % 0.79 C
540 12-02-2019 20:55:00 2.1 C 91 % 0.79 C
541 12-02-2019 21:00:00 1.9 C 90 % 0.44 C
542 12-02-2019 21:05:00 1.8 C 91 % 0.49 C
543 12-02-2019 21:10:00 1.8 C 91 % 0.49 C
544 12-02-2019 21:15:00 1.7 C 91 % 0.39 C
545 12-02-2019 21:20:00 1.6 C 91 % 0.29 C
546 12-02-2019 21:25:00 1.6 C 92 % 0.44 C
547 12-02-2019 21:30:00 1.6 C 92 % 0.44 C
548 12-02-2019 21:35:00 1.5 C 92 % 0.35 C
549 12-02-2019 21:40:00 1.4 C 92 % 0.25 C
550 12-02-2019 21:45:00 1.4 C 92 % 0.25 C
Sensor: Nr:Datum:Temp:Feuchte:Taupunkt:
Aussen-T/F 551 12-02-2019 21:50:00 1.4 C 92 % 0.25 C
552 12-02-2019 21:55:00 1.4 C 92 % 0.25 C
553 12-02-2019 22:00:00 1.3 C 92 % 0.15 C
554 12-02-2019 22:05:00 1.3 C 92 % 0.15 C
555 12-02-2019 22:10:00 1.3 C 93 % 0.3 C
556 12-02-2019 22:15:00 1.3 C 93 % 0.3 C
557 12-02-2019 22:20:00 1.4 C 93 % 0.4 C
558 12-02-2019 22:25:00 1.5 C 93 % 0.49 C
559 12-02-2019 22:30:00 1.5 C 93 % 0.49 C
560 12-02-2019 22:35:00 1.5 C 93 % 0.49 C
561 12-02-2019 22:40:00 1.6 C 93 % 0.59 C
562 12-02-2019 22:45:00 1.5 C 93 % 0.49 C
563 12-02-2019 22:50:00 1.4 C 93 % 0.4 C
564 12-02-2019 22:55:00 1.4 C 93 % 0.4 C
565 12-02-2019 23:00:00 1.4 C 93 % 0.4 C
566 12-02-2019 23:05:00 1.4 C 93 % 0.4 C
567 12-02-2019 23:10:00 1.4 C 93 % 0.4 C
568 12-02-2019 23:15:00 1.3 C 93 % 0.3 C
569 12-02-2019 23:20:00 1.3 C 93 % 0.3 C
570 12-02-2019 23:25:00 1.3 C 93 % 0.3 C
571 12-02-2019 23:30:00 1.3 C 93 % 0.3 C
572 12-02-2019 23:35:00 1.3 C 93 % 0.3 C
573 12-02-2019 23:40:00 1.4 C 94 % 0.54 C
574 12-02-2019 23:45:00 1.5 C 94 % 0.64 C
575 12-02-2019 23:50:00 1.5 C 94 % 0.64 C
Sensor: Nr:Datum:Temp:Feuchte:Taupunkt:
Aussen-T/F 576 12-02-2019 23:55:00 1.4 C 93 % 0.4 C
577 13-02-2019 00:00:00 1.4 C 93 % 0.4 C
578 13-02-2019 00:05:00 1.4 C 93 % 0.4 C
579 13-02-2019 00:10:00 1.3 C 93 % 0.3 C
580 13-02-2019 00:15:00 1.3 C 93 % 0.3 C
581 13-02-2019 00:20:00 1.3 C 93 % 0.3 C
582 13-02-2019 00:25:00 1.2 C 93 % 0.2 C
583 13-02-2019 00:30:00 1.2 C 93 % 0.2 C
584 13-02-2019 00:35:00 1.2 C 93 % 0.2 C
585 13-02-2019 00:40:00 1.2 C 93 % 0.2 C
586 13-02-2019 00:45:00 1.2 C 93 % 0.2 C
587 13-02-2019 00:50:00 1.2 C 93 % 0.2 C
588 13-02-2019 00:55:00 1.1 C 93 % 0.1 C
589 13-02-2019 01:00:00 0.9 C 93 % -0.1 C
590 13-02-2019 01:05:00 1 C 94 % 0.15 C
591 13-02-2019 01:10:00 0.9 C 93 % -0.1 C
592 13-02-2019 01:15:00 0.9 C 93 % -0.1 C
593 13-02-2019 01:20:00 0.8 C 93 % -0.2 C
594 13-02-2019 01:25:00 0.8 C 93 % -0.2 C
595 13-02-2019 01:30:00 0.8 C 93 % -0.2 C
596 13-02-2019 01:35:00 0.9 C 94 % 0.05 C
597 13-02-2019 01:40:00 1 C 94 % 0.15 C
598 13-02-2019 01:45:00 0.9 C 93 % -0.1 C
599 13-02-2019 01:50:00 0.8 C 93 % -0.2 C
600 13-02-2019 01:55:00 0.6 C 93 % -0.4 C
Sensor: Nr:Datum:Temp:Feuchte:Taupunkt:
Aussen-T/F 601 13-02-2019 02:00:00 0.5 C 93 % -0.5 C
602 13-02-2019 02:05:00 0.3 C 93 % -0.7 C
603 13-02-2019 02:10:00 0.2 C 93 % -0.79 C
604 13-02-2019 02:15:00 0.2 C 93 % -0.79 C
605 13-02-2019 02:20:00 0.1 C 93 % -0.89 C
606 13-02-2019 02:25:00 0.1 C 93 % -0.89 C
607 13-02-2019 02:30:00 0.1 C 93 % -0.89 C
608 13-02-2019 02:35:00 0 C 94 % -0.85 C
609 13-02-2019 02:40:00 0.1 C 94 % -0.75 C
610 13-02-2019 02:45:00 0 C 94 % -0.85 C
611 13-02-2019 02:50:00 0 C 94 % -0.85 C
612 13-02-2019 02:55:00 -0.1 C 94 % -0.95 C
613 13-02-2019 03:00:00 -0.2 C 94 % -1.05 C
614 13-02-2019 03:05:00 -0.2 C 94 % -1.05 C
615 13-02-2019 03:10:00 -0.3 C 94 % -1.15 C
616 13-02-2019 03:15:00 -0.3 C 94 % -1.15 C
617 13-02-2019 03:20:00 -0.3 C 94 % -1.15 C
618 13-02-2019 03:25:00 -0.4 C 94 % -1.25 C
619 13-02-2019 03:30:00 -0.4 C 94 % -1.25 C
620 13-02-2019 03:35:00 -0.4 C 94 % -1.25 C
621 13-02-2019 03:40:00 -0.4 C 94 % -1.25 C
622 13-02-2019 03:45:00 -0.3 C 94 % -1.15 C
623 13-02-2019 03:50:00 -0.3 C 94 % -1.15 C
624 13-02-2019 03:55:00 -0.3 C 94 % -1.15 C
625 13-02-2019 04:00:00 -0.3 C 94 % -1.15 C
Sensor: Nr:Datum:Temp:Feuchte:Taupunkt:
Aussen-T/F 626 13-02-2019 04:05:00 -0.4 C 94 % -1.25 C
627 13-02-2019 04:10:00 -0.4 C 94 % -1.25 C
628 13-02-2019 04:15:00 -0.4 C 94 % -1.25 C
629 13-02-2019 04:20:00 -0.4 C 95 % -1.1 C
630 13-02-2019 04:25:00 -0.4 C 94 % -1.25 C
631 13-02-2019 04:30:00 -0.3 C 95 % -1 C
632 13-02-2019 04:35:00 -0.3 C 95 % -1 C
633 13-02-2019 04:40:00 -0.3 C 95 % -1 C
634 13-02-2019 04:45:00 -0.3 C 95 % -1 C
635 13-02-2019 04:50:00 -0.2 C 95 % -0.9 C
636 13-02-2019 04:55:00 -0.3 C 95 % -1 C
637 13-02-2019 05:00:00 -0.3 C 95 % -1 C
638 13-02-2019 05:05:00 -0.3 C 95 % -1 C
639 13-02-2019 05:10:00 -0.3 C 95 % -1 C
640 13-02-2019 05:15:00 -0.3 C 95 % -1 C
641 13-02-2019 05:20:00 -0.4 C 95 % -1.1 C
642 13-02-2019 05:25:00 -0.5 C 95 % -1.2 C
643 13-02-2019 05:30:00 -0.5 C 95 % -1.2 C
644 13-02-2019 05:35:00 -0.6 C 95 % -1.3 C
645 13-02-2019 05:40:00 -0.6 C 95 % -1.3 C
646 13-02-2019 05:45:00 -0.6 C 95 % -1.3 C
647 13-02-2019 05:50:00 -0.6 C 95 % -1.3 C
648 13-02-2019 05:55:00 -0.6 C 95 % -1.3 C
649 13-02-2019 06:00:00 -0.6 C 95 % -1.3 C
650 13-02-2019 06:05:00 -0.6 C 95 % -1.3 C
Sensor: Nr:Datum:Temp:Feuchte:Taupunkt:
Aussen-T/F 651 13-02-2019 06:10:00 -0.5 C 95 % -1.2 C
652 13-02-2019 06:15:00 -0.5 C 95 % -1.2 C
653 13-02-2019 06:20:00 -0.6 C 95 % -1.3 C
654 13-02-2019 06:25:00 -0.6 C 95 % -1.3 C
655 13-02-2019 06:30:00 -0.5 C 95 % -1.2 C
656 13-02-2019 06:35:00 -0.5 C 95 % -1.2 C
657 13-02-2019 06:40:00 -0.4 C 95 % -1.1 C
658 13-02-2019 06:45:00 -0.3 C 95 % -1 C
659 13-02-2019 06:50:00 -0.2 C 96 % -0.76 C
660 13-02-2019 06:55:00 -0.1 C 96 % -0.66 C
661 13-02-2019 07:00:00 0 C 96 % -0.56 C
662 13-02-2019 07:05:00 0.1 C 96 % -0.46 C
663 13-02-2019 07:10:00 0.1 C 96 % -0.46 C
664 13-02-2019 07:15:00 0.2 C 96 % -0.36 C
665 13-02-2019 07:20:00 0.3 C 96 % -0.26 C
666 13-02-2019 07:25:00 0.3 C 96 % -0.26 C
667 13-02-2019 07:30:00 0.3 C 96 % -0.26 C
668 13-02-2019 07:35:00 0.3 C 96 % -0.26 C
669 13-02-2019 07:40:00 0.4 C 96 % -0.16 C
670 13-02-2019 07:45:00 0.4 C 96 % -0.16 C
671 13-02-2019 07:50:00 0.4 C 96 % -0.16 C
672 13-02-2019 07:55:00 0.4 C 96 % -0.16 C
673 13-02-2019 08:00:00 0.5 C 96 % -0.06 C
674 13-02-2019 08:05:00 0.5 C 96 % -0.06 C
675 13-02-2019 08:10:00 0.6 C 96 % 0.04 C
Sensor: Nr:Datum:Temp:Feuchte:Taupunkt:
Aussen-T/F 676 13-02-2019 08:15:00 0.6 C 96 % 0.04 C
677 13-02-2019 08:20:00 0.6 C 96 % 0.04 C
678 13-02-2019 08:25:00 0.7 C 96 % 0.14 C
679 13-02-2019 08:30:00 0.7 C 96 % 0.14 C
680 13-02-2019 08:35:00 0.7 C 96 % 0.14 C
681 13-02-2019 08:40:00 0.7 C 95 % -0.01 C
682 13-02-2019 08:45:00 0.8 C 95 % 0.09 C
683 13-02-2019 08:50:00 0.8 C 95 % 0.09 C
684 13-02-2019 08:55:00 0.8 C 95 % 0.09 C
685 13-02-2019 09:00:00 0.9 C 95 % 0.19 C
686 13-02-2019 09:05:00 0.9 C 96 % 0.34 C
687 13-02-2019 09:10:00 0.9 C 95 % 0.19 C
688 13-02-2019 09:15:00 0.9 C 95 % 0.19 C
689 13-02-2019 09:20:00 1 C 95 % 0.29 C
690 13-02-2019 09:25:00 1 C 95 % 0.29 C
691 13-02-2019 09:30:00 1 C 95 % 0.29 C
692 13-02-2019 09:35:00 1 C 95 % 0.29 C
693 13-02-2019 09:40:00 1.1 C 95 % 0.39 C
694 13-02-2019 09:45:00 1.1 C 95 % 0.39 C
695 13-02-2019 09:50:00 1.1 C 95 % 0.39 C
696 13-02-2019 09:55:00 1.2 C 95 % 0.49 C
697 13-02-2019 10:00:00 1.3 C 95 % 0.59 C
698 13-02-2019 10:05:00 1.3 C 94 % 0.44 C
699 13-02-2019 10:10:00 1.3 C 94 % 0.44 C
700 13-02-2019 10:15:00 1.4 C 94 % 0.54 C
Sensor: Nr:Datum:Temp:Feuchte:Taupunkt:
Aussen-T/F 701 13-02-2019 10:20:00 1.5 C 94 % 0.64 C
702 13-02-2019 10:25:00 1.6 C 94 % 0.74 C
703 13-02-2019 10:30:00 1.7 C 94 % 0.84 C
704 13-02-2019 10:35:00 1.7 C 93 % 0.69 C
705 13-02-2019 10:40:00 1.8 C 93 % 0.79 C
706 13-02-2019 10:45:00 1.8 C 93 % 0.79 C
707 13-02-2019 10:50:00 1.9 C 93 % 0.89 C
708 13-02-2019 10:55:00 2 C 93 % 0.99 C
709 13-02-2019 11:00:00 2.1 C 93 % 1.09 C
710 13-02-2019 11:05:00 2.2 C 92 % 1.04 C
711 13-02-2019 11:10:00 2.2 C 92 % 1.04 C
712 13-02-2019 11:15:00 2.3 C 91 % 0.99 C
713 13-02-2019 11:20:00 2.3 C 91 % 0.99 C
714 13-02-2019 11:25:00 2.3 C 91 % 0.99 C
715 13-02-2019 11:30:00 2.3 C 91 % 0.99 C
716 13-02-2019 11:35:00 2.3 C 91 % 0.99 C
717 13-02-2019 11:40:00 2.4 C 91 % 1.08 C
718 13-02-2019 11:45:00 2.4 C 91 % 1.08 C
719 13-02-2019 11:50:00 2.5 C 91 % 1.18 C
720 13-02-2019 11:55:00 2.6 C 91 % 1.28 C
721 13-02-2019 12:00:00 2.7 C 91 % 1.38 C
722 13-02-2019 12:05:00 2.8 C 91 % 1.48 C
723 13-02-2019 12:10:00 2.9 C 91 % 1.58 C
724 13-02-2019 12:15:00 3.1 C 91 % 1.78 C
725 13-02-2019 12:20:00 3.3 C 91 % 1.98 C
Sensor: Nr:Datum:Temp:Feuchte:Taupunkt:
Aussen-T/F 726 13-02-2019 12:25:00 3.5 C 90 % 2.02 C
727 13-02-2019 12:30:00 3.7 C 90 % 2.22 C
728 13-02-2019 12:35:00 3.9 C 89 % 2.26 C
729 13-02-2019 12:40:00 4.1 C 88 % 2.3 C
730 13-02-2019 12:45:00 4.3 C 87 % 2.33 C
731 13-02-2019 12:50:00 4.3 C 86 % 2.17 C
732 13-02-2019 12:55:00 4.4 C 86 % 2.27 C
733 13-02-2019 13:00:00 4.6 C 86 % 2.47 C
734 13-02-2019 13:05:00 4.6 C 85 % 2.3 C
735 13-02-2019 13:10:00 4.7 C 86 % 2.56 C
736 13-02-2019 13:15:00 4.8 C 85 % 2.5 C
737 13-02-2019 13:20:00 4.8 C 85 % 2.5 C
738 13-02-2019 13:25:00 4.9 C 85 % 2.6 C
739 13-02-2019 13:30:00 4.9 C 84 % 2.43 C
740 13-02-2019 13:35:00 4.9 C 84 % 2.43 C
741 13-02-2019 13:40:00 5 C 84 % 2.53 C
742 13-02-2019 13:45:00 5.1 C 84 % 2.63 C
743 13-02-2019 13:50:00 5.2 C 84 % 2.72 C
744 13-02-2019 13:55:00 5.2 C 84 % 2.72 C
745 13-02-2019 14:00:00 5.2 C 83 % 2.56 C
746 13-02-2019 14:05:00 5.3 C 84 % 2.82 C
747 13-02-2019 14:10:00 5.3 C 83 % 2.65 C
748 13-02-2019 14:15:00 5.4 C 83 % 2.75 C
749 13-02-2019 14:20:00 5.4 C 83 % 2.75 C
750 13-02-2019 14:25:00 5.4 C 83 % 2.75 C
Sensor: Nr:Datum:Temp:Feuchte:Taupunkt:
Aussen-T/F 751 13-02-2019 14:30:00 5.5 C 83 % 2.85 C
752 13-02-2019 14:35:00 5.5 C 83 % 2.85 C
753 13-02-2019 14:40:00 5.5 C 83 % 2.85 C
754 13-02-2019 14:45:00 5.5 C 83 % 2.85 C
755 13-02-2019 14:50:00 5.5 C 83 % 2.85 C
756 13-02-2019 14:55:00 5.5 C 83 % 2.85 C
757 13-02-2019 15:00:00 5.5 C 83 % 2.85 C
758 13-02-2019 15:05:00 5.5 C 83 % 2.85 C
759 13-02-2019 15:10:00 5.5 C 83 % 2.85 C
760 13-02-2019 15:15:00 5.5 C 83 % 2.85 C
761 13-02-2019 15:20:00 5.5 C 83 % 2.85 C
762 13-02-2019 15:25:00 5.6 C 83 % 2.95 C
763 13-02-2019 15:30:00 5.6 C 83 % 2.95 C
764 13-02-2019 15:35:00 5.6 C 83 % 2.95 C
765 13-02-2019 15:40:00 5.7 C 83 % 3.04 C
766 13-02-2019 15:45:00 5.7 C 83 % 3.04 C
767 13-02-2019 15:50:00 5.7 C 84 % 3.21 C
768 13-02-2019 15:55:00 5.8 C 84 % 3.31 C
769 13-02-2019 16:00:00 5.8 C 84 % 3.31 C
770 13-02-2019 16:05:00 5.8 C 84 % 3.31 C
771 13-02-2019 16:10:00 5.7 C 84 % 3.21 C
772 13-02-2019 16:15:00 5.7 C 85 % 3.38 C
773 13-02-2019 16:20:00 5.6 C 85 % 3.28 C
774 13-02-2019 16:25:00 5.6 C 85 % 3.28 C
775 13-02-2019 16:30:00 5.5 C 86 % 3.35 C
Sensor: Nr:Datum:Temp:Feuchte:Taupunkt:
Aussen-T/F 776 13-02-2019 16:35:00 5.4 C 86 % 3.25 C
777 13-02-2019 16:40:00 5.4 C 87 % 3.41 C
778 13-02-2019 16:45:00 5.4 C 87 % 3.41 C
779 13-02-2019 16:50:00 5.3 C 88 % 3.48 C
780 13-02-2019 16:55:00 5.3 C 88 % 3.48 C
781 13-02-2019 17:00:00 5.3 C 88 % 3.48 C
782 13-02-2019 17:05:00 5.2 C 88 % 3.38 C
783 13-02-2019 17:10:00 5.2 C 88 % 3.38 C
784 13-02-2019 17:15:00 5.1 C 88 % 3.28 C
785 13-02-2019 17:20:00 4.9 C 88 % 3.08 C
786 13-02-2019 17:25:00 4.8 C 88 % 2.99 C
787 13-02-2019 17:30:00 4.7 C 88 % 2.89 C
788 13-02-2019 17:35:00 4.5 C 89 % 2.85 C
789 13-02-2019 17:40:00 4.3 C 89 % 2.65 C
790 13-02-2019 17:45:00 4.2 C 89 % 2.55 C
791 13-02-2019 17:50:00 4.1 C 90 % 2.61 C
792 13-02-2019 17:55:00 4 C 89 % 2.36 C
793 13-02-2019 18:00:00 3.8 C 90 % 2.31 C
794 13-02-2019 18:05:00 3.7 C 90 % 2.22 C
795 13-02-2019 18:10:00 3.6 C 90 % 2.12 C
796 13-02-2019 18:15:00 3.4 C 90 % 1.92 C
797 13-02-2019 18:20:00 3.3 C 90 % 1.82 C
798 13-02-2019 18:25:00 3.3 C 91 % 1.98 C
799 13-02-2019 18:30:00 3.2 C 91 % 1.88 C
800 13-02-2019 18:35:00 3.1 C 91 % 1.78 C
Sensor: Nr:Datum:Temp:Feuchte:Taupunkt:
Aussen-T/F 801 13-02-2019 18:40:00 2.9 C 90 % 1.43 C
802 13-02-2019 18:45:00 2.8 C 91 % 1.48 C
803 13-02-2019 18:50:00 2.7 C 91 % 1.38 C
804 13-02-2019 18:55:00 2.7 C 91 % 1.38 C
805 13-02-2019 19:00:00 2.6 C 91 % 1.28 C
806 13-02-2019 19:05:00 2.4 C 91 % 1.08 C
807 13-02-2019 19:10:00 2.3 C 91 % 0.99 C
808 13-02-2019 19:15:00 2.1 C 91 % 0.79 C
809 13-02-2019 19:20:00 1.9 C 91 % 0.59 C
810 13-02-2019 19:25:00 1.7 C 91 % 0.39 C
811 13-02-2019 19:30:00 1.6 C 92 % 0.44 C
812 13-02-2019 19:35:00 1.6 C 92 % 0.44 C
813 13-02-2019 19:40:00 1.6 C 93 % 0.59 C
814 13-02-2019 19:45:00 1.6 C 93 % 0.59 C
815 13-02-2019 19:50:00 1.4 C 92 % 0.25 C
816 13-02-2019 19:55:00 1.4 C 92 % 0.25 C
817 13-02-2019 20:00:00 1.4 C 93 % 0.4 C
818 13-02-2019 20:05:00 1.3 C 93 % 0.3 C
819 13-02-2019 20:10:00 1.3 C 93 % 0.3 C
820 13-02-2019 20:15:00 1.3 C 93 % 0.3 C
821 13-02-2019 20:20:00 1.2 C 93 % 0.2 C
822 13-02-2019 20:25:00 1.2 C 93 % 0.2 C
823 13-02-2019 20:30:00 1.2 C 93 % 0.2 C
824 13-02-2019 20:35:00 1.1 C 93 % 0.1 C
825 13-02-2019 20:40:00 1.1 C 93 % 0.1 C
Sensor: Nr:Datum:Temp:Feuchte:Taupunkt:
Aussen-T/F 826 13-02-2019 20:45:00 1 C 93 % 0 C
827 13-02-2019 20:50:00 0.9 C 93 % -0.1 C
828 13-02-2019 20:55:00 0.8 C 92 % -0.35 C
829 13-02-2019 21:00:00 0.8 C 93 % -0.2 C
830 13-02-2019 21:05:00 0.7 C 93 % -0.3 C
831 13-02-2019 21:10:00 0.8 C 93 % -0.2 C
832 13-02-2019 21:15:00 0.9 C 93 % -0.1 C
833 13-02-2019 21:20:00 0.8 C 92 % -0.35 C
834 13-02-2019 21:25:00 0.7 C 92 % -0.45 C
835 13-02-2019 21:30:00 0.5 C 92 % -0.65 C
836 13-02-2019 21:35:00 0.4 C 92 % -0.74 C
837 13-02-2019 21:40:00 0.4 C 92 % -0.74 C
838 13-02-2019 21:45:00 0.3 C 92 % -0.84 C
839 13-02-2019 21:50:00 0.2 C 92 % -0.94 C
840 13-02-2019 21:55:00 0.2 C 92 % -0.94 C
841 13-02-2019 22:00:00 0.2 C 93 % -0.79 C
842 13-02-2019 22:05:00 0.2 C 93 % -0.79 C
843 13-02-2019 22:10:00 0.2 C 93 % -0.79 C
844 13-02-2019 22:15:00 0.1 C 93 % -0.89 C
845 13-02-2019 22:20:00 0.2 C 93 % -0.79 C
846 13-02-2019 22:25:00 0.2 C 93 % -0.79 C
847 13-02-2019 22:30:00 0.3 C 93 % -0.7 C
848 13-02-2019 22:35:00 0.2 C 93 % -0.79 C
849 13-02-2019 22:40:00 0.1 C 93 % -0.89 C
850 13-02-2019 22:45:00 0 C 93 % -0.99 C
Sensor: Nr:Datum:Temp:Feuchte:Taupunkt:
Aussen-T/F 851 13-02-2019 22:50:00 -0.1 C 93 % -1.09 C
852 13-02-2019 22:55:00 -0.1 C 93 % -1.09 C
853 13-02-2019 23:00:00 -0.1 C 93 % -1.09 C
854 13-02-2019 23:05:00 -0.2 C 93 % -1.19 C
855 13-02-2019 23:10:00 -0.3 C 93 % -1.29 C
856 13-02-2019 23:15:00 -0.3 C 93 % -1.29 C
857 13-02-2019 23:20:00 -0.3 C 93 % -1.29 C
858 13-02-2019 23:25:00 -0.4 C 93 % -1.39 C
859 13-02-2019 23:30:00 -0.6 C 93 % -1.59 C
860 13-02-2019 23:35:00 -0.6 C 93 % -1.59 C
861 13-02-2019 23:40:00 -0.6 C 93 % -1.59 C
862 13-02-2019 23:45:00 -0.6 C 93 % -1.59 C
863 13-02-2019 23:50:00 -0.7 C 93 % -1.69 C
864 13-02-2019 23:55:00 -0.7 C 93 % -1.69 C
865 14-02-2019 00:00:00 -0.7 C 93 % -1.69 C
866 14-02-2019 00:05:00 -0.7 C 93 % -1.69 C
867 14-02-2019 00:10:00 -0.7 C 93 % -1.69 C
868 14-02-2019 00:15:00 -0.7 C 93 % -1.69 C
869 14-02-2019 00:20:00 -0.7 C 94 % -1.54 C
870 14-02-2019 00:25:00 -0.7 C 94 % -1.54 C
871 14-02-2019 00:30:00 -0.6 C 94 % -1.44 C
872 14-02-2019 00:35:00 -0.6 C 93 % -1.59 C
873 14-02-2019 00:40:00 -0.7 C 93 % -1.69 C
874 14-02-2019 00:45:00 -0.8 C 93 % -1.79 C
875 14-02-2019 00:50:00 -0.8 C 93 % -1.79 C
Sensor: Nr:Datum:Temp:Feuchte:Taupunkt:
Aussen-T/F 876 14-02-2019 00:55:00 -0.9 C 93 % -1.89 C
877 14-02-2019 01:00:00 -1 C 93 % -1.99 C
878 14-02-2019 01:05:00 -1 C 94 % -1.84 C
879 14-02-2019 01:10:00 -1 C 94 % -1.84 C
880 14-02-2019 01:15:00 -1 C 94 % -1.84 C
881 14-02-2019 01:20:00 -1.1 C 94 % -1.94 C
882 14-02-2019 01:25:00 -1.1 C 94 % -1.94 C
883 14-02-2019 01:30:00 -1.1 C 94 % -1.94 C
884 14-02-2019 01:35:00 -1.1 C 94 % -1.94 C
885 14-02-2019 01:40:00 -1.1 C 94 % -1.94 C
886 14-02-2019 01:45:00 -1.1 C 94 % -1.94 C
887 14-02-2019 01:50:00 -1.1 C 94 % -1.94 C
888 14-02-2019 01:55:00 -1 C 94 % -1.84 C
889 14-02-2019 02:00:00 -1.1 C 94 % -1.94 C
890 14-02-2019 02:05:00 -1.1 C 94 % -1.94 C
891 14-02-2019 02:10:00 -1.2 C 94 % -2.04 C
892 14-02-2019 02:15:00 -1.2 C 94 % -2.04 C
893 14-02-2019 02:20:00 -1.2 C 94 % -2.04 C
894 14-02-2019 02:25:00 -1.1 C 94 % -1.94 C
895 14-02-2019 02:30:00 -1 C 95 % -1.7 C
896 14-02-2019 02:35:00 -0.9 C 95 % -1.6 C
897 14-02-2019 02:40:00 -0.9 C 95 % -1.6 C
898 14-02-2019 02:45:00 -1 C 94 % -1.84 C
899 14-02-2019 02:50:00 -1.2 C 94 % -2.04 C
900 14-02-2019 02:55:00 -1.3 C 94 % -2.14 C
Sensor: Nr:Datum:Temp:Feuchte:Taupunkt:
Aussen-T/F 901 14-02-2019 03:00:00 -1.3 C 94 % -2.14 C
902 14-02-2019 03:05:00 -1.2 C 94 % -2.04 C
903 14-02-2019 03:10:00 -1.3 C 94 % -2.14 C
904 14-02-2019 03:15:00 -1.4 C 94 % -2.24 C
905 14-02-2019 03:20:00 -1.5 C 94 % -2.34 C
906 14-02-2019 03:25:00 -1.6 C 94 % -2.44 C
907 14-02-2019 03:30:00 -1.6 C 94 % -2.44 C
908 14-02-2019 03:35:00 -1.7 C 94 % -2.54 C
909 14-02-2019 03:40:00 -1.6 C 95 % -2.29 C
910 14-02-2019 03:45:00 -1.7 C 94 % -2.54 C
911 14-02-2019 03:50:00 -1.7 C 94 % -2.54 C
912 14-02-2019 03:55:00 -1.8 C 94 % -2.64 C
913 14-02-2019 04:00:00 -1.8 C 94 % -2.64 C
914 14-02-2019 04:05:00 -1.8 C 94 % -2.64 C
915 14-02-2019 04:10:00 -1.8 C 95 % -2.49 C
916 14-02-2019 04:15:00 -1.8 C 95 % -2.49 C
917 14-02-2019 04:20:00 -1.8 C 95 % -2.49 C
918 14-02-2019 04:25:00 -1.8 C 95 % -2.49 C
919 14-02-2019 04:30:00 -1.8 C 95 % -2.49 C
920 14-02-2019 04:35:00 -1.8 C 95 % -2.49 C
921 14-02-2019 04:40:00 -1.7 C 95 % -2.39 C
922 14-02-2019 04:45:00 -1.7 C 95 % -2.39 C
923 14-02-2019 04:50:00 -1.7 C 95 % -2.39 C
924 14-02-2019 04:55:00 -1.8 C 95 % -2.49 C
925 14-02-2019 05:00:00 -1.9 C 95 % -2.59 C
Sensor: Nr:Datum:Temp:Feuchte:Taupunkt:
Aussen-T/F 926 14-02-2019 05:05:00 -1.9 C 95 % -2.59 C
927 14-02-2019 05:10:00 -1.9 C 95 % -2.59 C
928 14-02-2019 05:15:00 -1.9 C 95 % -2.59 C
929 14-02-2019 05:20:00 -2 C 95 % -2.69 C
930 14-02-2019 05:25:00 -2.1 C 95 % -2.79 C
931 14-02-2019 05:30:00 -2 C 95 % -2.69 C
932 14-02-2019 05:35:00 -1.8 C 95 % -2.49 C
933 14-02-2019 05:40:00 -1.8 C 95 % -2.49 C
934 14-02-2019 05:45:00 -2 C 95 % -2.69 C
935 14-02-2019 05:50:00 -2.1 C 95 % -2.79 C
936 14-02-2019 05:55:00 -2.2 C 95 % -2.89 C
937 14-02-2019 06:00:00 -2.3 C 95 % -2.99 C
938 14-02-2019 06:05:00 -2.4 C 95 % -3.09 C
939 14-02-2019 06:10:00 -2.4 C 95 % -3.09 C
940 14-02-2019 06:15:00 -2.4 C 95 % -3.09 C
941 14-02-2019 06:20:00 -2.6 C 95 % -3.29 C
942 14-02-2019 06:25:00 -2.6 C 95 % -3.29 C
943 14-02-2019 06:30:00 -2.4 C 95 % -3.09 C
944 14-02-2019 06:35:00 -2.4 C 95 % -3.09 C
945 14-02-2019 06:40:00 -2.4 C 95 % -3.09 C
946 14-02-2019 06:45:00 -2.4 C 95 % -3.09 C
947 14-02-2019 06:50:00 -2.5 C 95 % -3.19 C
948 14-02-2019 06:55:00 -2.6 C 95 % -3.29 C
949 14-02-2019 07:00:00 -2.7 C 95 % -3.39 C
950 14-02-2019 07:05:00 -2.7 C 95 % -3.39 C
Sensor: Nr:Datum:Temp:Feuchte:Taupunkt:
Aussen-T/F 951 14-02-2019 07:10:00 -2.7 C 95 % -3.39 C
952 14-02-2019 07:15:00 -2.7 C 95 % -3.39 C
953 14-02-2019 07:20:00 -2.7 C 95 % -3.39 C
954 14-02-2019 07:25:00 -2.6 C 95 % -3.29 C
955 14-02-2019 07:30:00 -2.6 C 95 % -3.29 C
956 14-02-2019 07:35:00 -2.7 C 95 % -3.39 C
957 14-02-2019 07:40:00 -2.6 C 95 % -3.29 C
958 14-02-2019 07:45:00 -2.6 C 95 % -3.29 C
959 14-02-2019 07:50:00 -2.6 C 96 % -3.15 C
960 14-02-2019 07:55:00 -2.6 C 96 % -3.15 C
961 14-02-2019 08:00:00 -2.6 C 95 % -3.29 C
962 14-02-2019 08:05:00 -2.6 C 95 % -3.29 C
963 14-02-2019 08:10:00 -2.6 C 95 % -3.29 C
964 14-02-2019 08:15:00 -2.6 C 95 % -3.29 C
965 14-02-2019 08:20:00 -2.6 C 95 % -3.29 C
966 14-02-2019 08:25:00 -2.6 C 96 % -3.15 C
967 14-02-2019 08:30:00 -2.4 C 96 % -2.95 C
968 14-02-2019 08:35:00 -2.3 C 96 % -2.85 C
969 14-02-2019 08:40:00 -2.3 C 96 % -2.85 C
970 14-02-2019 08:45:00 -2.2 C 96 % -2.75 C
971 14-02-2019 08:50:00 -2.2 C 96 % -2.75 C
972 14-02-2019 08:55:00 -2.2 C 96 % -2.75 C
973 14-02-2019 09:00:00 -2.1 C 96 % -2.65 C
974 14-02-2019 09:05:00 -2.1 C 96 % -2.65 C
975 14-02-2019 09:10:00 -2.1 C 96 % -2.65 C
Sensor: Nr:Datum:Temp:Feuchte:Taupunkt:
Aussen-T/F 976 14-02-2019 09:15:00 -2.1 C 96 % -2.65 C
977 14-02-2019 09:20:00 -2.1 C 96 % -2.65 C
978 14-02-2019 09:25:00 -2.1 C 96 % -2.65 C
979 14-02-2019 09:30:00 -2 C 96 % -2.55 C
980 14-02-2019 09:35:00 -2.1 C 96 % -2.65 C
981 14-02-2019 09:40:00 -2.1 C 96 % -2.65 C
982 14-02-2019 09:45:00 -2 C 96 % -2.55 C
983 14-02-2019 09:50:00 -2.1 C 96 % -2.65 C
984 14-02-2019 09:55:00 -2.1 C 96 % -2.65 C
985 14-02-2019 10:00:00 -2.1 C 96 % -2.65 C
986 14-02-2019 10:05:00 -2.1 C 96 % -2.65 C
987 14-02-2019 10:10:00 -2 C 96 % -2.55 C
988 14-02-2019 10:15:00 -1.9 C 96 % -2.45 C
989 14-02-2019 10:20:00 -1.8 C 96 % -2.35 C
990 14-02-2019 10:25:00 -1.7 C 96 % -2.25 C
991 14-02-2019 10:30:00 -1.6 C 96 % -2.15 C
992 14-02-2019 10:35:00 -1.5 C 96 % -2.05 C
993 14-02-2019 10:40:00 -1.4 C 96 % -1.95 C
994 14-02-2019 10:45:00 -1.4 C 96 % -1.95 C
995 14-02-2019 10:50:00 -1.4 C 96 % -1.95 C
996 14-02-2019 10:55:00 -1.4 C 96 % -1.95 C
997 14-02-2019 11:00:00 -1.3 C 96 % -1.85 C
998 14-02-2019 11:05:00 -1.3 C 96 % -1.85 C
999 14-02-2019 11:10:00 -1.2 C 96 % -1.75 C
1000 14-02-2019 11:15:00 -1.2 C 96 % -1.75 C
Sensor: Nr:Datum:Temp:Feuchte:Taupunkt:
Aussen-T/F 1001 14-02-2019 11:20:00 -1.1 C 96 % -1.66 C
1002 14-02-2019 11:25:00 -1.1 C 96 % -1.66 C
1003 14-02-2019 11:30:00 -0.9 C 97 % -1.32 C
1004 14-02-2019 11:35:00 -0.8 C 96 % -1.36 C
1005 14-02-2019 11:40:00 -0.7 C 97 % -1.12 C
1006 14-02-2019 11:45:00 -0.6 C 97 % -1.02 C
1007 14-02-2019 11:50:00 -0.4 C 97 % -0.82 C
1008 14-02-2019 11:55:00 -0.2 C 97 % -0.62 C
1009 14-02-2019 12:00:00 -0.1 C 97 % -0.52 C
1010 14-02-2019 12:05:00 0.1 C 97 % -0.32 C
1011 14-02-2019 12:10:00 0.1 C 97 % -0.32 C
1012 14-02-2019 12:15:00 0.2 C 97 % -0.22 C
1013 14-02-2019 12:20:00 0.3 C 97 % -0.12 C
1014 14-02-2019 12:25:00 0.4 C 97 % -0.02 C
1015 14-02-2019 12:30:00 0.6 C 97 % 0.18 C
1016 14-02-2019 12:35:00 0.8 C 97 % 0.38 C
1017 14-02-2019 12:40:00 1.1 C 97 % 0.68 C
1018 14-02-2019 12:45:00 1.3 C 97 % 0.88 C
1019 14-02-2019 12:50:00 1.6 C 97 % 1.18 C
1020 14-02-2019 12:55:00 1.7 C 97 % 1.28 C
1021 14-02-2019 13:00:00 1.8 C 97 % 1.38 C
1022 14-02-2019 13:05:00 1.9 C 97 % 1.48 C
1023 14-02-2019 13:10:00 2.1 C 97 % 1.67 C
1024 14-02-2019 13:15:00 2.2 C 97 % 1.77 C
1025 14-02-2019 13:20:00 2.4 C 97 % 1.97 C
Sensor: Nr:Datum:Temp:Feuchte:Taupunkt:
Aussen-T/F 1026 14-02-2019 13:25:00 2.6 C 97 % 2.17 C
1027 14-02-2019 13:30:00 2.8 C 97 % 2.37 C
1028 14-02-2019 13:35:00 3 C 97 % 2.57 C
1029 14-02-2019 13:40:00 3.3 C 97 % 2.87 C
1030 14-02-2019 13:45:00 3.5 C 97 % 3.07 C
1031 14-02-2019 13:50:00 3.7 C 97 % 3.27 C
1032 14-02-2019 13:55:00 3.8 C 96 % 3.22 C
1033 14-02-2019 14:00:00 3.9 C 96 % 3.32 C
1034 14-02-2019 14:05:00 4.2 C 96 % 3.62 C
1035 14-02-2019 14:10:00 4.3 C 96 % 3.72 C
1036 14-02-2019 14:15:00 4.4 C 95 % 3.67 C
1037 14-02-2019 14:20:00 4.4 C 94 % 3.52 C
1038 14-02-2019 14:25:00 4.5 C 94 % 3.62 C
1039 14-02-2019 14:30:00 4.6 C 94 % 3.72 C
1040 14-02-2019 14:35:00 4.8 C 94 % 3.92 C
1041 14-02-2019 14:40:00 4.9 C 94 % 4.02 C
1042 14-02-2019 14:45:00 5.1 C 94 % 4.22 C
1043 14-02-2019 14:50:00 5.3 C 94 % 4.41 C
1044 14-02-2019 14:55:00 5.5 C 93 % 4.46 C
1045 14-02-2019 15:00:00 5.7 C 93 % 4.66 C
1046 14-02-2019 15:05:00 6 C 93 % 4.96 C
1047 14-02-2019 15:10:00 6.3 C 93 % 5.25 C
1048 14-02-2019 15:15:00 6.6 C 92 % 5.4 C
1049 14-02-2019 15:20:00 6.7 C 91 % 5.34 C
1050 14-02-2019 15:25:00 6.7 C 90 % 5.18 C
Sensor: Nr:Datum:Temp:Feuchte:Taupunkt:
Aussen-T/F 1051 14-02-2019 15:30:00 6.7 C 89 % 5.02 C
1052 14-02-2019 15:35:00 6.7 C 89 % 5.02 C
1053 14-02-2019 15:40:00 6.7 C 89 % 5.02 C
1054 14-02-2019 15:45:00 6.6 C 89 % 4.92 C
1055 14-02-2019 15:50:00 6.6 C 88 % 4.76 C
1056 14-02-2019 15:55:00 6.5 C 88 % 4.66 C
1057 14-02-2019 16:00:00 6.4 C 88 % 4.56 C
1058 14-02-2019 16:05:00 6.4 C 88 % 4.56 C
1059 14-02-2019 16:10:00 6.3 C 88 % 4.46 C
1060 14-02-2019 16:15:00 6.3 C 88 % 4.46 C
1061 14-02-2019 16:20:00 6.2 C 88 % 4.36 C
1062 14-02-2019 16:25:00 6.1 C 88 % 4.27 C
1063 14-02-2019 16:30:00 6.1 C 88 % 4.27 C
1064 14-02-2019 16:35:00 5.9 C 88 % 4.07 C
1065 14-02-2019 16:40:00 5.9 C 88 % 4.07 C
1066 14-02-2019 16:45:00 5.8 C 88 % 3.97 C
1067 14-02-2019 16:50:00 5.8 C 88 % 3.97 C
1068 14-02-2019 16:55:00 5.8 C 89 % 4.13 C
1069 14-02-2019 17:00:00 5.8 C 88 % 3.97 C
1070 14-02-2019 17:05:00 5.8 C 88 % 3.97 C
1071 14-02-2019 17:10:00 5.8 C 88 % 3.97 C
1072 14-02-2019 17:15:00 5.7 C 87 % 3.71 C
1073 14-02-2019 17:20:00 5.7 C 88 % 3.87 C
1074 14-02-2019 17:25:00 5.7 C 88 % 3.87 C
1075 14-02-2019 17:30:00 5.7 C 87 % 3.71 C
Sensor: Nr:Datum:Temp:Feuchte:Taupunkt:
Aussen-T/F 1076 14-02-2019 17:35:00 5.6 C 88 % 3.77 C
1077 14-02-2019 17:40:00 5.6 C 88 % 3.77 C
1078 14-02-2019 17:45:00 5.4 C 88 % 3.58 C
1079 14-02-2019 17:50:00 5.4 C 88 % 3.58 C
1080 14-02-2019 17:55:00 5.3 C 88 % 3.48 C
1081 14-02-2019 18:00:00 5.2 C 88 % 3.38 C
1082 14-02-2019 18:05:00 5 C 87 % 3.02 C
1083 14-02-2019 18:10:00 4.9 C 87 % 2.92 C
1084 14-02-2019 18:15:00 4.8 C 87 % 2.82 C
1085 14-02-2019 18:20:00 4.7 C 87 % 2.73 C
1086 14-02-2019 18:25:00 4.6 C 87 % 2.63 C
1087 14-02-2019 18:30:00 4.5 C 87 % 2.53 C
1088 14-02-2019 18:35:00 4.4 C 87 % 2.43 C
1089 14-02-2019 18:40:00 4.3 C 86 % 2.17 C
1090 14-02-2019 18:45:00 4.3 C 86 % 2.17 C
1091 14-02-2019 18:50:00 4.2 C 85 % 1.91 C
1092 14-02-2019 18:55:00 4.1 C 85 % 1.81 C
1093 14-02-2019 19:00:00 3.9 C 85 % 1.61 C
1094 14-02-2019 19:05:00 3.8 C 85 % 1.52 C
1095 14-02-2019 19:10:00 3.6 C 85 % 1.32 C
1096 14-02-2019 19:15:00 3.4 C 85 % 1.12 C
1097 14-02-2019 19:20:00 3.3 C 85 % 1.03 C
1098 14-02-2019 19:25:00 3.2 C 85 % 0.93 C
1099 14-02-2019 19:30:00 3.1 C 85 % 0.83 C
1100 14-02-2019 19:35:00 3.1 C 85 % 0.83 C
Sensor: Nr:Datum:Temp:Feuchte:Taupunkt:
Aussen-T/F 1101 14-02-2019 19:40:00 3 C 85 % 0.73 C
1102 14-02-2019 19:45:00 3 C 86 % 0.89 C
1103 14-02-2019 19:50:00 3.1 C 86 % 0.99 C
1104 14-02-2019 19:55:00 3.2 C 86 % 1.09 C
1105 14-02-2019 20:00:00 3.2 C 86 % 1.09 C
1106 14-02-2019 20:05:00 3.3 C 87 % 1.35 C
1107 14-02-2019 20:10:00 3.3 C 87 % 1.35 C
1108 14-02-2019 20:15:00 3.2 C 87 % 1.25 C
1109 14-02-2019 20:20:00 3.1 C 87 % 1.15 C
1110 14-02-2019 20:25:00 2.9 C 86 % 0.8 C
1111 14-02-2019 20:30:00 2.8 C 86 % 0.7 C
1112 14-02-2019 20:35:00 2.6 C 86 % 0.5 C
1113 14-02-2019 20:40:00 2.4 C 87 % 0.46 C
1114 14-02-2019 20:45:00 2.3 C 88 % 0.52 C
1115 14-02-2019 20:50:00 2.2 C 88 % 0.42 C
1116 14-02-2019 20:55:00 2.1 C 88 % 0.33 C
1117 14-02-2019 21:00:00 2 C 89 % 0.38 C
1118 14-02-2019 21:05:00 1.9 C 89 % 0.28 C
1119 14-02-2019 21:10:00 1.8 C 89 % 0.19 C
1120 14-02-2019 21:15:00 1.8 C 90 % 0.34 C
1121 14-02-2019 21:20:00 1.8 C 90 % 0.34 C
1122 14-02-2019 21:25:00 1.6 C 89 % -0.01 C
1123 14-02-2019 21:30:00 1.5 C 89 % -0.11 C
1124 14-02-2019 21:35:00 1.4 C 90 % -0.06 C
1125 14-02-2019 21:40:00 1.4 C 89 % -0.21 C
Sensor: Nr:Datum:Temp:Feuchte:Taupunkt:
Aussen-T/F 1126 14-02-2019 21:45:00 1.2 C 89 % -0.41 C
1127 14-02-2019 21:50:00 1.2 C 90 % -0.25 C
1128 14-02-2019 21:55:00 1 C 90 % -0.45 C
1129 14-02-2019 22:00:00 0.9 C 90 % -0.55 C
1130 14-02-2019 22:05:00 0.8 C 90 % -0.65 C
1131 14-02-2019 22:10:00 0.8 C 91 % -0.5 C
1132 14-02-2019 22:15:00 0.7 C 91 % -0.6 C
1133 14-02-2019 22:20:00 0.6 C 91 % -0.7 C
1134 14-02-2019 22:25:00 0.5 C 91 % -0.79 C
1135 14-02-2019 22:30:00 0.4 C 91 % -0.89 C
1136 14-02-2019 22:35:00 0.3 C 91 % -0.99 C
1137 14-02-2019 22:40:00 0.3 C 92 % -0.84 C
1138 14-02-2019 22:45:00 0.2 C 92 % -0.94 C
1139 14-02-2019 22:50:00 0.2 C 92 % -0.94 C
1140 14-02-2019 22:55:00 0.2 C 92 % -0.94 C
1141 14-02-2019 23:00:00 0.1 C 92 % -1.04 C
1142 14-02-2019 23:05:00 0.1 C 93 % -0.89 C
1143 14-02-2019 23:10:00 0.1 C 93 % -0.89 C
1144 14-02-2019 23:15:00 0.1 C 93 % -0.89 C
1145 14-02-2019 23:20:00 0.1 C 93 % -0.89 C
1146 14-02-2019 23:25:00 0 C 93 % -0.99 C
1147 14-02-2019 23:30:00 -0.1 C 93 % -1.09 C
1148 14-02-2019 23:35:00 -0.2 C 93 % -1.19 C
1149 14-02-2019 23:40:00 -0.2 C 93 % -1.19 C
1150 14-02-2019 23:45:00 -0.2 C 93 % -1.19 C
Sensor: Nr:Datum:Temp:Feuchte:Taupunkt:
Aussen-T/F 1151 14-02-2019 23:50:00 -0.2 C 93 % -1.19 C
1152 14-02-2019 23:55:00 -0.3 C 93 % -1.29 C
1153 15-02-2019 00:00:00 -0.3 C 93 % -1.29 C
1154 15-02-2019 00:05:00 -0.4 C 93 % -1.39 C
1155 15-02-2019 00:10:00 -0.4 C 94 % -1.25 C
1156 15-02-2019 00:15:00 -0.4 C 94 % -1.25 C
1157 15-02-2019 00:20:00 -0.4 C 94 % -1.25 C
1158 15-02-2019 00:25:00 -0.6 C 93 % -1.59 C
1159 15-02-2019 00:30:00 -0.6 C 94 % -1.44 C
1160 15-02-2019 00:35:00 -0.7 C 94 % -1.54 C
1161 15-02-2019 00:40:00 -0.7 C 94 % -1.54 C
1162 15-02-2019 00:45:00 -0.7 C 94 % -1.54 C
1163 15-02-2019 00:50:00 -0.7 C 94 % -1.54 C
1164 15-02-2019 00:55:00 -0.7 C 94 % -1.54 C
1165 15-02-2019 01:00:00 -0.7 C 94 % -1.54 C
1166 15-02-2019 01:05:00 -0.8 C 94 % -1.64 C
1167 15-02-2019 01:10:00 -0.8 C 94 % -1.64 C
1168 15-02-2019 01:15:00 -0.8 C 94 % -1.64 C
1169 15-02-2019 01:20:00 -0.9 C 94 % -1.74 C
1170 15-02-2019 01:25:00 -1 C 94 % -1.84 C
1171 15-02-2019 01:30:00 -1 C 94 % -1.84 C
1172 15-02-2019 01:35:00 -1 C 94 % -1.84 C
1173 15-02-2019 01:40:00 -1 C 94 % -1.84 C
1174 15-02-2019 01:45:00 -1 C 95 % -1.7 C
1175 15-02-2019 01:50:00 -1.1 C 95 % -1.8 C
Sensor: Nr:Datum:Temp:Feuchte:Taupunkt:
Aussen-T/F 1176 15-02-2019 01:55:00 -1.1 C 95 % -1.8 C
1177 15-02-2019 02:00:00 -1.1 C 95 % -1.8 C
1178 15-02-2019 02:05:00 -1 C 95 % -1.7 C
1179 15-02-2019 02:10:00 -1 C 95 % -1.7 C
1180 15-02-2019 02:15:00 -1.1 C 94 % -1.94 C
1181 15-02-2019 02:20:00 -1.1 C 94 % -1.94 C
1182 15-02-2019 02:25:00 -1.1 C 95 % -1.8 C
1183 15-02-2019 02:30:00 -1.1 C 95 % -1.8 C
1184 15-02-2019 02:35:00 -1.2 C 95 % -1.9 C
1185 15-02-2019 02:40:00 -1.2 C 95 % -1.9 C
1186 15-02-2019 02:45:00 -1.3 C 95 % -2 C
1187 15-02-2019 02:50:00 -1.3 C 95 % -2 C
1188 15-02-2019 02:55:00 -1.3 C 95 % -2 C
1189 15-02-2019 03:00:00 -1.3 C 95 % -2 C
1190 15-02-2019 03:05:00 -1.3 C 95 % -2 C
1191 15-02-2019 03:10:00 -1.4 C 95 % -2.1 C
1192 15-02-2019 03:15:00 -1.4 C 95 % -2.1 C
1193 15-02-2019 03:20:00 -1.4 C 95 % -2.1 C
1194 15-02-2019 03:25:00 -1.4 C 95 % -2.1 C
1195 15-02-2019 03:30:00 -1.5 C 95 % -2.19 C
1196 15-02-2019 03:35:00 -1.5 C 95 % -2.19 C
1197 15-02-2019 03:40:00 -1.5 C 95 % -2.19 C
1198 15-02-2019 03:45:00 -1.5 C 95 % -2.19 C
1199 15-02-2019 03:50:00 -1.4 C 95 % -2.1 C
1200 15-02-2019 03:55:00 -1.3 C 95 % -2 C
Sensor: Nr:Datum:Temp:Feuchte:Taupunkt:
Aussen-T/F 1201 15-02-2019 04:00:00 -1.2 C 95 % -1.9 C
1202 15-02-2019 04:05:00 -1.2 C 95 % -1.9 C
1203 15-02-2019 04:10:00 -1.2 C 95 % -1.9 C
1204 15-02-2019 04:15:00 -1.3 C 95 % -2 C
1205 15-02-2019 04:20:00 -1.4 C 95 % -2.1 C
1206 15-02-2019 04:25:00 -1.5 C 95 % -2.19 C
1207 15-02-2019 04:30:00 -1.6 C 95 % -2.29 C
1208 15-02-2019 04:35:00 -1.7 C 95 % -2.39 C
1209 15-02-2019 04:40:00 -1.8 C 95 % -2.49 C
1210 15-02-2019 04:45:00 -1.8 C 95 % -2.49 C
1211 15-02-2019 04:50:00 -1.7 C 95 % -2.39 C
1212 15-02-2019 04:55:00 -1.7 C 95 % -2.39 C
1213 15-02-2019 05:00:00 -1.8 C 95 % -2.49 C
1214 15-02-2019 05:05:00 -1.8 C 95 % -2.49 C
1215 15-02-2019 05:10:00 -1.9 C 95 % -2.59 C
1216 15-02-2019 05:15:00 -1.9 C 95 % -2.59 C
1217 15-02-2019 05:20:00 -1.8 C 95 % -2.49 C
1218 15-02-2019 05:25:00 -1.9 C 95 % -2.59 C
1219 15-02-2019 05:30:00 -1.9 C 95 % -2.59 C
1220 15-02-2019 05:35:00 -1.9 C 95 % -2.59 C
1221 15-02-2019 05:40:00 -1.9 C 95 % -2.59 C
1222 15-02-2019 05:45:00 -1.9 C 95 % -2.59 C
1223 15-02-2019 05:50:00 -1.9 C 95 % -2.59 C
1224 15-02-2019 05:55:00 -2 C 95 % -2.69 C
1225 15-02-2019 06:00:00 -2 C 95 % -2.69 C
Sensor: Nr:Datum:Temp:Feuchte:Taupunkt:
Aussen-T/F 1226 15-02-2019 06:05:00 -2.1 C 95 % -2.79 C
1227 15-02-2019 06:10:00 -2.1 C 95 % -2.79 C
1228 15-02-2019 06:15:00 -2.1 C 95 % -2.79 C
1229 15-02-2019 06:20:00 -2.2 C 95 % -2.89 C
1230 15-02-2019 06:25:00 -2.2 C 95 % -2.89 C
1231 15-02-2019 06:30:00 -2.1 C 95 % -2.79 C
1232 15-02-2019 06:35:00 -2.1 C 95 % -2.79 C
1233 15-02-2019 06:40:00 -2 C 95 % -2.69 C
1234 15-02-2019 06:45:00 -1.9 C 96 % -2.45 C
1235 15-02-2019 06:50:00 -2 C 96 % -2.55 C
1236 15-02-2019 06:55:00 -2.1 C 95 % -2.79 C
1237 15-02-2019 07:00:00 -2.2 C 95 % -2.89 C
1238 15-02-2019 07:05:00 -2.2 C 95 % -2.89 C
1239 15-02-2019 07:10:00 -2.3 C 95 % -2.99 C
1240 15-02-2019 07:15:00 -2.3 C 95 % -2.99 C
1241 15-02-2019 07:20:00 -2.4 C 95 % -3.09 C
1242 15-02-2019 07:25:00 -2.4 C 95 % -3.09 C
1243 15-02-2019 07:30:00 -2.5 C 95 % -3.19 C
1244 15-02-2019 07:35:00 -2.5 C 95 % -3.19 C
1245 15-02-2019 07:40:00 -2.5 C 95 % -3.19 C
1246 15-02-2019 07:45:00 -2.5 C 95 % -3.19 C
1247 15-02-2019 07:50:00 -2.5 C 95 % -3.19 C
1248 15-02-2019 07:55:00 -2.5 C 95 % -3.19 C
1249 15-02-2019 08:00:00 -2.4 C 96 % -2.95 C
1250 15-02-2019 08:05:00 -2.4 C 96 % -2.95 C
Sensor: Nr:Datum:Temp:Feuchte:Taupunkt:
Aussen-T/F 1251 15-02-2019 08:10:00 -2.3 C 96 % -2.85 C
1252 15-02-2019 08:15:00 -2.2 C 96 % -2.75 C
1253 15-02-2019 08:20:00 -2.2 C 96 % -2.75 C
1254 15-02-2019 08:25:00 -2.1 C 96 % -2.65 C
1255 15-02-2019 08:30:00 -2.1 C 96 % -2.65 C
1256 15-02-2019 08:35:00 -2.1 C 96 % -2.65 C
1257 15-02-2019 08:40:00 -2.1 C 96 % -2.65 C
1258 15-02-2019 08:45:00 -2.1 C 96 % -2.65 C
1259 15-02-2019 08:50:00 -2.2 C 96 % -2.75 C
1260 15-02-2019 08:55:00 -2.2 C 96 % -2.75 C
1261 15-02-2019 09:00:00 -2.1 C 96 % -2.65 C
1262 15-02-2019 09:05:00 -2.1 C 96 % -2.65 C
1263 15-02-2019 09:10:00 -2 C 96 % -2.55 C
1264 15-02-2019 09:15:00 -1.9 C 96 % -2.45 C
1265 15-02-2019 09:20:00 -1.8 C 96 % -2.35 C
1266 15-02-2019 09:25:00 -1.8 C 96 % -2.35 C
1267 15-02-2019 09:30:00 -1.7 C 96 % -2.25 C
1268 15-02-2019 09:35:00 -1.5 C 96 % -2.05 C
1269 15-02-2019 09:40:00 -1.5 C 96 % -2.05 C
1270 15-02-2019 09:45:00 -1.4 C 96 % -1.95 C
1271 15-02-2019 09:50:00 -1.3 C 96 % -1.85 C
1272 15-02-2019 09:55:00 -1.2 C 96 % -1.75 C
1273 15-02-2019 10:00:00 -1.2 C 96 % -1.75 C
1274 15-02-2019 10:05:00 -1.1 C 96 % -1.66 C
1275 15-02-2019 10:10:00 -1 C 96 % -1.56 C
Sensor: Nr:Datum:Temp:Feuchte:Taupunkt:
Aussen-T/F 1276 15-02-2019 10:15:00 -0.9 C 96 % -1.46 C
1277 15-02-2019 10:20:00 -0.9 C 96 % -1.46 C
1278 15-02-2019 10:25:00 -0.8 C 96 % -1.36 C
1279 15-02-2019 10:30:00 -0.7 C 96 % -1.26 C
1280 15-02-2019 10:35:00 -0.6 C 96 % -1.16 C
1281 15-02-2019 10:40:00 -0.5 C 96 % -1.06 C
1282 15-02-2019 10:45:00 -0.3 C 97 % -0.72 C
1283 15-02-2019 10:50:00 -0.3 C 97 % -0.72 C
1284 15-02-2019 10:55:00 -0.1 C 96 % -0.66 C
1285 15-02-2019 11:00:00 0.1 C 97 % -0.32 C
1286 15-02-2019 11:05:00 0.3 C 97 % -0.12 C
1287 15-02-2019 11:10:00 0.6 C 97 % 0.18 C
1288 15-02-2019 11:15:00 0.8 C 97 % 0.38 C
1289 15-02-2019 11:20:00 1 C 97 % 0.58 C
1290 15-02-2019 11:25:00 1.2 C 97 % 0.78 C
1291 15-02-2019 11:30:00 1.4 C 97 % 0.98 C
1292 15-02-2019 11:35:00 1.7 C 97 % 1.28 C
1293 15-02-2019 11:40:00 1.8 C 97 % 1.38 C
1294 15-02-2019 11:45:00 2 C 97 % 1.58 C
1295 15-02-2019 11:50:00 2.1 C 97 % 1.67 C
1296 15-02-2019 11:55:00 2.2 C 97 % 1.77 C
1297 15-02-2019 12:00:00 2.2 C 97 % 1.77 C
1298 15-02-2019 12:05:00 2.3 C 97 % 1.87 C
1299 15-02-2019 12:10:00 2.6 C 97 % 2.17 C
1300 15-02-2019 12:15:00 2.7 C 97 % 2.27 C
Sensor: Nr:Datum:Temp:Feuchte:Taupunkt:
Aussen-T/F 1301 15-02-2019 12:20:00 2.9 C 97 % 2.47 C
1302 15-02-2019 12:25:00 3.2 C 97 % 2.77 C
1303 15-02-2019 12:30:00 3.6 C 97 % 3.17 C
1304 15-02-2019 12:35:00 3.8 C 97 % 3.37 C
1305 15-02-2019 12:40:00 4.1 C 97 % 3.67 C
1306 15-02-2019 12:45:00 4.3 C 96 % 3.72 C
1307 15-02-2019 12:50:00 4.6 C 96 % 4.02 C
1308 15-02-2019 12:55:00 4.7 C 95 % 3.97 C
1309 15-02-2019 13:00:00 4.8 C 95 % 4.07 C
1310 15-02-2019 13:05:00 4.9 C 94 % 4.02 C
1311 15-02-2019 13:10:00 5.1 C 94 % 4.22 C
1312 15-02-2019 13:15:00 5.3 C 94 % 4.41 C
1313 15-02-2019 13:20:00 5.5 C 93 % 4.46 C
1314 15-02-2019 13:25:00 5.7 C 93 % 4.66 C
1315 15-02-2019 13:30:00 5.9 C 92 % 4.7 C
1316 15-02-2019 13:35:00 6.2 C 91 % 4.84 C
1317 15-02-2019 13:40:00 6.5 C 90 % 4.98 C
1318 15-02-2019 13:45:00 6.8 C 89 % 5.12 C
1319 15-02-2019 13:50:00 7.1 C 88 % 5.25 C
1320 15-02-2019 13:55:00 7.4 C 86 % 5.22 C
1321 15-02-2019 14:00:00 7.7 C 85 % 5.34 C
1322 15-02-2019 14:05:00 7.8 C 84 % 5.27 C
1323 15-02-2019 14:10:00 8.1 C 84 % 5.56 C
1324 15-02-2019 14:15:00 8.2 C 83 % 5.49 C
1325 15-02-2019 14:20:00 8.3 C 82 % 5.41 C
Sensor: Nr:Datum:Temp:Feuchte:Taupunkt:
Aussen-T/F 1326 15-02-2019 14:25:00 8.3 C 82 % 5.41 C
1327 15-02-2019 14:30:00 8.3 C 82 % 5.41 C
1328 15-02-2019 14:35:00 8.3 C 82 % 5.41 C
1329 15-02-2019 14:40:00 8.4 C 82 % 5.51 C
1330 15-02-2019 14:45:00 8.4 C 82 % 5.51 C
1331 15-02-2019 14:50:00 8.6 C 82 % 5.71 C
1332 15-02-2019 14:55:00 8.7 C 82 % 5.8 C
1333 15-02-2019 15:00:00 8.8 C 81 % 5.72 C
1334 15-02-2019 15:05:00 8.9 C 80 % 5.64 C
1335 15-02-2019 15:10:00 9.2 C 80 % 5.94 C
1336 15-02-2019 15:15:00 9.3 C 79 % 5.85 C
1337 15-02-2019 15:20:00 9.5 C 79 % 6.05 C
1338 15-02-2019 15:25:00 9.6 C 78 % 5.96 C
1339 15-02-2019 15:30:00 9.8 C 77 % 5.97 C
1340 15-02-2019 15:35:00 9.8 C 77 % 5.97 C
1341 15-02-2019 15:40:00 9.9 C 76 % 5.87 C
1342 15-02-2019 15:45:00 9.9 C 75 % 5.68 C
1343 15-02-2019 15:50:00 10.1 C 75 % 5.88 C
1344 15-02-2019 15:55:00 10.2 C 72 % 5.39 C
1345 15-02-2019 16:00:00 10.4 C 71 % 5.38 C
1346 15-02-2019 16:05:00 10.8 C 64 % 4.27 C
1347 15-02-2019 16:10:00 11.2 C 68 % 5.52 C
1348 15-02-2019 16:15:00 11.3 C 68 % 5.62 C
1349 15-02-2019 16:20:00 11.1 C 67 % 5.21 C
1350 15-02-2019 16:25:00 10.9 C 68 % 5.23 C
Sensor: Nr:Datum:Temp:Feuchte:Taupunkt:
Aussen-T/F 1351 15-02-2019 16:30:00 10.8 C 69 % 5.35 C
1352 15-02-2019 16:35:00 10.6 C 70 % 5.36 C
1353 15-02-2019 16:40:00 10.3 C 70 % 5.08 C
1354 15-02-2019 16:45:00 10.2 C 70 % 4.98 C
1355 15-02-2019 16:50:00 10.2 C 71 % 5.18 C
1356 15-02-2019 16:55:00 10.1 C 71 % 5.09 C
1357 15-02-2019 17:00:00 10 C 71 % 4.99 C
1358 15-02-2019 17:05:00 9.9 C 71 % 4.9 C
1359 15-02-2019 17:10:00 9.9 C 71 % 4.9 C
1360 15-02-2019 17:15:00 9.8 C 71 % 4.8 C
1361 15-02-2019 17:20:00 9.7 C 71 % 4.7 C
1362 15-02-2019 17:25:00 9.6 C 71 % 4.61 C
1363 15-02-2019 17:30:00 9.4 C 72 % 4.62 C
1364 15-02-2019 17:35:00 9.3 C 71 % 4.32 C
1365 15-02-2019 17:40:00 9 C 72 % 4.23 C
1366 15-02-2019 17:45:00 8.8 C 73 % 4.24 C
1367 15-02-2019 17:50:00 8.6 C 73 % 4.04 C
1368 15-02-2019 17:55:00 8.3 C 73 % 3.75 C
1369 15-02-2019 18:00:00 8.1 C 74 % 3.75 C
1370 15-02-2019 18:05:00 7.8 C 74 % 3.46 C
1371 15-02-2019 18:10:00 7.7 C 75 % 3.56 C
1372 15-02-2019 18:15:00 7.6 C 75 % 3.46 C
1373 15-02-2019 18:20:00 7.4 C 76 % 3.45 C
1374 15-02-2019 18:25:00 7.3 C 76 % 3.36 C
1375 15-02-2019 18:30:00 7.1 C 76 % 3.16 C
Sensor: Nr:Datum:Temp:Feuchte:Taupunkt:
Aussen-T/F 1376 15-02-2019 18:35:00 7 C 77 % 3.25 C
1377 15-02-2019 18:40:00 6.9 C 77 % 3.16 C
1378 15-02-2019 18:45:00 6.9 C 77 % 3.16 C
1379 15-02-2019 18:50:00 6.8 C 77 % 3.06 C
1380 15-02-2019 18:55:00 6.7 C 78 % 3.14 C
1381 15-02-2019 19:00:00 6.6 C 78 % 3.05 C
1382 15-02-2019 19:05:00 6.6 C 78 % 3.05 C
1383 15-02-2019 19:10:00 6.4 C 79 % 3.03 C
1384 15-02-2019 19:15:00 6.3 C 79 % 2.93 C
1385 15-02-2019 19:20:00 6.3 C 80 % 3.11 C
1386 15-02-2019 19:25:00 6.3 C 80 % 3.11 C
1387 15-02-2019 19:30:00 6.2 C 80 % 3.01 C
1388 15-02-2019 19:35:00 6.2 C 81 % 3.19 C
1389 15-02-2019 19:40:00 6.1 C 80 % 2.92 C
1390 15-02-2019 19:45:00 5.9 C 80 % 2.72 C
1391 15-02-2019 19:50:00 5.7 C 81 % 2.7 C
1392 15-02-2019 19:55:00 5.4 C 81 % 2.41 C
1393 15-02-2019 20:00:00 5.2 C 82 % 2.39 C
1394 15-02-2019 20:05:00 5.1 C 84 % 2.63 C
1395 15-02-2019 20:10:00 4.9 C 84 % 2.43 C
1396 15-02-2019 20:15:00 4.8 C 84 % 2.33 C
1397 15-02-2019 20:20:00 4.7 C 84 % 2.23 C
1398 15-02-2019 20:25:00 4.6 C 84 % 2.14 C
1399 15-02-2019 20:30:00 4.4 C 84 % 1.94 C
1400 15-02-2019 20:35:00 4.2 C 85 % 1.91 C
Sensor: Nr:Datum:Temp:Feuchte:Taupunkt:
Aussen-T/F 1401 15-02-2019 20:40:00 4.1 C 85 % 1.81 C
1402 15-02-2019 20:45:00 3.9 C 86 % 1.78 C
1403 15-02-2019 20:50:00 3.9 C 85 % 1.61 C
1404 15-02-2019 20:55:00 3.8 C 87 % 1.84 C
1405 15-02-2019 21:00:00 3.7 C 87 % 1.74 C
1406 15-02-2019 21:05:00 3.6 C 88 % 1.8 C
1407 15-02-2019 21:10:00 3.4 C 87 % 1.45 C
1408 15-02-2019 21:15:00 3.3 C 88 % 1.51 C
1409 15-02-2019 21:20:00 3.3 C 89 % 1.67 C
1410 15-02-2019 21:25:00 3.3 C 89 % 1.67 C
1411 15-02-2019 21:30:00 3.2 C 88 % 1.41 C
1412 15-02-2019 21:35:00 3.1 C 88 % 1.31 C
1413 15-02-2019 21:40:00 2.9 C 88 % 1.11 C
1414 15-02-2019 21:45:00 2.8 C 89 % 1.17 C
1415 15-02-2019 21:50:00 2.7 C 89 % 1.07 C
1416 15-02-2019 21:55:00 2.6 C 89 % 0.97 C
1417 15-02-2019 22:00:00 2.4 C 89 % 0.78 C
1418 15-02-2019 22:05:00 2.4 C 90 % 0.93 C
1419 15-02-2019 22:10:00 2.3 C 89 % 0.68 C
1420 15-02-2019 22:15:00 2.1 C 90 % 0.64 C
1421 15-02-2019 22:20:00 1.9 C 90 % 0.44 C
1422 15-02-2019 22:25:00 1.8 C 90 % 0.34 C
1423 15-02-2019 22:30:00 1.7 C 90 % 0.24 C
1424 15-02-2019 22:35:00 1.7 C 91 % 0.39 C
1425 15-02-2019 22:40:00 1.6 C 91 % 0.29 C
Sensor: Nr:Datum:Temp:Feuchte:Taupunkt:
Aussen-T/F 1426 15-02-2019 22:45:00 1.5 C 91 % 0.19 C
1427 15-02-2019 22:50:00 1.4 C 91 % 0.1 C
1428 15-02-2019 22:55:00 1.4 C 92 % 0.25 C
1429 15-02-2019 23:00:00 1.4 C 92 % 0.25 C
1430 15-02-2019 23:05:00 1.4 C 92 % 0.25 C
1431 15-02-2019 23:10:00 1.4 C 92 % 0.25 C
1432 15-02-2019 23:15:00 1.4 C 92 % 0.25 C
1433 15-02-2019 23:20:00 1.3 C 92 % 0.15 C
1434 15-02-2019 23:25:00 1.3 C 92 % 0.15 C
1435 15-02-2019 23:30:00 1.2 C 92 % 0.05 C
1436 15-02-2019 23:35:00 1.2 C 92 % 0.05 C
1437 15-02-2019 23:40:00 1.2 C 93 % 0.2 C
1438 15-02-2019 23:45:00 1.2 C 92 % 0.05 C
1439 15-02-2019 23:50:00 1 C 92 % -0.15 C
1440 15-02-2019 23:55:00 0.8 C 92 % -0.35 C
1441 16-02-2019 00:00:00 0.8 C 93 % -0.2 C
1442 16-02-2019 00:05:00 0.8 C 93 % -0.2 C
1443 16-02-2019 00:10:00 0.7 C 92 % -0.45 C
1444 16-02-2019 00:15:00 0.6 C 93 % -0.4 C
1445 16-02-2019 00:20:00 0.5 C 92 % -0.65 C
1446 16-02-2019 00:25:00 0.4 C 93 % -0.6 C
1447 16-02-2019 00:30:00 0.3 C 93 % -0.7 C
1448 16-02-2019 00:35:00 0.3 C 93 % -0.7 C
1449 16-02-2019 00:40:00 0.3 C 93 % -0.7 C
1450 16-02-2019 00:45:00 0.2 C 93 % -0.79 C
Sensor: Nr:Datum:Temp:Feuchte:Taupunkt:
Aussen-T/F 1451 16-02-2019 00:50:00 0.1 C 93 % -0.89 C
1452 16-02-2019 00:55:00 0 C 93 % -0.99 C
1453 16-02-2019 01:00:00 -0.1 C 93 % -1.09 C
1454 16-02-2019 01:05:00 0 C 94 % -0.85 C
1455 16-02-2019 01:10:00 -0.1 C 94 % -0.95 C
1456 16-02-2019 01:15:00 -0.2 C 93 % -1.19 C
1457 16-02-2019 01:20:00 -0.2 C 94 % -1.05 C
1458 16-02-2019 01:25:00 -0.2 C 94 % -1.05 C
1459 16-02-2019 01:30:00 -0.1 C 94 % -0.95 C
1460 16-02-2019 01:35:00 -0.1 C 94 % -0.95 C
1461 16-02-2019 01:40:00 -0.1 C 94 % -0.95 C
1462 16-02-2019 01:45:00 -0.2 C 94 % -1.05 C
1463 16-02-2019 01:50:00 -0.2 C 94 % -1.05 C
1464 16-02-2019 01:55:00 -0.3 C 94 % -1.15 C
1465 16-02-2019 02:00:00 -0.3 C 94 % -1.15 C
1466 16-02-2019 02:05:00 -0.3 C 94 % -1.15 C
1467 16-02-2019 02:10:00 -0.3 C 95 % -1 C
1468 16-02-2019 02:15:00 -0.2 C 95 % -0.9 C
1469 16-02-2019 02:20:00 -0.3 C 94 % -1.15 C
1470 16-02-2019 02:25:00 -0.4 C 94 % -1.25 C
1471 16-02-2019 02:30:00 -0.5 C 94 % -1.34 C
1472 16-02-2019 02:35:00 -0.7 C 94 % -1.54 C
1473 16-02-2019 02:40:00 -0.7 C 94 % -1.54 C
1474 16-02-2019 02:45:00 -0.7 C 95 % -1.4 C
1475 16-02-2019 02:50:00 -0.7 C 95 % -1.4 C
Sensor: Nr:Datum:Temp:Feuchte:Taupunkt:
Aussen-T/F 1476 16-02-2019 02:55:00 -0.7 C 95 % -1.4 C
1477 16-02-2019 03:00:00 -0.8 C 94 % -1.64 C
1478 16-02-2019 03:05:00 -0.8 C 94 % -1.64 C
1479 16-02-2019 03:10:00 -0.9 C 94 % -1.74 C
1480 16-02-2019 03:15:00 -0.9 C 95 % -1.6 C
1481 16-02-2019 03:20:00 -0.9 C 95 % -1.6 C
1482 16-02-2019 03:25:00 -0.8 C 95 % -1.5 C
1483 16-02-2019 03:30:00 -0.6 C 95 % -1.3 C
1484 16-02-2019 03:35:00 -0.6 C 95 % -1.3 C
1485 16-02-2019 03:40:00 -0.7 C 95 % -1.4 C
1486 16-02-2019 03:45:00 -0.7 C 95 % -1.4 C
1487 16-02-2019 03:50:00 -0.7 C 95 % -1.4 C
1488 16-02-2019 03:55:00 -0.7 C 95 % -1.4 C
1489 16-02-2019 04:00:00 -0.8 C 95 % -1.5 C
1490 16-02-2019 04:05:00 -0.6 C 95 % -1.3 C
1491 16-02-2019 04:10:00 -0.6 C 95 % -1.3 C
1492 16-02-2019 04:15:00 -0.7 C 95 % -1.4 C
1493 16-02-2019 04:20:00 -0.8 C 95 % -1.5 C
1494 16-02-2019 04:25:00 -0.9 C 95 % -1.6 C
1495 16-02-2019 04:30:00 -1 C 95 % -1.7 C
1496 16-02-2019 04:35:00 -1 C 95 % -1.7 C
1497 16-02-2019 04:40:00 -1.1 C 95 % -1.8 C
1498 16-02-2019 04:45:00 -1.2 C 95 % -1.9 C
1499 16-02-2019 04:50:00 -1.2 C 95 % -1.9 C
1500 16-02-2019 04:55:00 -1.2 C 95 % -1.9 C
Sensor: Nr:Datum:Temp:Feuchte:Taupunkt:
Aussen-T/F 1501 16-02-2019 05:00:00 -1.1 C 95 % -1.8 C
1502 16-02-2019 05:05:00 -0.9 C 96 % -1.46 C
1503 16-02-2019 05:10:00 -0.8 C 95 % -1.5 C
1504 16-02-2019 05:15:00 -0.9 C 95 % -1.6 C
1505 16-02-2019 05:20:00 -1.2 C 95 % -1.9 C
1506 16-02-2019 05:25:00 -1.3 C 95 % -2 C
1507 16-02-2019 05:30:00 -1.4 C 95 % -2.1 C
1508 16-02-2019 05:35:00 -1.5 C 95 % -2.19 C
1509 16-02-2019 05:40:00 -1.4 C 95 % -2.1 C
1510 16-02-2019 05:45:00 -1.1 C 96 % -1.66 C
1511 16-02-2019 05:50:00 -0.9 C 96 % -1.46 C
1512 16-02-2019 05:55:00 -0.9 C 96 % -1.46 C
1513 16-02-2019 06:00:00 -1.1 C 95 % -1.8 C
1514 16-02-2019 06:05:00 -1.3 C 95 % -2 C
1515 16-02-2019 06:10:00 -1.4 C 95 % -2.1 C
1516 16-02-2019 06:15:00 -1.3 C 95 % -2 C
1517 16-02-2019 06:20:00 -1.2 C 96 % -1.75 C
1518 16-02-2019 06:25:00 -1.2 C 95 % -1.9 C
1519 16-02-2019 06:30:00 -1.3 C 95 % -2 C
1520 16-02-2019 06:35:00 -1.2 C 95 % -1.9 C
1521 16-02-2019 06:40:00 -1.2 C 96 % -1.75 C
1522 16-02-2019 06:45:00 -1.2 C 96 % -1.75 C
1523 16-02-2019 06:50:00 -1.1 C 96 % -1.66 C
1524 16-02-2019 06:55:00 -1 C 96 % -1.56 C
1525 16-02-2019 07:00:00 -1.1 C 95 % -1.8 C
Sensor: Nr:Datum:Temp:Feuchte:Taupunkt:
Aussen-T/F 1526 16-02-2019 07:05:00 -1.2 C 95 % -1.9 C
1527 16-02-2019 07:10:00 -1.4 C 95 % -2.1 C
1528 16-02-2019 07:15:00 -1.6 C 95 % -2.29 C
1529 16-02-2019 07:20:00 -1.7 C 95 % -2.39 C
1530 16-02-2019 07:25:00 -1.7 C 95 % -2.39 C
1531 16-02-2019 07:30:00 -1.7 C 95 % -2.39 C
1532 16-02-2019 07:35:00 -1.7 C 95 % -2.39 C
1533 16-02-2019 07:40:00 -1.8 C 95 % -2.49 C
1534 16-02-2019 07:45:00 -1.9 C 95 % -2.59 C
1535 16-02-2019 07:50:00 -1.9 C 95 % -2.59 C
1536 16-02-2019 07:55:00 -2 C 95 % -2.69 C
1537 16-02-2019 08:00:00 -2 C 95 % -2.69 C
1538 16-02-2019 08:05:00 -1.9 C 96 % -2.45 C
1539 16-02-2019 08:10:00 -1.8 C 96 % -2.35 C
1540 16-02-2019 08:15:00 -1.8 C 96 % -2.35 C
1541 16-02-2019 08:20:00 -1.8 C 95 % -2.49 C
1542 16-02-2019 08:25:00 -1.8 C 95 % -2.49 C
1543 16-02-2019 08:30:00 -1.8 C 95 % -2.49 C
1544 16-02-2019 08:35:00 -1.8 C 95 % -2.49 C
1545 16-02-2019 08:40:00 -1.8 C 95 % -2.49 C
1546 16-02-2019 08:45:00 -1.7 C 96 % -2.25 C
1547 16-02-2019 08:50:00 -1.6 C 96 % -2.15 C
1548 16-02-2019 08:55:00 -1.6 C 96 % -2.15 C
1549 16-02-2019 09:00:00 -1.4 C 96 % -1.95 C
1550 16-02-2019 09:05:00 -1.3 C 96 % -1.85 C
Sensor: Nr:Datum:Temp:Feuchte:Taupunkt:
Aussen-T/F 1551 16-02-2019 09:10:00 -1.2 C 96 % -1.75 C
1552 16-02-2019 09:15:00 -1.2 C 96 % -1.75 C
1553 16-02-2019 09:20:00 -1.2 C 96 % -1.75 C
1554 16-02-2019 09:25:00 -1.2 C 96 % -1.75 C
1555 16-02-2019 09:30:00 -1.2 C 96 % -1.75 C
1556 16-02-2019 09:35:00 -1.1 C 96 % -1.66 C
1557 16-02-2019 09:40:00 -0.9 C 96 % -1.46 C
1558 16-02-2019 09:45:00 -0.8 C 96 % -1.36 C
1559 16-02-2019 09:50:00 -0.8 C 96 % -1.36 C
1560 16-02-2019 09:55:00 -0.8 C 96 % -1.36 C
1561 16-02-2019 10:00:00 -0.8 C 96 % -1.36 C
1562 16-02-2019 10:05:00 -0.8 C 96 % -1.36 C
1563 16-02-2019 10:10:00 -0.7 C 96 % -1.26 C
1564 16-02-2019 10:15:00 -0.6 C 96 % -1.16 C
1565 16-02-2019 10:20:00 -0.6 C 96 % -1.16 C
1566 16-02-2019 10:25:00 -0.5 C 96 % -1.06 C
1567 16-02-2019 10:30:00 -0.3 C 96 % -0.86 C
1568 16-02-2019 10:35:00 0.1 C 97 % -0.32 C
1569 16-02-2019 10:40:00 0.2 C 97 % -0.22 C
1570 16-02-2019 10:45:00 0.3 C 97 % -0.12 C
1571 16-02-2019 10:50:00 0.4 C 97 % -0.02 C
1572 16-02-2019 10:55:00 0.6 C 97 % 0.18 C
1573 16-02-2019 11:00:00 0.7 C 97 % 0.28 C
1574 16-02-2019 11:05:00 0.9 C 97 % 0.48 C
1575 16-02-2019 11:10:00 1.3 C 97 % 0.88 C
Sensor: Nr:Datum:Temp:Feuchte:Taupunkt:
Aussen-T/F 1576 16-02-2019 11:15:00 1.6 C 97 % 1.18 C
1577 16-02-2019 11:20:00 1.9 C 97 % 1.48 C
1578 16-02-2019 11:25:00 2.1 C 97 % 1.67 C
1579 16-02-2019 11:30:00 2.3 C 97 % 1.87 C
1580 16-02-2019 11:35:00 2.6 C 97 % 2.17 C
1581 16-02-2019 11:40:00 2.8 C 97 % 2.37 C
1582 16-02-2019 11:45:00 3.1 C 97 % 2.67 C
1583 16-02-2019 11:50:00 3.3 C 97 % 2.87 C
1584 16-02-2019 11:55:00 3.5 C 97 % 3.07 C
1585 16-02-2019 12:00:00 3.7 C 97 % 3.27 C
1586 16-02-2019 12:05:00 3.8 C 97 % 3.37 C
1587 16-02-2019 12:10:00 3.9 C 97 % 3.47 C
1588 16-02-2019 12:15:00 4.2 C 97 % 3.77 C
1589 16-02-2019 12:20:00 4.4 C 97 % 3.97 C
1590 16-02-2019 12:25:00 4.8 C 97 % 4.37 C
1591 16-02-2019 12:30:00 5.1 C 97 % 4.66 C
1592 16-02-2019 12:35:00 5.4 C 97 % 4.96 C
1593 16-02-2019 12:40:00 5.8 C 97 % 5.36 C
1594 16-02-2019 12:45:00 6 C 97 % 5.56 C
1595 16-02-2019 12:50:00 6.2 C 97 % 5.76 C
1596 16-02-2019 12:55:00 6.3 C 96 % 5.71 C
1597 16-02-2019 13:00:00 6.4 C 94 % 5.51 C
1598 16-02-2019 13:05:00 6.5 C 93 % 5.45 C
1599 16-02-2019 13:10:00 6.7 C 93 % 5.65 C
1600 16-02-2019 13:15:00 6.9 C 93 % 5.85 C
Sensor: Nr:Datum:Temp:Feuchte:Taupunkt:
Aussen-T/F 1601 16-02-2019 13:20:00 7.2 C 92 % 5.99 C
1602 16-02-2019 13:25:00 7.6 C 91 % 6.23 C
1603 16-02-2019 13:30:00 7.9 C 90 % 6.36 C
1604 16-02-2019 13:35:00 8.3 C 89 % 6.6 C
1605 16-02-2019 13:40:00 8.7 C 89 % 6.99 C
1606 16-02-2019 13:45:00 9 C 87 % 6.96 C
1607 16-02-2019 13:50:00 9.3 C 85 % 6.91 C
1608 16-02-2019 13:55:00 9.8 C 84 % 7.23 C
1609 16-02-2019 14:00:00 10.1 C 82 % 7.17 C
1610 16-02-2019 14:05:00 10.4 C 80 % 7.1 C
1611 16-02-2019 14:10:00 10.6 C 79 % 7.11 C
1612 16-02-2019 14:15:00 10.7 C 79 % 7.21 C
1613 16-02-2019 14:20:00 10.7 C 78 % 7.03 C
1614 16-02-2019 14:25:00 10.7 C 77 % 6.84 C
1615 16-02-2019 14:30:00 10.7 C 77 % 6.84 C
1616 16-02-2019 14:35:00 10.7 C 76 % 6.65 C
1617 16-02-2019 14:40:00 10.7 C 76 % 6.65 C
1618 16-02-2019 14:45:00 10.7 C 75 % 6.46 C
1619 16-02-2019 14:50:00 10.9 C 73 % 6.26 C
1620 16-02-2019 14:55:00 11.1 C 73 % 6.45 C
1621 16-02-2019 15:00:00 11.3 C 72 % 6.44 C
1622 16-02-2019 15:05:00 11.4 C 72 % 6.54 C
1623 16-02-2019 15:10:00 11.6 C 71 % 6.53 C
1624 16-02-2019 15:15:00 11.6 C 71 % 6.53 C
1625 16-02-2019 15:20:00 11.7 C 72 % 6.83 C
Sensor: Nr:Datum:Temp:Feuchte:Taupunkt:
Aussen-T/F 1626 16-02-2019 15:25:00 11.7 C 70 % 6.42 C
1627 16-02-2019 15:30:00 11.8 C 70 % 6.51 C
1628 16-02-2019 15:35:00 11.8 C 69 % 6.31 C
1629 16-02-2019 15:40:00 11.9 C 68 % 6.19 C
1630 16-02-2019 15:45:00 12 C 68 % 6.29 C
1631 16-02-2019 15:50:00 12.1 C 68 % 6.38 C
1632 16-02-2019 15:55:00 12.2 C 67 % 6.26 C
1633 16-02-2019 16:00:00 12.3 C 67 % 6.36 C
1634 16-02-2019 16:05:00 12.3 C 67 % 6.36 C
1635 16-02-2019 16:10:00 12.2 C 67 % 6.26 C
1636 16-02-2019 16:15:00 12.1 C 67 % 6.17 C
1637 16-02-2019 16:20:00 11.9 C 67 % 5.98 C
1638 16-02-2019 16:25:00 11.8 C 67 % 5.88 C
1639 16-02-2019 16:30:00 11.8 C 67 % 5.88 C
1640 16-02-2019 16:35:00 11.7 C 68 % 6 C
1641 16-02-2019 16:40:00 11.7 C 67 % 5.78 C
1642 16-02-2019 16:45:00 11.6 C 67 % 5.69 C
1643 16-02-2019 16:50:00 11.6 C 68 % 5.9 C
1644 16-02-2019 16:55:00 11.6 C 68 % 5.9 C
1645 16-02-2019 17:00:00 11.5 C 69 % 6.02 C
1646 16-02-2019 17:05:00 11.4 C 68 % 5.71 C
1647 16-02-2019 17:10:00 11.3 C 69 % 5.83 C
1648 16-02-2019 17:15:00 11.2 C 69 % 5.73 C
1649 16-02-2019 17:20:00 11 C 69 % 5.54 C
1650 16-02-2019 17:25:00 10.8 C 70 % 5.56 C
Sensor: Nr:Datum:Temp:Feuchte:Taupunkt:
Aussen-T/F 1651 16-02-2019 17:30:00 10.7 C 70 % 5.46 C
1652 16-02-2019 17:35:00 10.4 C 70 % 5.17 C
1653 16-02-2019 17:40:00 10.3 C 71 % 5.28 C
1654 16-02-2019 17:45:00 10.1 C 71 % 5.09 C
1655 16-02-2019 17:50:00 9.9 C 72 % 5.1 C
1656 16-02-2019 17:55:00 9.7 C 72 % 4.9 C
1657 16-02-2019 18:00:00 9.5 C 73 % 4.91 C
1658 16-02-2019 18:05:00 9.3 C 74 % 4.91 C
1659 16-02-2019 18:10:00 9.2 C 75 % 5.01 C
1660 16-02-2019 18:15:00 9 C 75 % 4.81 C
1661 16-02-2019 18:20:00 8.9 C 76 % 4.91 C
1662 16-02-2019 18:25:00 8.8 C 76 % 4.81 C
1663 16-02-2019 18:30:00 8.7 C 77 % 4.9 C
1664 16-02-2019 18:35:00 8.5 C 78 % 4.89 C
1665 16-02-2019 18:40:00 8.4 C 78 % 4.79 C
1666 16-02-2019 18:45:00 8.3 C 78 % 4.7 C
1667 16-02-2019 18:50:00 8.2 C 78 % 4.6 C
1668 16-02-2019 18:55:00 8.1 C 79 % 4.68 C
1669 16-02-2019 19:00:00 8.1 C 79 % 4.68 C
1670 16-02-2019 19:05:00 8 C 79 % 4.59 C
1671 16-02-2019 19:10:00 7.8 C 80 % 4.57 C
1672 16-02-2019 19:15:00 7.6 C 80 % 4.38 C
1673 16-02-2019 19:20:00 7.4 C 81 % 4.36 C
1674 16-02-2019 19:25:00 7.3 C 81 % 4.26 C
1675 16-02-2019 19:30:00 7.2 C 82 % 4.34 C
Sensor: Nr:Datum:Temp:Feuchte:Taupunkt:
Aussen-T/F 1676 16-02-2019 19:35:00 7.1 C 83 % 4.41 C
1677 16-02-2019 19:40:00 7.1 C 83 % 4.41 C
1678 16-02-2019 19:45:00 6.9 C 82 % 4.05 C
1679 16-02-2019 19:50:00 6.7 C 81 % 3.68 C
1680 16-02-2019 19:55:00 6.3 C 82 % 3.46 C
1681 16-02-2019 20:00:00 6.2 C 83 % 3.53 C
1682 16-02-2019 20:05:00 6.1 C 83 % 3.44 C
1683 16-02-2019 20:10:00 6 C 83 % 3.34 C
1684 16-02-2019 20:15:00 5.8 C 83 % 3.14 C
1685 16-02-2019 20:20:00 5.6 C 84 % 3.12 C
1686 16-02-2019 20:25:00 5.4 C 85 % 3.09 C
1687 16-02-2019 20:30:00 5.4 C 85 % 3.09 C
1688 16-02-2019 20:35:00 5.3 C 84 % 2.82 C
1689 16-02-2019 20:40:00 5.1 C 84 % 2.63 C
1690 16-02-2019 20:45:00 4.8 C 85 % 2.5 C
1691 16-02-2019 20:50:00 4.7 C 86 % 2.56 C
1692 16-02-2019 20:55:00 4.6 C 86 % 2.47 C
1693 16-02-2019 21:00:00 4.3 C 86 % 2.17 C
1694 16-02-2019 21:05:00 4.2 C 87 % 2.23 C
1695 16-02-2019 21:10:00 3.9 C 87 % 1.94 C
1696 16-02-2019 21:15:00 3.8 C 88 % 2 C
1697 16-02-2019 21:20:00 3.7 C 89 % 2.06 C
1698 16-02-2019 21:25:00 3.8 C 90 % 2.31 C
1699 16-02-2019 21:30:00 3.7 C 89 % 2.06 C
1700 16-02-2019 21:35:00 3.7 C 89 % 2.06 C
Sensor: Nr:Datum:Temp:Feuchte:Taupunkt:
Aussen-T/F 1701 16-02-2019 21:40:00 3.6 C 89 % 1.96 C
1702 16-02-2019 21:45:00 3.6 C 90 % 2.12 C
1703 16-02-2019 21:50:00 3.5 C 90 % 2.02 C
1704 16-02-2019 21:55:00 3.3 C 89 % 1.67 C
1705 16-02-2019 22:00:00 3.2 C 90 % 1.72 C
1706 16-02-2019 22:05:00 3.2 C 90 % 1.72 C
1707 16-02-2019 22:10:00 2.9 C 90 % 1.43 C
1708 16-02-2019 22:15:00 2.8 C 90 % 1.33 C
1709 16-02-2019 22:20:00 2.6 C 90 % 1.13 C
1710 16-02-2019 22:25:00 2.7 C 92 % 1.53 C
1711 16-02-2019 22:30:00 2.8 C 92 % 1.63 C
1712 16-02-2019 22:35:00 2.7 C 92 % 1.53 C
1713 16-02-2019 22:40:00 2.8 C 93 % 1.78 C
1714 16-02-2019 22:45:00 2.8 C 92 % 1.63 C
1715 16-02-2019 22:50:00 2.7 C 92 % 1.53 C
1716 16-02-2019 22:55:00 2.4 C 92 % 1.24 C
1717 16-02-2019 23:00:00 2.3 C 92 % 1.14 C
1718 16-02-2019 23:05:00 2.1 C 91 % 0.79 C
1719 16-02-2019 23:10:00 2 C 92 % 0.84 C
1720 16-02-2019 23:15:00 2.1 C 93 % 1.09 C
1721 16-02-2019 23:20:00 2 C 93 % 0.99 C
1722 16-02-2019 23:25:00 1.9 C 93 % 0.89 C
1723 16-02-2019 23:30:00 1.8 C 93 % 0.79 C
1724 16-02-2019 23:35:00 1.8 C 93 % 0.79 C
1725 16-02-2019 23:40:00 1.9 C 94 % 1.04 C
Sensor: Nr:Datum:Temp:Feuchte:Taupunkt:
Aussen-T/F 1726 16-02-2019 23:45:00 1.9 C 94 % 1.04 C
1727 16-02-2019 23:50:00 1.8 C 94 % 0.94 C
1728 16-02-2019 23:55:00 1.9 C 94 % 1.04 C
1729 17-02-2019 00:00:00 1.9 C 94 % 1.04 C
1730 17-02-2019 00:05:00 1.9 C 94 % 1.04 C
1731 17-02-2019 00:10:00 1.8 C 94 % 0.94 C
1732 17-02-2019 00:15:00 1.7 C 94 % 0.84 C
1733 17-02-2019 00:20:00 1.6 C 94 % 0.74 C
1734 17-02-2019 00:25:00 1.5 C 94 % 0.64 C
1735 17-02-2019 00:30:00 1.6 C 94 % 0.74 C
1736 17-02-2019 00:35:00 1.5 C 94 % 0.64 C
1737 17-02-2019 00:40:00 1.3 C 94 % 0.44 C
1738 17-02-2019 00:45:00 1.3 C 94 % 0.44 C
1739 17-02-2019 00:50:00 1.3 C 94 % 0.44 C
1740 17-02-2019 00:55:00 1.2 C 94 % 0.34 C
1741 17-02-2019 01:00:00 1.2 C 94 % 0.34 C
1742 17-02-2019 01:05:00 1.2 C 94 % 0.34 C
1743 17-02-2019 01:10:00 1.2 C 94 % 0.34 C
1744 17-02-2019 01:15:00 0.9 C 94 % 0.05 C
1745 17-02-2019 01:20:00 0.8 C 94 % -0.05 C
1746 17-02-2019 01:25:00 0.8 C 94 % -0.05 C
1747 17-02-2019 01:30:00 0.8 C 94 % -0.05 C
1748 17-02-2019 01:35:00 0.7 C 94 % -0.15 C
1749 17-02-2019 01:40:00 0.6 C 95 % -0.11 C
1750 17-02-2019 01:45:00 0.6 C 95 % -0.11 C
Sensor: Nr:Datum:Temp:Feuchte:Taupunkt:
Aussen-T/F 1751 17-02-2019 01:50:00 0.8 C 95 % 0.09 C
1752 17-02-2019 01:55:00 0.8 C 95 % 0.09 C
1753 17-02-2019 02:00:00 0.7 C 95 % -0.01 C
1754 17-02-2019 02:05:00 0.7 C 95 % -0.01 C
1755 17-02-2019 02:10:00 0.6 C 95 % -0.11 C
1756 17-02-2019 02:15:00 0.4 C 95 % -0.31 C
1757 17-02-2019 02:20:00 0.4 C 95 % -0.31 C
1758 17-02-2019 02:25:00 0.3 C 95 % -0.4 C
1759 17-02-2019 02:30:00 0.3 C 95 % -0.4 C
1760 17-02-2019 02:35:00 0.2 C 95 % -0.5 C
1761 17-02-2019 02:40:00 0.2 C 95 % -0.5 C
1762 17-02-2019 02:45:00 0.1 C 95 % -0.6 C
1763 17-02-2019 02:50:00 0 C 95 % -0.7 C
1764 17-02-2019 02:55:00 0.2 C 95 % -0.5 C
1765 17-02-2019 03:00:00 0.3 C 96 % -0.26 C
1766 17-02-2019 03:05:00 0.3 C 95 % -0.4 C
1767 17-02-2019 03:10:00 0.2 C 95 % -0.5 C
1768 17-02-2019 03:15:00 0.2 C 95 % -0.5 C
1769 17-02-2019 03:20:00 0.1 C 95 % -0.6 C
1770 17-02-2019 03:25:00 0 C 95 % -0.7 C
1771 17-02-2019 03:30:00 -0.1 C 95 % -0.8 C
1772 17-02-2019 03:35:00 -0.1 C 95 % -0.8 C
1773 17-02-2019 03:40:00 0 C 95 % -0.7 C
1774 17-02-2019 03:45:00 0.1 C 96 % -0.46 C
1775 17-02-2019 03:50:00 0.1 C 96 % -0.46 C
Sensor: Nr:Datum:Temp:Feuchte:Taupunkt:
Aussen-T/F 1776 17-02-2019 03:55:00 0 C 96 % -0.56 C
1777 17-02-2019 04:00:00 -0.1 C 96 % -0.66 C
1778 17-02-2019 04:05:00 -0.2 C 95 % -0.9 C
1779 17-02-2019 04:10:00 -0.2 C 95 % -0.9 C
1780 17-02-2019 04:15:00 -0.2 C 95 % -0.9 C
1781 17-02-2019 04:20:00 -0.3 C 95 % -1 C
1782 17-02-2019 04:25:00 -0.3 C 95 % -1 C
1783 17-02-2019 04:30:00 -0.3 C 96 % -0.86 C
1784 17-02-2019 04:35:00 -0.4 C 96 % -0.96 C
1785 17-02-2019 04:40:00 -0.4 C 95 % -1.1 C
1786 17-02-2019 04:45:00 -0.6 C 95 % -1.3 C
1787 17-02-2019 04:50:00 -0.7 C 95 % -1.4 C
1788 17-02-2019 04:55:00 -0.7 C 96 % -1.26 C
1789 17-02-2019 05:00:00 -0.6 C 96 % -1.16 C
1790 17-02-2019 05:05:00 -0.6 C 96 % -1.16 C
1791 17-02-2019 05:10:00 -0.7 C 96 % -1.26 C
1792 17-02-2019 05:15:00 -0.7 C 95 % -1.4 C
1793 17-02-2019 05:20:00 -0.8 C 95 % -1.5 C
1794 17-02-2019 05:25:00 -0.8 C 95 % -1.5 C
1795 17-02-2019 05:30:00 -0.8 C 96 % -1.36 C
1796 17-02-2019 05:35:00 -0.9 C 96 % -1.46 C
1797 17-02-2019 05:40:00 -1 C 96 % -1.56 C
1798 17-02-2019 05:45:00 -1.1 C 96 % -1.66 C
1799 17-02-2019 05:50:00 -1.1 C 95 % -1.8 C
1800 17-02-2019 05:55:00 -1.2 C 95 % -1.9 C
Sensor: Nr:Datum:Temp:Feuchte:Taupunkt:
Aussen-T/F 1801 17-02-2019 06:00:00 -1.1 C 96 % -1.66 C
1802 17-02-2019 06:05:00 -0.8 C 96 % -1.36 C
1803 17-02-2019 06:10:00 -0.8 C 96 % -1.36 C
1804 17-02-2019 06:15:00 -0.8 C 96 % -1.36 C
1805 17-02-2019 06:20:00 -0.9 C 96 % -1.46 C
1806 17-02-2019 06:25:00 -1.1 C 96 % -1.66 C
1807 17-02-2019 06:30:00 -1.1 C 96 % -1.66 C
1808 17-02-2019 06:35:00 -1.2 C 96 % -1.75 C
1809 17-02-2019 06:40:00 -1.1 C 96 % -1.66 C
1810 17-02-2019 06:45:00 -1 C 96 % -1.56 C
1811 17-02-2019 06:50:00 -0.9 C 96 % -1.46 C
1812 17-02-2019 06:55:00 -0.9 C 96 % -1.46 C
1813 17-02-2019 07:00:00 -1 C 96 % -1.56 C
1814 17-02-2019 07:05:00 -1.1 C 96 % -1.66 C
1815 17-02-2019 07:10:00 -1.2 C 96 % -1.75 C
1816 17-02-2019 07:15:00 -1.3 C 96 % -1.85 C
1817 17-02-2019 07:20:00 -1.3 C 96 % -1.85 C
1818 17-02-2019 07:25:00 -1.2 C 96 % -1.75 C
1819 17-02-2019 07:30:00 -1.2 C 96 % -1.75 C
1820 17-02-2019 07:35:00 -1.2 C 96 % -1.75 C
1821 17-02-2019 07:40:00 -1.3 C 96 % -1.85 C
1822 17-02-2019 07:45:00 -1.3 C 96 % -1.85 C
1823 17-02-2019 07:50:00 -1.4 C 96 % -1.95 C
1824 17-02-2019 07:55:00 -1.5 C 96 % -2.05 C
1825 17-02-2019 08:00:00 -1.5 C 96 % -2.05 C
Sensor: Nr:Datum:Temp:Feuchte:Taupunkt:
Aussen-T/F 1826 17-02-2019 08:05:00 -1.4 C 96 % -1.95 C
1827 17-02-2019 08:10:00 -1.5 C 96 % -2.05 C
1828 17-02-2019 08:15:00 -1.4 C 96 % -1.95 C
1829 17-02-2019 08:20:00 -1.4 C 96 % -1.95 C
1830 17-02-2019 08:25:00 -1.4 C 96 % -1.95 C
1831 17-02-2019 08:30:00 -1.4 C 96 % -1.95 C
1832 17-02-2019 08:35:00 -1.3 C 96 % -1.85 C
1833 17-02-2019 08:40:00 -1.2 C 96 % -1.75 C
1834 17-02-2019 08:45:00 -1.2 C 96 % -1.75 C
1835 17-02-2019 08:50:00 -1.2 C 96 % -1.75 C
1836 17-02-2019 08:55:00 -1.1 C 96 % -1.66 C
1837 17-02-2019 09:00:00 -1 C 96 % -1.56 C
1838 17-02-2019 09:05:00 -0.9 C 96 % -1.46 C
1839 17-02-2019 09:10:00 -0.9 C 96 % -1.46 C
1840 17-02-2019 09:15:00 -0.8 C 96 % -1.36 C
1841 17-02-2019 09:20:00 -0.8 C 96 % -1.36 C
1842 17-02-2019 09:25:00 -0.8 C 96 % -1.36 C
1843 17-02-2019 09:30:00 -0.8 C 96 % -1.36 C
1844 17-02-2019 09:35:00 -0.8 C 96 % -1.36 C
1845 17-02-2019 09:40:00 -0.8 C 96 % -1.36 C
1846 17-02-2019 09:45:00 -0.8 C 96 % -1.36 C
1847 17-02-2019 09:50:00 -0.7 C 96 % -1.26 C
1848 17-02-2019 09:55:00 -0.7 C 96 % -1.26 C
1849 17-02-2019 10:00:00 -0.7 C 96 % -1.26 C
1850 17-02-2019 10:05:00 -0.6 C 96 % -1.16 C
Sensor: Nr:Datum:Temp:Feuchte:Taupunkt:
Aussen-T/F 1851 17-02-2019 10:10:00 -0.5 C 96 % -1.06 C
1852 17-02-2019 10:15:00 -0.4 C 96 % -0.96 C
1853 17-02-2019 10:20:00 -0.4 C 97 % -0.82 C
1854 17-02-2019 10:25:00 -0.3 C 97 % -0.72 C
1855 17-02-2019 10:30:00 -0.2 C 97 % -0.62 C
1856 17-02-2019 10:35:00 -0.1 C 97 % -0.52 C
1857 17-02-2019 10:40:00 0.1 C 97 % -0.32 C
1858 17-02-2019 10:45:00 0.2 C 97 % -0.22 C
1859 17-02-2019 10:50:00 0.3 C 97 % -0.12 C
1860 17-02-2019 10:55:00 0.6 C 97 % 0.18 C
1861 17-02-2019 11:00:00 0.7 C 97 % 0.28 C
1862 17-02-2019 11:05:00 0.9 C 97 % 0.48 C
1863 17-02-2019 11:10:00 1.1 C 97 % 0.68 C
1864 17-02-2019 11:15:00 1.3 C 97 % 0.88 C
1865 17-02-2019 11:20:00 1.6 C 97 % 1.18 C
1866 17-02-2019 11:25:00 1.8 C 97 % 1.38 C
1867 17-02-2019 11:30:00 2.1 C 97 % 1.67 C
1868 17-02-2019 11:35:00 2.3 C 97 % 1.87 C
1869 17-02-2019 11:40:00 2.5 C 97 % 2.07 C
1870 17-02-2019 11:45:00 2.8 C 97 % 2.37 C
1871 17-02-2019 11:50:00 2.9 C 97 % 2.47 C
1872 17-02-2019 11:55:00 3.2 C 97 % 2.77 C
1873 17-02-2019 12:00:00 3.3 C 97 % 2.87 C
1874 17-02-2019 12:05:00 3.5 C 97 % 3.07 C
1875 17-02-2019 12:10:00 3.7 C 97 % 3.27 C
Sensor: Nr:Datum:Temp:Feuchte:Taupunkt:
Aussen-T/F 1876 17-02-2019 12:15:00 3.9 C 97 % 3.47 C
1877 17-02-2019 12:20:00 4.2 C 97 % 3.77 C
1878 17-02-2019 12:25:00 4.5 C 97 % 4.07 C
1879 17-02-2019 12:30:00 4.8 C 98 % 4.51 C
1880 17-02-2019 12:35:00 5.2 C 98 % 4.91 C
1881 17-02-2019 12:40:00 5.6 C 98 % 5.31 C
1882 17-02-2019 12:45:00 5.8 C 98 % 5.51 C
1883 17-02-2019 12:50:00 6.1 C 98 % 5.81 C
1884 17-02-2019 12:55:00 6.2 C 97 % 5.76 C
1885 17-02-2019 13:00:00 6.3 C 98 % 6.01 C
1886 17-02-2019 13:05:00 6.5 C 97 % 6.06 C
1887 17-02-2019 13:10:00 6.7 C 97 % 6.26 C
1888 17-02-2019 13:15:00 6.8 C 97 % 6.36 C
1889 17-02-2019 13:20:00 7.1 C 97 % 6.66 C
1890 17-02-2019 13:25:00 7.3 C 97 % 6.86 C
1891 17-02-2019 13:30:00 7.6 C 97 % 7.16 C
1892 17-02-2019 13:35:00 7.8 C 97 % 7.35 C
1893 17-02-2019 13:40:00 8.1 C 97 % 7.65 C
1894 17-02-2019 13:45:00 8.4 C 96 % 7.8 C
1895 17-02-2019 13:50:00 8.7 C 95 % 7.94 C
1896 17-02-2019 13:55:00 8.9 C 94 % 7.99 C
1897 17-02-2019 14:00:00 9.1 C 92 % 7.87 C
1898 17-02-2019 14:05:00 9.3 C 91 % 7.91 C
1899 17-02-2019 14:10:00 9.5 C 89 % 7.78 C
1900 17-02-2019 14:15:00 9.6 C 88 % 7.71 C
Sensor: Nr:Datum:Temp:Feuchte:Taupunkt:
Aussen-T/F 1901 17-02-2019 14:20:00 9.7 C 87 % 7.64 C
1902 17-02-2019 14:25:00 9.8 C 86 % 7.57 C
1903 17-02-2019 14:30:00 9.9 C 85 % 7.5 C
1904 17-02-2019 14:35:00 9.9 C 84 % 7.33 C
1905 17-02-2019 14:40:00 10 C 84 % 7.43 C
1906 17-02-2019 14:45:00 10.1 C 83 % 7.35 C
1907 17-02-2019 14:50:00 10.1 C 83 % 7.35 C
1908 17-02-2019 14:55:00 10.2 C 83 % 7.45 C
1909 17-02-2019 15:00:00 10.2 C 82 % 7.27 C
1910 17-02-2019 15:05:00 10.3 C 81 % 7.19 C
1911 17-02-2019 15:10:00 10.5 C 79 % 7.02 C
1912 17-02-2019 15:15:00 10.8 C 79 % 7.31 C
1913 17-02-2019 15:20:00 11.1 C 79 % 7.6 C
1914 17-02-2019 15:25:00 11.2 C 78 % 7.51 C
1915 17-02-2019 15:30:00 11.3 C 78 % 7.61 C
1916 17-02-2019 15:35:00 11.4 C 77 % 7.52 C
1917 17-02-2019 15:40:00 11.6 C 75 % 7.33 C
1918 17-02-2019 15:45:00 11.8 C 73 % 7.12 C
1919 17-02-2019 15:50:00 12 C 73 % 7.32 C
1920 17-02-2019 15:55:00 12.1 C 73 % 7.41 C
1921 17-02-2019 16:00:00 12.2 C 71 % 7.1 C
1922 17-02-2019 16:05:00 12.3 C 71 % 7.2 C
1923 17-02-2019 16:10:00 12.3 C 71 % 7.2 C
1924 17-02-2019 16:15:00 12.2 C 71 % 7.1 C
1925 17-02-2019 16:20:00 12.1 C 71 % 7.01 C
Sensor: Nr:Datum:Temp:Feuchte:Taupunkt:
Aussen-T/F 1926 17-02-2019 16:25:00 11.9 C 71 % 6.82 C
1927 17-02-2019 16:30:00 11.8 C 71 % 6.72 C
1928 17-02-2019 16:35:00 11.7 C 70 % 6.42 C
1929 17-02-2019 16:40:00 11.7 C 72 % 6.83 C
1930 17-02-2019 16:45:00 11.7 C 71 % 6.62 C
1931 17-02-2019 16:50:00 11.7 C 72 % 6.83 C
1932 17-02-2019 16:55:00 11.7 C 72 % 6.83 C
1933 17-02-2019 17:00:00 11.6 C 71 % 6.53 C
1934 17-02-2019 17:05:00 11.6 C 71 % 6.53 C
1935 17-02-2019 17:10:00 11.4 C 71 % 6.34 C
1936 17-02-2019 17:15:00 11.3 C 72 % 6.44 C
1937 17-02-2019 17:20:00 11.2 C 72 % 6.35 C
1938 17-02-2019 17:25:00 11.1 C 72 % 6.25 C
1939 17-02-2019 17:30:00 11.1 C 73 % 6.45 C
1940 17-02-2019 17:35:00 10.9 C 73 % 6.26 C
1941 17-02-2019 17:40:00 10.8 C 73 % 6.16 C
1942 17-02-2019 17:45:00 10.6 C 74 % 6.17 C
1943 17-02-2019 17:50:00 10.3 C 74 % 5.88 C
1944 17-02-2019 17:55:00 10.1 C 74 % 5.68 C
1945 17-02-2019 18:00:00 9.8 C 75 % 5.59 C
1946 17-02-2019 18:05:00 9.6 C 75 % 5.39 C
1947 17-02-2019 18:10:00 9.3 C 75 % 5.1 C
1948 17-02-2019 18:15:00 9 C 75 % 4.81 C
1949 17-02-2019 18:20:00 8.8 C 76 % 4.81 C
1950 17-02-2019 18:25:00 8.6 C 76 % 4.62 C
Sensor: Nr:Datum:Temp:Feuchte:Taupunkt:
Aussen-T/F 1951 17-02-2019 18:30:00 8.4 C 76 % 4.42 C
1952 17-02-2019 18:35:00 8.3 C 77 % 4.51 C
1953 17-02-2019 18:40:00 8.1 C 77 % 4.32 C
1954 17-02-2019 18:45:00 7.9 C 78 % 4.31 C
1955 17-02-2019 18:50:00 7.7 C 78 % 4.11 C
1956 17-02-2019 18:55:00 7.6 C 78 % 4.02 C
1957 17-02-2019 19:00:00 7.4 C 78 % 3.82 C
1958 17-02-2019 19:05:00 7.3 C 79 % 3.91 C
1959 17-02-2019 19:10:00 7.3 C 80 % 4.09 C
1960 17-02-2019 19:15:00 7.2 C 80 % 3.99 C
1961 17-02-2019 19:20:00 7.1 C 80 % 3.89 C
1962 17-02-2019 19:25:00 6.8 C 79 % 3.42 C
1963 17-02-2019 19:30:00 6.6 C 81 % 3.58 C
1964 17-02-2019 19:35:00 6.3 C 81 % 3.29 C
1965 17-02-2019 19:40:00 6.3 C 81 % 3.29 C
1966 17-02-2019 19:45:00 6.2 C 81 % 3.19 C
1967 17-02-2019 19:50:00 6.2 C 81 % 3.19 C
1968 17-02-2019 19:55:00 6.1 C 81 % 3.09 C
1969 17-02-2019 20:00:00 6 C 82 % 3.17 C
1970 17-02-2019 20:05:00 5.5 C 81 % 2.51 C
1971 17-02-2019 20:10:00 5.2 C 83 % 2.56 C
1972 17-02-2019 20:15:00 5.1 C 84 % 2.63 C
1973 17-02-2019 20:20:00 4.9 C 84 % 2.43 C
1974 17-02-2019 20:25:00 4.7 C 84 % 2.23 C
1975 17-02-2019 20:30:00 4.4 C 85 % 2.11 C
Sensor: Nr:Datum:Temp:Feuchte:Taupunkt:
Aussen-T/F 1976 17-02-2019 20:35:00 4.3 C 86 % 2.17 C
1977 17-02-2019 20:40:00 4.2 C 87 % 2.23 C
1978 17-02-2019 20:45:00 4.2 C 86 % 2.07 C
1979 17-02-2019 20:50:00 4 C 86 % 1.88 C
1980 17-02-2019 20:55:00 3.8 C 87 % 1.84 C
1981 17-02-2019 21:00:00 3.6 C 87 % 1.64 C
1982 17-02-2019 21:05:00 3.6 C 88 % 1.8 C
1983 17-02-2019 21:10:00 3.8 C 89 % 2.16 C
1984 17-02-2019 21:15:00 4.1 C 88 % 2.3 C
1985 17-02-2019 21:20:00 4.2 C 87 % 2.23 C
1986 17-02-2019 21:25:00 4.1 C 86 % 1.97 C
1987 17-02-2019 21:30:00 3.8 C 86 % 1.68 C
1988 17-02-2019 21:35:00 3.6 C 87 % 1.64 C
1989 17-02-2019 21:40:00 3.5 C 88 % 1.7 C
1990 17-02-2019 21:45:00 3.3 C 87 % 1.35 C
1991 17-02-2019 21:50:00 3.2 C 88 % 1.41 C
1992 17-02-2019 21:55:00 3 C 88 % 1.21 C
1993 17-02-2019 22:00:00 2.8 C 88 % 1.02 C
1994 17-02-2019 22:05:00 2.8 C 89 % 1.17 C
1995 17-02-2019 22:10:00 2.7 C 89 % 1.07 C
1996 17-02-2019 22:15:00 2.5 C 89 % 0.88 C
1997 17-02-2019 22:20:00 2.5 C 90 % 1.03 C
1998 17-02-2019 22:25:00 2.5 C 90 % 1.03 C
1999 17-02-2019 22:30:00 2.4 C 90 % 0.93 C
2000 17-02-2019 22:35:00 2.4 C 90 % 0.93 C
Sensor: Nr:Datum:Temp:Feuchte:Taupunkt:
Aussen-T/F 2001 17-02-2019 22:40:00 2.2 C 89 % 0.58 C
2002 17-02-2019 22:45:00 2 C 90 % 0.54 C
2003 17-02-2019 22:50:00 1.9 C 91 % 0.59 C
2004 17-02-2019 22:55:00 1.8 C 90 % 0.34 C
2005 17-02-2019 23:00:00 1.8 C 91 % 0.49 C
2006 17-02-2019 23:05:00 1.7 C 91 % 0.39 C
2007 17-02-2019 23:10:00 1.7 C 91 % 0.39 C
2008 17-02-2019 23:15:00 1.6 C 91 % 0.29 C
2009 17-02-2019 23:20:00 1.7 C 92 % 0.54 C
2010 17-02-2019 23:25:00 1.7 C 92 % 0.54 C
2011 17-02-2019 23:30:00 1.8 C 92 % 0.64 C
2012 17-02-2019 23:35:00 1.7 C 92 % 0.54 C
2013 17-02-2019 23:40:00 1.7 C 92 % 0.54 C
2014 17-02-2019 23:45:00 1.6 C 92 % 0.44 C
2015 17-02-2019 23:50:00 1.6 C 92 % 0.44 C
2016 17-02-2019 23:55:00 1.8 C 92 % 0.64 C
2017 18-02-2019 00:00:00 1.7 C 92 % 0.54 C
2018 18-02-2019 00:05:00 1.7 C 92 % 0.54 C
2019 18-02-2019 00:10:00 1.8 C 92 % 0.64 C
2020 18-02-2019 00:15:00 1.9 C 92 % 0.74 C
2021 18-02-2019 00:20:00 1.7 C 91 % 0.39 C
2022 18-02-2019 00:25:00 1.5 C 91 % 0.19 C
2023 18-02-2019 00:30:00 1.4 C 91 % 0.1 C
2024 18-02-2019 00:35:00 1.2 C 91 % -0.1 C
2025 18-02-2019 00:40:00 1.3 C 92 % 0.15 C
Sensor: Nr:Datum:Temp:Feuchte:Taupunkt:
Aussen-T/F 2026 18-02-2019 00:45:00 1.2 C 92 % 0.05 C
2027 18-02-2019 00:50:00 1.1 C 92 % -0.05 C
2028 18-02-2019 00:55:00 1.1 C 92 % -0.05 C
2029 18-02-2019 01:00:00 0.9 C 92 % -0.25 C
2030 18-02-2019 01:05:00 0.9 C 92 % -0.25 C
2031 18-02-2019 01:10:00 0.9 C 93 % -0.1 C
2032 18-02-2019 01:15:00 0.7 C 92 % -0.45 C
2033 18-02-2019 01:20:00 0.5 C 92 % -0.65 C
2034 18-02-2019 01:25:00 0.4 C 92 % -0.74 C
2035 18-02-2019 01:30:00 0.4 C 93 % -0.6 C
2036 18-02-2019 01:35:00 0.3 C 93 % -0.7 C
2037 18-02-2019 01:40:00 0.3 C 93 % -0.7 C
2038 18-02-2019 01:45:00 0.3 C 93 % -0.7 C
2039 18-02-2019 01:50:00 0.2 C 93 % -0.79 C
2040 18-02-2019 01:55:00 0.1 C 93 % -0.89 C
2041 18-02-2019 02:00:00 0.1 C 93 % -0.89 C
2042 18-02-2019 02:05:00 0 C 93 % -0.99 C
2043 18-02-2019 02:10:00 0 C 93 % -0.99 C
2044 18-02-2019 02:15:00 0.1 C 94 % -0.75 C
2045 18-02-2019 02:20:00 0.1 C 94 % -0.75 C
2046 18-02-2019 02:25:00 0.1 C 94 % -0.75 C
2047 18-02-2019 02:30:00 0.1 C 94 % -0.75 C
2048 18-02-2019 02:35:00 0.2 C 94 % -0.65 C
2049 18-02-2019 02:40:00 0.2 C 94 % -0.65 C
2050 18-02-2019 02:45:00 0.2 C 94 % -0.65 C
Sensor: Nr:Datum:Temp:Feuchte:Taupunkt:
Aussen-T/F 2051 18-02-2019 02:50:00 0.1 C 94 % -0.75 C
2052 18-02-2019 02:55:00 -0.2 C 94 % -1.05 C
2053 18-02-2019 03:00:00 -0.3 C 94 % -1.15 C
2054 18-02-2019 03:05:00 -0.3 C 94 % -1.15 C
2055 18-02-2019 03:10:00 -0.3 C 94 % -1.15 C
2056 18-02-2019 03:15:00 -0.3 C 94 % -1.15 C
2057 18-02-2019 03:20:00 -0.4 C 94 % -1.25 C
2058 18-02-2019 03:25:00 -0.4 C 94 % -1.25 C
2059 18-02-2019 03:30:00 -0.4 C 94 % -1.25 C
2060 18-02-2019 03:35:00 -0.4 C 94 % -1.25 C
2061 18-02-2019 03:40:00 -0.4 C 95 % -1.1 C
2062 18-02-2019 03:45:00 -0.5 C 94 % -1.34 C
2063 18-02-2019 03:50:00 -0.6 C 94 % -1.44 C
2064 18-02-2019 03:55:00 -0.7 C 94 % -1.54 C
2065 18-02-2019 04:00:00 -0.7 C 94 % -1.54 C
2066 18-02-2019 04:05:00 -0.8 C 94 % -1.64 C
2067 18-02-2019 04:10:00 -0.8 C 94 % -1.64 C
2068 18-02-2019 04:15:00 -0.8 C 94 % -1.64 C
2069 18-02-2019 04:20:00 -0.9 C 94 % -1.74 C
2070 18-02-2019 04:25:00 -0.8 C 95 % -1.5 C
2071 18-02-2019 04:30:00 -0.7 C 95 % -1.4 C
2072 18-02-2019 04:35:00 -0.7 C 95 % -1.4 C
2073 18-02-2019 04:40:00 -0.7 C 95 % -1.4 C
2074 18-02-2019 04:45:00 -0.7 C 95 % -1.4 C
2075 18-02-2019 04:50:00 -0.8 C 95 % -1.5 C
Sensor: Nr:Datum:Temp:Feuchte:Taupunkt:
Aussen-T/F 2076 18-02-2019 04:55:00 -0.9 C 95 % -1.6 C
2077 18-02-2019 05:00:00 -1 C 95 % -1.7 C
2078 18-02-2019 05:05:00 -1.1 C 95 % -1.8 C
2079 18-02-2019 05:10:00 -1.1 C 95 % -1.8 C
2080 18-02-2019 05:15:00 -1.2 C 95 % -1.9 C
2081 18-02-2019 05:20:00 -1.2 C 95 % -1.9 C
2082 18-02-2019 05:25:00 -1.3 C 95 % -2 C
2083 18-02-2019 05:30:00 -1.2 C 95 % -1.9 C
2084 18-02-2019 05:35:00 -1.2 C 95 % -1.9 C
2085 18-02-2019 05:40:00 -1.2 C 95 % -1.9 C
2086 18-02-2019 05:45:00 -1.3 C 95 % -2 C
2087 18-02-2019 05:50:00 -1.3 C 95 % -2 C
2088 18-02-2019 05:55:00 -1.5 C 95 % -2.19 C
2089 18-02-2019 06:00:00 -1.5 C 95 % -2.19 C
2090 18-02-2019 06:05:00 -1.4 C 95 % -2.1 C
2091 18-02-2019 06:10:00 -1.4 C 95 % -2.1 C
2092 18-02-2019 06:15:00 -1.4 C 95 % -2.1 C
2093 18-02-2019 06:20:00 -1.6 C 95 % -2.29 C
2094 18-02-2019 06:25:00 -1.4 C 95 % -2.1 C
2095 18-02-2019 06:30:00 -1.4 C 95 % -2.1 C
2096 18-02-2019 06:35:00 -1.4 C 95 % -2.1 C
2097 18-02-2019 06:40:00 -1.6 C 95 % -2.29 C
2098 18-02-2019 06:45:00 -1.7 C 95 % -2.39 C
2099 18-02-2019 06:50:00 -1.6 C 95 % -2.29 C
2100 18-02-2019 06:55:00 -1.3 C 95 % -2 C
Sensor: Nr:Datum:Temp:Feuchte:Taupunkt:
Aussen-T/F 2101 18-02-2019 07:00:00 -1.3 C 96 % -1.85 C
2102 18-02-2019 07:05:00 -1.3 C 95 % -2 C
2103 18-02-2019 07:10:00 -1.5 C 95 % -2.19 C
2104 18-02-2019 07:15:00 -1.7 C 95 % -2.39 C
2105 18-02-2019 07:20:00 -1.7 C 95 % -2.39 C
2106 18-02-2019 07:25:00 -1.6 C 95 % -2.29 C
2107 18-02-2019 07:30:00 -1.6 C 95 % -2.29 C
2108 18-02-2019 07:35:00 -1.7 C 95 % -2.39 C
2109 18-02-2019 07:40:00 -1.8 C 95 % -2.49 C
2110 18-02-2019 07:45:00 -1.8 C 95 % -2.49 C
2111 18-02-2019 07:50:00 -1.9 C 95 % -2.59 C
2112 18-02-2019 07:55:00 -1.9 C 95 % -2.59 C
2113 18-02-2019 08:00:00 -1.9 C 95 % -2.59 C
2114 18-02-2019 08:05:00 -1.9 C 95 % -2.59 C
2115 18-02-2019 08:10:00 -1.9 C 95 % -2.59 C
2116 18-02-2019 08:15:00 -1.9 C 95 % -2.59 C
2117 18-02-2019 08:20:00 -1.9 C 95 % -2.59 C
2118 18-02-2019 08:25:00 -1.8 C 95 % -2.49 C
2119 18-02-2019 08:30:00 -1.8 C 95 % -2.49 C
2120 18-02-2019 08:35:00 -1.7 C 96 % -2.25 C
2121 18-02-2019 08:40:00 -1.4 C 96 % -1.95 C
2122 18-02-2019 08:45:00 -1.2 C 96 % -1.75 C
2123 18-02-2019 08:50:00 -1.1 C 96 % -1.66 C
2124 18-02-2019 08:55:00 -1.1 C 96 % -1.66 C
2125 18-02-2019 09:00:00 -0.9 C 96 % -1.46 C
Sensor: Nr:Datum:Temp:Feuchte:Taupunkt:
Aussen-T/F 2126 18-02-2019 09:05:00 -0.6 C 96 % -1.16 C
2127 18-02-2019 09:10:00 -0.5 C 96 % -1.06 C
2128 18-02-2019 09:15:00 -0.6 C 96 % -1.16 C
2129 18-02-2019 09:20:00 -0.6 C 96 % -1.16 C
2130 18-02-2019 09:25:00 -0.5 C 96 % -1.06 C
2131 18-02-2019 09:30:00 -0.4 C 96 % -0.96 C
2132 18-02-2019 09:35:00 -0.4 C 96 % -0.96 C
2133 18-02-2019 09:40:00 -0.5 C 96 % -1.06 C
2134 18-02-2019 09:45:00 -0.6 C 96 % -1.16 C
2135 18-02-2019 09:50:00 -0.6 C 96 % -1.16 C
2136 18-02-2019 09:55:00 -0.6 C 96 % -1.16 C
2137 18-02-2019 10:00:00 -0.5 C 96 % -1.06 C
2138 18-02-2019 10:05:00 -0.5 C 96 % -1.06 C
2139 18-02-2019 10:10:00 -0.4 C 96 % -0.96 C
2140 18-02-2019 10:15:00 -0.3 C 96 % -0.86 C
2141 18-02-2019 10:20:00 -0.1 C 96 % -0.66 C
2142 18-02-2019 10:25:00 0.1 C 96 % -0.46 C
2143 18-02-2019 10:30:00 0.2 C 96 % -0.36 C
2144 18-02-2019 10:35:00 0.3 C 96 % -0.26 C
2145 18-02-2019 10:40:00 0.5 C 96 % -0.06 C
2146 18-02-2019 10:45:00 0.7 C 96 % 0.14 C
2147 18-02-2019 10:50:00 1 C 97 % 0.58 C
2148 18-02-2019 10:55:00 1.3 C 97 % 0.88 C
2149 18-02-2019 11:00:00 1.6 C 97 % 1.18 C
2150 18-02-2019 11:05:00 1.7 C 97 % 1.28 C
Sensor: Nr:Datum:Temp:Feuchte:Taupunkt:
Aussen-T/F 2151 18-02-2019 11:10:00 1.9 C 97 % 1.48 C
2152 18-02-2019 11:15:00 2.2 C 97 % 1.77 C
2153 18-02-2019 11:20:00 2.4 C 97 % 1.97 C
2154 18-02-2019 11:25:00 2.7 C 97 % 2.27 C
2155 18-02-2019 11:30:00 3 C 97 % 2.57 C
2156 18-02-2019 11:35:00 3.3 C 97 % 2.87 C
2157 18-02-2019 11:40:00 3.6 C 97 % 3.17 C
2158 18-02-2019 11:45:00 3.7 C 96 % 3.12 C
2159 18-02-2019 11:50:00 3.9 C 96 % 3.32 C
2160 18-02-2019 11:55:00 4.1 C 95 % 3.37 C
2161 18-02-2019 12:00:00 4.2 C 95 % 3.47 C
2162 18-02-2019 12:05:00 4.4 C 95 % 3.67 C
2163 18-02-2019 12:10:00 4.7 C 95 % 3.97 C
2164 18-02-2019 12:15:00 4.9 C 95 % 4.17 C
2165 18-02-2019 12:20:00 5.3 C 95 % 4.57 C
2166 18-02-2019 12:25:00 5.6 C 95 % 4.86 C
2167 18-02-2019 12:30:00 6.1 C 95 % 5.36 C
2168 18-02-2019 12:35:00 6.6 C 93 % 5.55 C
2169 18-02-2019 12:40:00 7.1 C 92 % 5.89 C
2170 18-02-2019 12:45:00 7.5 C 90 % 5.97 C
2171 18-02-2019 12:50:00 7.9 C 88 % 6.04 C
2172 18-02-2019 12:55:00 8.2 C 87 % 6.17 C
2173 18-02-2019 13:00:00 8.3 C 86 % 6.1 C
2174 18-02-2019 13:05:00 8.4 C 85 % 6.03 C
2175 18-02-2019 13:10:00 8.6 C 84 % 6.05 C
Sensor: Nr:Datum:Temp:Feuchte:Taupunkt:
Aussen-T/F 2176 18-02-2019 13:15:00 8.8 C 83 % 6.08 C
2177 18-02-2019 13:20:00 9 C 83 % 6.27 C
2178 18-02-2019 13:25:00 9.3 C 81 % 6.21 C
2179 18-02-2019 13:30:00 9.7 C 81 % 6.6 C
2180 18-02-2019 13:35:00 10 C 79 % 6.53 C
2181 18-02-2019 13:40:00 10.3 C 78 % 6.64 C
2182 18-02-2019 13:45:00 10.6 C 76 % 6.55 C
2183 18-02-2019 13:50:00 10.9 C 75 % 6.65 C
2184 18-02-2019 13:55:00 11.2 C 74 % 6.74 C
2185 18-02-2019 14:00:00 11.5 C 73 % 6.84 C
2186 18-02-2019 14:05:00 11.6 C 71 % 6.53 C
2187 18-02-2019 14:10:00 11.7 C 71 % 6.62 C
2188 18-02-2019 14:15:00 11.7 C 71 % 6.62 C
2189 18-02-2019 14:20:00 11.6 C 71 % 6.53 C
2190 18-02-2019 14:25:00 11.5 C 71 % 6.43 C
2191 18-02-2019 14:30:00 11.3 C 72 % 6.44 C
2192 18-02-2019 14:35:00 11.2 C 72 % 6.35 C
2193 18-02-2019 14:40:00 11 C 73 % 6.35 C
2194 18-02-2019 14:45:00 10.9 C 73 % 6.26 C
2195 18-02-2019 14:50:00 11 C 73 % 6.35 C
2196 18-02-2019 14:55:00 11.1 C 73 % 6.45 C
2197 18-02-2019 15:00:00 11.1 C 73 % 6.45 C
2198 18-02-2019 15:05:00 11.2 C 72 % 6.35 C
2199 18-02-2019 15:10:00 11.4 C 71 % 6.34 C
2200 18-02-2019 15:15:00 11.6 C 71 % 6.53 C
Sensor: Nr:Datum:Temp:Feuchte:Taupunkt:
Aussen-T/F 2201 18-02-2019 15:20:00 11.7 C 69 % 6.21 C
2202 18-02-2019 15:25:00 11.9 C 67 % 5.98 C
2203 18-02-2019 15:30:00 12.2 C 65 % 5.82 C
2204 18-02-2019 15:35:00 12.4 C 65 % 6.01 C
2205 18-02-2019 15:40:00 12.6 C 66 % 6.42 C
2206 18-02-2019 15:45:00 12.7 C 60 % 5.14 C
2207 18-02-2019 15:50:00 12.9 C 62 % 5.8 C
2208 18-02-2019 15:55:00 13 C 62 % 5.9 C
2209 18-02-2019 16:00:00 12.9 C 62 % 5.8 C
2210 18-02-2019 16:05:00 12.8 C 62 % 5.71 C
2211 18-02-2019 16:10:00 12.6 C 61 % 5.29 C
2212 18-02-2019 16:15:00 12.4 C 63 % 5.56 C
2213 18-02-2019 16:20:00 12.2 C 62 % 5.14 C
2214 18-02-2019 16:25:00 11.9 C 63 % 5.09 C
2215 18-02-2019 16:30:00 11.7 C 65 % 5.35 C
2216 18-02-2019 16:35:00 11.5 C 66 % 5.38 C
2217 18-02-2019 16:40:00 11.3 C 67 % 5.4 C
2218 18-02-2019 16:45:00 11.1 C 68 % 5.43 C
2219 18-02-2019 16:50:00 10.9 C 68 % 5.23 C
2220 18-02-2019 16:55:00 10.8 C 68 % 5.14 C
2221 18-02-2019 17:00:00 10.8 C 68 % 5.14 C
2222 18-02-2019 17:05:00 10.8 C 68 % 5.14 C
2223 18-02-2019 17:10:00 10.8 C 69 % 5.35 C
2224 18-02-2019 17:15:00 10.9 C 68 % 5.23 C
2225 18-02-2019 17:20:00 10.9 C 68 % 5.23 C
Sensor: Nr:Datum:Temp:Feuchte:Taupunkt:
Aussen-T/F 2226 18-02-2019 17:25:00 10.8 C 69 % 5.35 C
2227 18-02-2019 17:30:00 10.6 C 70 % 5.36 C
2228 18-02-2019 17:35:00 10.3 C 70 % 5.08 C
2229 18-02-2019 17:40:00 10.1 C 70 % 4.89 C
2230 18-02-2019 17:45:00 9.9 C 71 % 4.9 C
2231 18-02-2019 17:50:00 9.7 C 72 % 4.9 C
2232 18-02-2019 17:55:00 9.5 C 72 % 4.71 C
2233 18-02-2019 18:00:00 9.3 C 73 % 4.72 C
2234 18-02-2019 18:05:00 9.1 C 73 % 4.52 C
2235 18-02-2019 18:10:00 8.9 C 73 % 4.33 C
2236 18-02-2019 18:15:00 8.7 C 74 % 4.33 C
2237 18-02-2019 18:20:00 8.5 C 74 % 4.14 C
2238 18-02-2019 18:25:00 8.3 C 75 % 4.14 C
2239 18-02-2019 18:30:00 8.3 C 76 % 4.33 C
2240 18-02-2019 18:35:00 8.2 C 76 % 4.23 C
2241 18-02-2019 18:40:00 8.1 C 76 % 4.13 C
2242 18-02-2019 18:45:00 8 C 76 % 4.04 C
2243 18-02-2019 18:50:00 7.9 C 76 % 3.94 C
2244 18-02-2019 18:55:00 7.7 C 75 % 3.56 C
2245 18-02-2019 19:00:00 7.5 C 76 % 3.55 C
2246 18-02-2019 19:05:00 7.3 C 78 % 3.73 C
2247 18-02-2019 19:10:00 7.2 C 79 % 3.81 C
2248 18-02-2019 19:15:00 7.1 C 79 % 3.71 C
2249 18-02-2019 19:20:00 6.9 C 80 % 3.7 C
2250 18-02-2019 19:25:00 6.8 C 81 % 3.77 C
Sensor: Nr:Datum:Temp:Feuchte:Taupunkt:
Aussen-T/F 2251 18-02-2019 19:30:00 6.8 C 81 % 3.77 C
2252 18-02-2019 19:35:00 6.8 C 82 % 3.95 C
2253 18-02-2019 19:40:00 6.9 C 81 % 3.87 C
2254 18-02-2019 19:45:00 6.9 C 81 % 3.87 C
2255 18-02-2019 19:50:00 6.9 C 81 % 3.87 C
2256 18-02-2019 19:55:00 6.9 C 81 % 3.87 C
2257 18-02-2019 20:00:00 6.8 C 80 % 3.6 C
2258 18-02-2019 20:05:00 6.7 C 79 % 3.32 C
2259 18-02-2019 20:10:00 6.6 C 79 % 3.23 C
2260 18-02-2019 20:15:00 6.4 C 78 % 2.85 C
2261 18-02-2019 20:20:00 6.1 C 79 % 2.74 C
2262 18-02-2019 20:25:00 5.8 C 81 % 2.8 C
2263 18-02-2019 20:30:00 5.5 C 81 % 2.51 C
2264 18-02-2019 20:35:00 5.2 C 82 % 2.39 C
2265 18-02-2019 20:40:00 4.9 C 82 % 2.09 C
2266 18-02-2019 20:45:00 4.7 C 84 % 2.23 C
2267 18-02-2019 20:50:00 4.6 C 85 % 2.3 C
2268 18-02-2019 20:55:00 4.6 C 86 % 2.47 C
2269 18-02-2019 21:00:00 4.6 C 86 % 2.47 C
2270 18-02-2019 21:05:00 4.6 C 86 % 2.47 C
2271 18-02-2019 21:10:00 4.4 C 86 % 2.27 C
2272 18-02-2019 21:15:00 4.3 C 86 % 2.17 C
2273 18-02-2019 21:20:00 4.3 C 86 % 2.17 C
2274 18-02-2019 21:25:00 4.2 C 86 % 2.07 C
2275 18-02-2019 21:30:00 4.2 C 86 % 2.07 C
Sensor: Nr:Datum:Temp:Feuchte:Taupunkt:
Aussen-T/F 2276 18-02-2019 21:35:00 4 C 86 % 1.88 C
2277 18-02-2019 21:40:00 3.9 C 86 % 1.78 C
2278 18-02-2019 21:45:00 3.8 C 86 % 1.68 C
2279 18-02-2019 21:50:00 3.6 C 86 % 1.48 C
2280 18-02-2019 21:55:00 3.3 C 86 % 1.19 C
2281 18-02-2019 22:00:00 3.2 C 87 % 1.25 C
2282 18-02-2019 22:05:00 3 C 87 % 1.05 C
2283 18-02-2019 22:10:00 3 C 88 % 1.21 C
2284 18-02-2019 22:15:00 2.9 C 89 % 1.27 C
2285 18-02-2019 22:20:00 2.9 C 89 % 1.27 C
2286 18-02-2019 22:25:00 2.8 C 89 % 1.17 C
2287 18-02-2019 22:30:00 2.7 C 89 % 1.07 C
2288 18-02-2019 22:35:00 2.7 C 89 % 1.07 C
2289 18-02-2019 22:40:00 2.7 C 89 % 1.07 C
2290 18-02-2019 22:45:00 2.5 C 89 % 0.88 C
2291 18-02-2019 22:50:00 2.4 C 90 % 0.93 C
2292 18-02-2019 22:55:00 2.4 C 90 % 0.93 C
2293 18-02-2019 23:00:00 2.3 C 90 % 0.83 C
2294 18-02-2019 23:05:00 2.3 C 90 % 0.83 C
2295 18-02-2019 23:10:00 2.2 C 91 % 0.89 C
2296 18-02-2019 23:15:00 2.3 C 91 % 0.99 C
2297 18-02-2019 23:20:00 2.3 C 91 % 0.99 C
2298 18-02-2019 23:25:00 2.3 C 91 % 0.99 C
2299 18-02-2019 23:30:00 2.2 C 91 % 0.89 C
2300 18-02-2019 23:35:00 2.1 C 91 % 0.79 C
Sensor: Nr:Datum:Temp:Feuchte:Taupunkt:
Aussen-T/F 2301 18-02-2019 23:40:00 2 C 91 % 0.69 C
2302 18-02-2019 23:45:00 1.9 C 91 % 0.59 C
2303 18-02-2019 23:50:00 1.9 C 91 % 0.59 C
2304 18-02-2019 23:55:00 1.8 C 91 % 0.49 C
2305 19-02-2019 00:00:00 1.8 C 91 % 0.49 C
2306 19-02-2019 00:05:00 1.7 C 91 % 0.39 C
2307 19-02-2019 00:10:00 1.7 C 92 % 0.54 C
2308 19-02-2019 00:15:00 1.7 C 92 % 0.54 C
2309 19-02-2019 00:20:00 1.7 C 92 % 0.54 C
2310 19-02-2019 00:25:00 1.8 C 92 % 0.64 C
2311 19-02-2019 00:30:00 1.7 C 92 % 0.54 C
2312 19-02-2019 00:35:00 1.7 C 92 % 0.54 C
2313 19-02-2019 00:40:00 1.7 C 92 % 0.54 C
2314 19-02-2019 00:45:00 1.7 C 93 % 0.69 C
2315 19-02-2019 00:50:00 1.7 C 93 % 0.69 C
2316 19-02-2019 00:55:00 1.8 C 93 % 0.79 C
2317 19-02-2019 01:00:00 1.8 C 93 % 0.79 C
2318 19-02-2019 01:05:00 1.8 C 93 % 0.79 C
2319 19-02-2019 01:10:00 1.8 C 93 % 0.79 C
2320 19-02-2019 01:15:00 1.9 C 93 % 0.89 C
2321 19-02-2019 01:20:00 1.9 C 93 % 0.89 C
2322 19-02-2019 01:25:00 1.9 C 93 % 0.89 C
2323 19-02-2019 01:30:00 1.8 C 92 % 0.64 C
2324 19-02-2019 01:35:00 1.8 C 92 % 0.64 C
2325 19-02-2019 01:40:00 1.8 C 93 % 0.79 C
Sensor: Nr:Datum:Temp:Feuchte:Taupunkt:
Aussen-T/F 2326 19-02-2019 01:45:00 1.9 C 93 % 0.89 C
2327 19-02-2019 01:50:00 1.8 C 93 % 0.79 C
2328 19-02-2019 01:55:00 1.8 C 93 % 0.79 C
2329 19-02-2019 02:00:00 1.8 C 93 % 0.79 C
2330 19-02-2019 02:05:00 1.8 C 93 % 0.79 C
2331 19-02-2019 02:10:00 1.8 C 93 % 0.79 C
2332 19-02-2019 02:15:00 1.9 C 94 % 1.04 C
2333 19-02-2019 02:20:00 2 C 93 % 0.99 C
2334 19-02-2019 02:25:00 1.9 C 93 % 0.89 C
2335 19-02-2019 02:30:00 1.8 C 93 % 0.79 C
2336 19-02-2019 02:35:00 1.8 C 93 % 0.79 C
2337 19-02-2019 02:40:00 1.8 C 93 % 0.79 C
2338 19-02-2019 02:45:00 1.8 C 93 % 0.79 C
2339 19-02-2019 02:50:00 1.9 C 94 % 1.04 C
2340 19-02-2019 02:55:00 1.9 C 94 % 1.04 C
2341 19-02-2019 03:00:00 2 C 94 % 1.14 C
2342 19-02-2019 03:05:00 2 C 94 % 1.14 C
2343 19-02-2019 03:10:00 2 C 94 % 1.14 C
2344 19-02-2019 03:15:00 2.1 C 94 % 1.24 C
2345 19-02-2019 03:20:00 2.1 C 94 % 1.24 C
2346 19-02-2019 03:25:00 2.1 C 94 % 1.24 C
2347 19-02-2019 03:30:00 2.3 C 95 % 1.58 C
2348 19-02-2019 03:35:00 2.4 C 95 % 1.68 C
2349 19-02-2019 03:40:00 2.6 C 95 % 1.88 C
2350 19-02-2019 03:45:00 2.7 C 95 % 1.98 C
Sensor: Nr:Datum:Temp:Feuchte:Taupunkt:
Aussen-T/F 2351 19-02-2019 03:50:00 2.8 C 95 % 2.08 C
2352 19-02-2019 03:55:00 3 C 95 % 2.28 C
2353 19-02-2019 04:00:00 3.2 C 95 % 2.48 C
2354 19-02-2019 04:05:00 3.3 C 95 % 2.58 C
2355 19-02-2019 04:10:00 3.4 C 95 % 2.68 C
2356 19-02-2019 04:15:00 3.6 C 95 % 2.88 C
2357 19-02-2019 04:20:00 3.7 C 95 % 2.98 C
2358 19-02-2019 04:25:00 3.8 C 95 % 3.07 C
2359 19-02-2019 04:30:00 3.8 C 94 % 2.93 C
2360 19-02-2019 04:35:00 3.8 C 94 % 2.93 C
2361 19-02-2019 04:40:00 3.8 C 93 % 2.77 C
2362 19-02-2019 04:45:00 3.9 C 93 % 2.87 C
2363 19-02-2019 04:50:00 4 C 93 % 2.97 C
2364 19-02-2019 04:55:00 4.1 C 92 % 2.92 C
2365 19-02-2019 05:00:00 4.1 C 92 % 2.92 C
2366 19-02-2019 05:05:00 3.9 C 91 % 2.57 C
2367 19-02-2019 05:10:00 3.9 C 90 % 2.41 C
2368 19-02-2019 05:15:00 3.9 C 91 % 2.57 C
2369 19-02-2019 05:20:00 3.9 C 91 % 2.57 C
2370 19-02-2019 05:25:00 3.9 C 91 % 2.57 C
2371 19-02-2019 05:30:00 3.9 C 91 % 2.57 C
2372 19-02-2019 05:35:00 4 C 91 % 2.67 C
2373 19-02-2019 05:40:00 4.1 C 91 % 2.77 C
2374 19-02-2019 05:45:00 4.2 C 91 % 2.87 C
2375 19-02-2019 05:50:00 4.3 C 90 % 2.81 C
Sensor: Nr:Datum:Temp:Feuchte:Taupunkt:
Aussen-T/F 2376 19-02-2019 05:55:00 4.4 C 90 % 2.91 C
2377 19-02-2019 06:00:00 4.6 C 90 % 3.1 C
2378 19-02-2019 06:05:00 4.7 C 89 % 3.05 C
2379 19-02-2019 06:10:00 4.8 C 88 % 2.99 C
2380 19-02-2019 06:15:00 4.9 C 88 % 3.08 C
2381 19-02-2019 06:20:00 5.1 C 87 % 3.12 C
2382 19-02-2019 06:25:00 5.1 C 87 % 3.12 C
2383 19-02-2019 06:30:00 5.1 C 87 % 3.12 C
2384 19-02-2019 06:35:00 5.1 C 87 % 3.12 C
2385 19-02-2019 06:40:00 5.1 C 87 % 3.12 C
2386 19-02-2019 06:45:00 5.1 C 87 % 3.12 C
2387 19-02-2019 06:50:00 5.1 C 88 % 3.28 C
2388 19-02-2019 06:55:00 5.2 C 88 % 3.38 C
2389 19-02-2019 07:00:00 5.2 C 88 % 3.38 C
2390 19-02-2019 07:05:00 5.2 C 89 % 3.54 C
2391 19-02-2019 07:10:00 5.2 C 89 % 3.54 C
2392 19-02-2019 07:15:00 5.2 C 89 % 3.54 C
2393 19-02-2019 07:20:00 5.2 C 89 % 3.54 C
2394 19-02-2019 07:25:00 5.2 C 90 % 3.7 C
2395 19-02-2019 07:30:00 5.2 C 90 % 3.7 C
2396 19-02-2019 07:35:00 5.2 C 91 % 3.85 C
2397 19-02-2019 07:40:00 5.2 C 91 % 3.85 C
2398 19-02-2019 07:45:00 5.2 C 92 % 4.01 C
2399 19-02-2019 07:50:00 5.2 C 92 % 4.01 C
2400 19-02-2019 07:55:00 5.2 C 92 % 4.01 C
Sensor: Nr:Datum:Temp:Feuchte:Taupunkt:
Aussen-T/F 2401 19-02-2019 08:00:00 5.2 C 92 % 4.01 C
2402 19-02-2019 08:05:00 5.2 C 93 % 4.16 C
2403 19-02-2019 08:10:00 5.1 C 92 % 3.91 C
2404 19-02-2019 08:15:00 4.9 C 92 % 3.71 C
2405 19-02-2019 08:20:00 4.9 C 93 % 3.87 C
2406 19-02-2019 08:25:00 4.9 C 93 % 3.87 C
2407 19-02-2019 08:30:00 4.8 C 93 % 3.77 C
2408 19-02-2019 08:35:00 4.8 C 93 % 3.77 C
2409 19-02-2019 08:40:00 4.8 C 94 % 3.92 C
2410 19-02-2019 08:45:00 4.8 C 93 % 3.77 C
2411 19-02-2019 08:50:00 4.7 C 93 % 3.67 C
2412 19-02-2019 08:55:00 4.6 C 94 % 3.72 C
2413 19-02-2019 09:00:00 4.7 C 94 % 3.82 C
2414 19-02-2019 09:05:00 4.8 C 94 % 3.92 C
2415 19-02-2019 09:10:00 4.9 C 95 % 4.17 C
2416 19-02-2019 09:15:00 5 C 95 % 4.27 C
2417 19-02-2019 09:20:00 5.1 C 95 % 4.37 C
2418 19-02-2019 09:25:00 5.1 C 95 % 4.37 C
2419 19-02-2019 09:30:00 5.2 C 95 % 4.47 C
2420 19-02-2019 09:35:00 5.3 C 95 % 4.57 C
2421 19-02-2019 09:40:00 5.5 C 95 % 4.76 C
2422 19-02-2019 09:45:00 5.7 C 95 % 4.96 C
2423 19-02-2019 09:50:00 5.8 C 95 % 5.06 C
2424 19-02-2019 09:55:00 5.9 C 95 % 5.16 C
2425 19-02-2019 10:00:00 5.9 C 95 % 5.16 C
Sensor: Nr:Datum:Temp:Feuchte:Taupunkt:
Aussen-T/F 2426 19-02-2019 10:05:00 6.1 C 95 % 5.36 C
2427 19-02-2019 10:10:00 6.2 C 95 % 5.46 C
2428 19-02-2019 10:15:00 6.2 C 95 % 5.46 C
2429 19-02-2019 10:20:00 6.2 C 94 % 5.31 C
2430 19-02-2019 10:25:00 6.3 C 94 % 5.41 C
2431 19-02-2019 10:30:00 6.4 C 94 % 5.51 C
2432 19-02-2019 10:35:00 6.4 C 94 % 5.51 C
2433 19-02-2019 10:40:00 6.5 C 94 % 5.61 C
2434 19-02-2019 10:45:00 6.6 C 94 % 5.71 C
2435 19-02-2019 10:50:00 6.6 C 94 % 5.71 C
2436 19-02-2019 10:55:00 6.7 C 93 % 5.65 C
2437 19-02-2019 11:00:00 6.7 C 93 % 5.65 C
2438 19-02-2019 11:05:00 6.8 C 93 % 5.75 C
2439 19-02-2019 11:10:00 6.9 C 93 % 5.85 C
2440 19-02-2019 11:15:00 7.1 C 93 % 6.05 C
2441 19-02-2019 11:20:00 7.1 C 93 % 6.05 C
2442 19-02-2019 11:25:00 7.2 C 93 % 6.15 C
2443 19-02-2019 11:30:00 7.3 C 93 % 6.25 C
2444 19-02-2019 11:35:00 7.4 C 93 % 6.34 C
2445 19-02-2019 11:40:00 7.6 C 92 % 6.39 C
2446 19-02-2019 11:45:00 7.6 C 92 % 6.39 C
2447 19-02-2019 11:50:00 7.8 C 92 % 6.58 C
2448 19-02-2019 11:55:00 7.9 C 92 % 6.68 C
2449 19-02-2019 12:00:00 8.1 C 92 % 6.88 C
2450 19-02-2019 12:05:00 8.2 C 91 % 6.82 C
Sensor: Nr:Datum:Temp:Feuchte:Taupunkt:
Aussen-T/F 2451 19-02-2019 12:10:00 8.4 C 91 % 7.02 C
2452 19-02-2019 12:15:00 8.5 C 89 % 6.79 C
2453 19-02-2019 12:20:00 8.6 C 88 % 6.73 C
2454 19-02-2019 12:25:00 8.7 C 88 % 6.83 C
2455 19-02-2019 12:30:00 8.8 C 88 % 6.93 C
2456 19-02-2019 12:35:00 8.8 C 87 % 6.76 C
2457 19-02-2019 12:40:00 8.9 C 86 % 6.69 C
2458 19-02-2019 12:45:00 9.1 C 85 % 6.72 C
2459 19-02-2019 12:50:00 9.2 C 85 % 6.81 C
2460 19-02-2019 12:55:00 9.3 C 85 % 6.91 C
2461 19-02-2019 13:00:00 9.2 C 84 % 6.64 C
2462 19-02-2019 13:05:00 9.2 C 83 % 6.47 C
2463 19-02-2019 13:10:00 9.3 C 83 % 6.57 C
2464 19-02-2019 13:15:00 9.4 C 82 % 6.49 C
2465 19-02-2019 13:20:00 9.7 C 83 % 6.96 C
2466 19-02-2019 13:25:00 9.8 C 81 % 6.7 C
2467 19-02-2019 13:30:00 10.1 C 82 % 7.17 C
2468 19-02-2019 13:35:00 10.3 C 79 % 6.82 C
2469 19-02-2019 13:40:00 10.4 C 78 % 6.74 C
2470 19-02-2019 13:45:00 10.5 C 76 % 6.45 C
2471 19-02-2019 13:50:00 10.6 C 75 % 6.36 C
2472 19-02-2019 13:55:00 10.8 C 75 % 6.55 C
2473 19-02-2019 14:00:00 10.8 C 75 % 6.55 C
2474 19-02-2019 14:05:00 10.7 C 75 % 6.46 C
2475 19-02-2019 14:10:00 10.7 C 74 % 6.26 C
Sensor: Nr:Datum:Temp:Feuchte:Taupunkt:
Aussen-T/F 2476 19-02-2019 14:15:00 10.8 C 74 % 6.36 C
2477 19-02-2019 14:20:00 10.7 C 74 % 6.26 C
2478 19-02-2019 14:25:00 10.7 C 74 % 6.26 C
2479 19-02-2019 14:30:00 10.6 C 74 % 6.17 C
2480 19-02-2019 14:35:00 10.6 C 74 % 6.17 C
2481 19-02-2019 14:40:00 10.5 C 75 % 6.26 C
2482 19-02-2019 14:45:00 10.5 C 76 % 6.45 C
2483 19-02-2019 14:50:00 10.6 C 75 % 6.36 C
2484 19-02-2019 14:55:00 10.6 C 74 % 6.17 C
2485 19-02-2019 15:00:00 10.7 C 74 % 6.26 C
2486 19-02-2019 15:05:00 10.7 C 75 % 6.46 C
2487 19-02-2019 15:10:00 10.8 C 74 % 6.36 C
2488 19-02-2019 15:15:00 10.9 C 74 % 6.45 C
2489 19-02-2019 15:20:00 10.9 C 73 % 6.26 C
2490 19-02-2019 15:25:00 10.9 C 72 % 6.06 C
2491 19-02-2019 15:30:00 10.9 C 73 % 6.26 C
2492 19-02-2019 15:35:00 11 C 72 % 6.15 C
2493 19-02-2019 15:40:00 11 C 71 % 5.95 C
2494 19-02-2019 15:45:00 11.1 C 71 % 6.05 C
2495 19-02-2019 15:50:00 11.2 C 71 % 6.14 C
2496 19-02-2019 15:55:00 11.2 C 70 % 5.94 C
2497 19-02-2019 16:00:00 11.3 C 72 % 6.44 C
2498 19-02-2019 16:05:00 11.2 C 73 % 6.55 C
2499 19-02-2019 16:10:00 11.1 C 72 % 6.25 C
2500 19-02-2019 16:15:00 10.9 C 71 % 5.86 C
Sensor: Nr:Datum:Temp:Feuchte:Taupunkt:
Aussen-T/F 2501 19-02-2019 16:20:00 10.9 C 72 % 6.06 C
2502 19-02-2019 16:25:00 10.9 C 72 % 6.06 C
2503 19-02-2019 16:30:00 10.8 C 71 % 5.76 C
2504 19-02-2019 16:35:00 10.8 C 73 % 6.16 C
2505 19-02-2019 16:40:00 10.8 C 73 % 6.16 C
2506 19-02-2019 16:45:00 10.7 C 72 % 5.87 C
2507 19-02-2019 16:50:00 10.7 C 72 % 5.87 C
2508 19-02-2019 16:55:00 10.7 C 73 % 6.07 C
2509 19-02-2019 17:00:00 10.7 C 72 % 5.87 C
2510 19-02-2019 17:05:00 10.4 C 72 % 5.58 C
2511 19-02-2019 17:10:00 10.2 C 73 % 5.58 C
2512 19-02-2019 17:15:00 10.1 C 73 % 5.49 C
2513 19-02-2019 17:20:00 10.1 C 74 % 5.68 C
2514 19-02-2019 17:25:00 9.9 C 74 % 5.49 C
2515 19-02-2019 17:30:00 9.8 C 74 % 5.39 C
2516 19-02-2019 17:35:00 9.6 C 75 % 5.39 C
2517 19-02-2019 17:40:00 9.3 C 75 % 5.1 C
2518 19-02-2019 17:45:00 9.1 C 76 % 5.1 C
2519 19-02-2019 17:50:00 8.7 C 78 % 5.08 C
2520 19-02-2019 17:55:00 8.4 C 79 % 4.98 C
2521 19-02-2019 18:00:00 8.1 C 80 % 4.86 C
2522 19-02-2019 18:05:00 7.8 C 81 % 4.75 C
2523 19-02-2019 18:10:00 7.6 C 82 % 4.73 C
2524 19-02-2019 18:15:00 7.6 C 82 % 4.73 C
2525 19-02-2019 18:20:00 7.5 C 82 % 4.63 C
Sensor: Nr:Datum:Temp:Feuchte:Taupunkt:
Aussen-T/F 2526 19-02-2019 18:25:00 7.4 C 83 % 4.71 C
2527 19-02-2019 18:30:00 7.2 C 83 % 4.51 C
2528 19-02-2019 18:35:00 7.1 C 84 % 4.58 C
2529 19-02-2019 18:40:00 6.9 C 84 % 4.39 C
2530 19-02-2019 18:45:00 6.8 C 85 % 4.46 C
2531 19-02-2019 18:50:00 6.7 C 85 % 4.36 C
2532 19-02-2019 18:55:00 6.7 C 86 % 4.53 C
2533 19-02-2019 19:00:00 6.6 C 86 % 4.43 C
2534 19-02-2019 19:05:00 6.6 C 86 % 4.43 C
2535 19-02-2019 19:10:00 6.5 C 86 % 4.33 C
2536 19-02-2019 19:15:00 6.4 C 87 % 4.4 C
2537 19-02-2019 19:20:00 6.4 C 87 % 4.4 C
2538 19-02-2019 19:25:00 6.3 C 87 % 4.3 C
2539 19-02-2019 19:30:00 6.2 C 87 % 4.2 C
2540 19-02-2019 19:35:00 6.1 C 87 % 4.1 C
2541 19-02-2019 19:40:00 6.1 C 88 % 4.27 C
2542 19-02-2019 19:45:00 5.9 C 88 % 4.07 C
2543 19-02-2019 19:50:00 5.9 C 88 % 4.07 C
2544 19-02-2019 19:55:00 5.7 C 88 % 3.87 C
2545 19-02-2019 20:00:00 5.7 C 89 % 4.03 C
2546 19-02-2019 20:05:00 5.7 C 89 % 4.03 C
2547 19-02-2019 20:10:00 5.7 C 89 % 4.03 C
2548 19-02-2019 20:15:00 5.6 C 89 % 3.93 C
2549 19-02-2019 20:20:00 5.6 C 89 % 3.93 C
2550 19-02-2019 20:25:00 5.4 C 89 % 3.74 C
Sensor: Nr:Datum:Temp:Feuchte:Taupunkt:
Aussen-T/F 2551 19-02-2019 20:30:00 5.4 C 89 % 3.74 C
2552 19-02-2019 20:35:00 5.4 C 90 % 3.89 C
2553 19-02-2019 20:40:00 5.3 C 89 % 3.64 C
2554 19-02-2019 20:45:00 5.2 C 89 % 3.54 C
2555 19-02-2019 20:50:00 5.1 C 90 % 3.6 C
2556 19-02-2019 20:55:00 5.2 C 90 % 3.7 C
2557 19-02-2019 21:00:00 5.3 C 90 % 3.8 C
2558 19-02-2019 21:05:00 5.3 C 90 % 3.8 C
2559 19-02-2019 21:10:00 5.3 C 90 % 3.8 C
2560 19-02-2019 21:15:00 5.2 C 89 % 3.54 C
2561 19-02-2019 21:20:00 5.1 C 89 % 3.44 C
2562 19-02-2019 21:25:00 5 C 90 % 3.5 C
2563 19-02-2019 21:30:00 4.9 C 90 % 3.4 C
2564 19-02-2019 21:35:00 4.8 C 90 % 3.3 C
2565 19-02-2019 21:40:00 4.6 C 89 % 2.95 C
2566 19-02-2019 21:45:00 4.4 C 89 % 2.75 C
2567 19-02-2019 21:50:00 4.2 C 90 % 2.71 C
2568 19-02-2019 21:55:00 4.1 C 90 % 2.61 C
2569 19-02-2019 22:00:00 3.9 C 90 % 2.41 C
2570 19-02-2019 22:05:00 3.8 C 90 % 2.31 C
2571 19-02-2019 22:10:00 3.6 C 90 % 2.12 C
2572 19-02-2019 22:15:00 3.5 C 91 % 2.17 C
2573 19-02-2019 22:20:00 3.4 C 91 % 2.07 C
2574 19-02-2019 22:25:00 3.3 C 91 % 1.98 C
2575 19-02-2019 22:30:00 3.3 C 92 % 2.13 C
Sensor: Nr:Datum:Temp:Feuchte:Taupunkt:
Aussen-T/F 2576 19-02-2019 22:35:00 3.3 C 92 % 2.13 C
2577 19-02-2019 22:40:00 3.4 C 93 % 2.38 C
2578 19-02-2019 22:45:00 3.4 C 92 % 2.23 C
2579 19-02-2019 22:50:00 3.4 C 92 % 2.23 C
2580 19-02-2019 22:55:00 3.3 C 92 % 2.13 C
2581 19-02-2019 23:00:00 3.3 C 92 % 2.13 C
2582 19-02-2019 23:05:00 3.2 C 92 % 2.03 C
2583 19-02-2019 23:10:00 3.2 C 92 % 2.03 C
2584 19-02-2019 23:15:00 3.1 C 93 % 2.08 C
2585 19-02-2019 23:20:00 3.1 C 93 % 2.08 C
2586 19-02-2019 23:25:00 3.1 C 93 % 2.08 C
2587 19-02-2019 23:30:00 3.1 C 93 % 2.08 C
2588 19-02-2019 23:35:00 3 C 93 % 1.98 C
2589 19-02-2019 23:40:00 2.9 C 93 % 1.88 C
2590 19-02-2019 23:45:00 2.9 C 93 % 1.88 C
2591 19-02-2019 23:50:00 2.9 C 93 % 1.88 C
2592 19-02-2019 23:55:00 2.8 C 93 % 1.78 C
2593 20-02-2019 00:00:00 2.8 C 93 % 1.78 C
2594 20-02-2019 00:05:00 2.8 C 93 % 1.78 C
2595 20-02-2019 00:10:00 2.8 C 93 % 1.78 C
2596 20-02-2019 00:15:00 2.8 C 93 % 1.78 C
2597 20-02-2019 00:20:00 2.8 C 94 % 1.93 C
2598 20-02-2019 00:25:00 2.8 C 94 % 1.93 C
2599 20-02-2019 00:30:00 2.7 C 93 % 1.68 C
2600 20-02-2019 00:35:00 2.5 C 93 % 1.49 C
Sensor: Nr:Datum:Temp:Feuchte:Taupunkt:
Aussen-T/F 2601 20-02-2019 00:40:00 2.3 C 93 % 1.29 C
2602 20-02-2019 00:45:00 2.3 C 93 % 1.29 C
2603 20-02-2019 00:50:00 2.3 C 94 % 1.44 C
2604 20-02-2019 00:55:00 2.3 C 93 % 1.29 C
2605 20-02-2019 01:00:00 2.2 C 93 % 1.19 C
2606 20-02-2019 01:05:00 2.2 C 93 % 1.19 C
2607 20-02-2019 01:10:00 2.1 C 93 % 1.09 C
2608 20-02-2019 01:15:00 2 C 93 % 0.99 C
2609 20-02-2019 01:20:00 1.9 C 93 % 0.89 C
2610 20-02-2019 01:25:00 1.8 C 94 % 0.94 C
2611 20-02-2019 01:30:00 1.7 C 93 % 0.69 C
2612 20-02-2019 01:35:00 1.6 C 93 % 0.59 C
2613 20-02-2019 01:40:00 1.5 C 93 % 0.49 C
2614 20-02-2019 01:45:00 1.5 C 94 % 0.64 C
2615 20-02-2019 01:50:00 1.5 C 94 % 0.64 C
2616 20-02-2019 01:55:00 1.4 C 94 % 0.54 C
2617 20-02-2019 02:00:00 1.4 C 94 % 0.54 C
2618 20-02-2019 02:05:00 1.3 C 94 % 0.44 C
2619 20-02-2019 02:10:00 1.3 C 94 % 0.44 C
2620 20-02-2019 02:15:00 1.2 C 94 % 0.34 C
2621 20-02-2019 02:20:00 1.1 C 94 % 0.24 C
2622 20-02-2019 02:25:00 1 C 94 % 0.15 C
2623 20-02-2019 02:30:00 1.1 C 94 % 0.24 C
2624 20-02-2019 02:35:00 1.1 C 94 % 0.24 C
2625 20-02-2019 02:40:00 1.2 C 95 % 0.49 C
Sensor: Nr:Datum:Temp:Feuchte:Taupunkt:
Aussen-T/F 2626 20-02-2019 02:45:00 1.3 C 95 % 0.59 C
2627 20-02-2019 02:50:00 1.2 C 95 % 0.49 C
2628 20-02-2019 02:55:00 1.1 C 94 % 0.24 C
2629 20-02-2019 03:00:00 1.1 C 94 % 0.24 C
2630 20-02-2019 03:05:00 1 C 95 % 0.29 C
2631 20-02-2019 03:10:00 1 C 95 % 0.29 C
2632 20-02-2019 03:15:00 1 C 95 % 0.29 C
2633 20-02-2019 03:20:00 1.1 C 95 % 0.39 C
2634 20-02-2019 03:25:00 1.2 C 95 % 0.49 C
2635 20-02-2019 03:30:00 1.1 C 95 % 0.39 C
2636 20-02-2019 03:35:00 1.1 C 95 % 0.39 C
2637 20-02-2019 03:40:00 1.1 C 95 % 0.39 C
2638 20-02-2019 03:45:00 1.1 C 95 % 0.39 C
2639 20-02-2019 03:50:00 1.2 C 95 % 0.49 C
2640 20-02-2019 03:55:00 1.2 C 95 % 0.49 C
2641 20-02-2019 04:00:00 1.2 C 95 % 0.49 C
2642 20-02-2019 04:05:00 1.1 C 95 % 0.39 C
2643 20-02-2019 04:10:00 1.1 C 95 % 0.39 C
2644 20-02-2019 04:15:00 1 C 95 % 0.29 C
2645 20-02-2019 04:20:00 0.8 C 95 % 0.09 C
2646 20-02-2019 04:25:00 0.7 C 95 % -0.01 C
2647 20-02-2019 04:30:00 0.7 C 95 % -0.01 C
2648 20-02-2019 04:35:00 0.7 C 95 % -0.01 C
2649 20-02-2019 04:40:00 0.8 C 95 % 0.09 C
2650 20-02-2019 04:45:00 0.8 C 95 % 0.09 C
Sensor: Nr:Datum:Temp:Feuchte:Taupunkt:
Aussen-T/F 2651 20-02-2019 04:50:00 0.8 C 95 % 0.09 C
2652 20-02-2019 04:55:00 0.8 C 95 % 0.09 C
2653 20-02-2019 05:00:00 1 C 96 % 0.44 C
2654 20-02-2019 05:05:00 1.1 C 96 % 0.54 C
2655 20-02-2019 05:10:00 1.1 C 96 % 0.54 C
2656 20-02-2019 05:15:00 1.1 C 95 % 0.39 C
2657 20-02-2019 05:20:00 1.1 C 95 % 0.39 C
2658 20-02-2019 05:25:00 1 C 95 % 0.29 C
2659 20-02-2019 05:30:00 0.9 C 95 % 0.19 C
2660 20-02-2019 05:35:00 0.9 C 95 % 0.19 C
2661 20-02-2019 05:40:00 0.9 C 95 % 0.19 C
2662 20-02-2019 05:45:00 0.9 C 96 % 0.34 C
2663 20-02-2019 05:50:00 1 C 96 % 0.44 C
2664 20-02-2019 05:55:00 1 C 96 % 0.44 C
2665 20-02-2019 06:00:00 0.9 C 96 % 0.34 C
2666 20-02-2019 06:05:00 1 C 96 % 0.44 C
2667 20-02-2019 06:10:00 1.1 C 96 % 0.54 C
2668 20-02-2019 06:15:00 1 C 96 % 0.44 C
2669 20-02-2019 06:20:00 0.9 C 96 % 0.34 C
2670 20-02-2019 06:25:00 0.9 C 96 % 0.34 C
2671 20-02-2019 06:30:00 0.9 C 96 % 0.34 C
2672 20-02-2019 06:35:00 0.9 C 95 % 0.19 C
2673 20-02-2019 06:40:00 0.8 C 95 % 0.09 C
2674 20-02-2019 06:45:00 0.7 C 95 % -0.01 C
2675 20-02-2019 06:50:00 0.6 C 95 % -0.11 C
Sensor: Nr:Datum:Temp:Feuchte:Taupunkt:
Aussen-T/F 2676 20-02-2019 06:55:00 0.7 C 96 % 0.14 C
2677 20-02-2019 07:00:00 0.8 C 96 % 0.24 C
2678 20-02-2019 07:05:00 0.8 C 96 % 0.24 C
2679 20-02-2019 07:10:00 0.8 C 96 % 0.24 C
2680 20-02-2019 07:15:00 0.9 C 96 % 0.34 C
2681 20-02-2019 07:20:00 0.8 C 96 % 0.24 C
2682 20-02-2019 07:25:00 0.7 C 96 % 0.14 C
2683 20-02-2019 07:30:00 0.8 C 96 % 0.24 C
2684 20-02-2019 07:35:00 0.7 C 96 % 0.14 C
2685 20-02-2019 07:40:00 0.7 C 96 % 0.14 C
2686 20-02-2019 07:45:00 0.6 C 96 % 0.04 C
2687 20-02-2019 07:50:00 0.6 C 96 % 0.04 C
2688 20-02-2019 07:55:00 0.6 C 96 % 0.04 C
2689 20-02-2019 08:00:00 0.6 C 96 % 0.04 C
2690 20-02-2019 08:05:00 0.7 C 96 % 0.14 C
2691 20-02-2019 08:10:00 0.8 C 96 % 0.24 C
2692 20-02-2019 08:15:00 0.9 C 96 % 0.34 C
2693 20-02-2019 08:20:00 1.1 C 96 % 0.54 C
2694 20-02-2019 08:25:00 1.2 C 96 % 0.63 C
2695 20-02-2019 08:30:00 1.3 C 96 % 0.73 C
2696 20-02-2019 08:35:00 1.4 C 96 % 0.83 C
2697 20-02-2019 08:40:00 1.6 C 97 % 1.18 C
2698 20-02-2019 08:45:00 1.8 C 97 % 1.38 C
2699 20-02-2019 08:50:00 2 C 97 % 1.58 C
2700 20-02-2019 08:55:00 2.3 C 97 % 1.87 C
Sensor: Nr:Datum:Temp:Feuchte:Taupunkt:
Aussen-T/F 2701 20-02-2019 09:00:00 2.5 C 97 % 2.07 C
2702 20-02-2019 09:05:00 2.7 C 97 % 2.27 C
2703 20-02-2019 09:10:00 2.8 C 97 % 2.37 C
2704 20-02-2019 09:15:00 2.8 C 97 % 2.37 C
2705 20-02-2019 09:20:00 2.9 C 97 % 2.47 C
2706 20-02-2019 09:25:00 3 C 97 % 2.57 C
2707 20-02-2019 09:30:00 3.1 C 97 % 2.67 C
2708 20-02-2019 09:35:00 3.3 C 97 % 2.87 C
2709 20-02-2019 09:40:00 3.3 C 96 % 2.72 C
2710 20-02-2019 09:45:00 3.4 C 96 % 2.82 C
2711 20-02-2019 09:50:00 3.6 C 96 % 3.02 C
2712 20-02-2019 09:55:00 3.7 C 96 % 3.12 C
2713 20-02-2019 10:00:00 3.8 C 96 % 3.22 C
2714 20-02-2019 10:05:00 3.8 C 96 % 3.22 C
2715 20-02-2019 10:10:00 3.9 C 96 % 3.32 C
2716 20-02-2019 10:15:00 4.1 C 96 % 3.52 C
2717 20-02-2019 10:20:00 4.2 C 96 % 3.62 C
2718 20-02-2019 10:25:00 4.3 C 96 % 3.72 C
2719 20-02-2019 10:30:00 4.4 C 96 % 3.82 C
2720 20-02-2019 10:35:00 4.6 C 96 % 4.02 C
2721 20-02-2019 10:40:00 4.7 C 95 % 3.97 C
2722 20-02-2019 10:45:00 4.9 C 95 % 4.17 C
2723 20-02-2019 10:50:00 5 C 95 % 4.27 C
2724 20-02-2019 10:55:00 5.2 C 95 % 4.47 C
2725 20-02-2019 11:00:00 5.4 C 95 % 4.66 C
Sensor: Nr:Datum:Temp:Feuchte:Taupunkt:
Aussen-T/F 2726 20-02-2019 11:05:00 5.7 C 94 % 4.81 C
2727 20-02-2019 11:10:00 5.8 C 94 % 4.91 C
2728 20-02-2019 11:15:00 5.9 C 93 % 4.86 C
2729 20-02-2019 11:20:00 6 C 92 % 4.8 C
2730 20-02-2019 11:25:00 6.1 C 92 % 4.9 C
2731 20-02-2019 11:30:00 6.2 C 92 % 5 C
2732 20-02-2019 11:35:00 6.3 C 91 % 4.94 C
2733 20-02-2019 11:40:00 6.3 C 91 % 4.94 C
2734 20-02-2019 11:45:00 6.3 C 91 % 4.94 C
2735 20-02-2019 11:50:00 6.4 C 91 % 5.04 C
2736 20-02-2019 11:55:00 6.5 C 90 % 4.98 C
2737 20-02-2019 12:00:00 6.6 C 90 % 5.08 C
2738 20-02-2019 12:05:00 6.7 C 90 % 5.18 C
2739 20-02-2019 12:10:00 6.7 C 90 % 5.18 C
2740 20-02-2019 12:15:00 6.9 C 90 % 5.38 C
2741 20-02-2019 12:20:00 7.1 C 90 % 5.57 C
2742 20-02-2019 12:25:00 7.3 C 89 % 5.61 C
2743 20-02-2019 12:30:00 7.6 C 89 % 5.91 C
2744 20-02-2019 12:35:00 7.7 C 87 % 5.68 C
2745 20-02-2019 12:40:00 8 C 87 % 5.97 C
2746 20-02-2019 12:45:00 8.2 C 86 % 6 C
2747 20-02-2019 12:50:00 8.4 C 85 % 6.03 C
2748 20-02-2019 12:55:00 8.7 C 83 % 5.98 C
2749 20-02-2019 13:00:00 8.9 C 82 % 6 C
2750 20-02-2019 13:05:00 9.1 C 82 % 6.19 C
Sensor: Nr:Datum:Temp:Feuchte:Taupunkt:
Aussen-T/F 2751 20-02-2019 13:10:00 9.3 C 81 % 6.21 C
2752 20-02-2019 13:15:00 9.5 C 80 % 6.23 C
2753 20-02-2019 13:20:00 9.8 C 79 % 6.34 C
2754 20-02-2019 13:25:00 9.9 C 78 % 6.25 C
2755 20-02-2019 13:30:00 10.1 C 77 % 6.26 C
2756 20-02-2019 13:35:00 10.2 C 77 % 6.35 C
2757 20-02-2019 13:40:00 10.2 C 76 % 6.16 C
2758 20-02-2019 13:45:00 10.3 C 76 % 6.26 C
2759 20-02-2019 13:50:00 10.4 C 76 % 6.36 C
2760 20-02-2019 13:55:00 10.7 C 75 % 6.46 C
2761 20-02-2019 14:00:00 10.9 C 75 % 6.65 C
2762 20-02-2019 14:05:00 10.9 C 74 % 6.45 C
2763 20-02-2019 14:10:00 10.9 C 74 % 6.45 C
2764 20-02-2019 14:15:00 10.8 C 74 % 6.36 C
2765 20-02-2019 14:20:00 10.8 C 75 % 6.55 C
2766 20-02-2019 14:25:00 10.8 C 75 % 6.55 C
2767 20-02-2019 14:30:00 10.8 C 75 % 6.55 C
2768 20-02-2019 14:35:00 10.8 C 74 % 6.36 C
2769 20-02-2019 14:40:00 10.9 C 74 % 6.45 C
2770 20-02-2019 14:45:00 10.9 C 74 % 6.45 C
2771 20-02-2019 14:50:00 10.9 C 74 % 6.45 C
2772 20-02-2019 14:55:00 10.9 C 74 % 6.45 C
2773 20-02-2019 15:00:00 11 C 74 % 6.55 C
2774 20-02-2019 15:05:00 11 C 74 % 6.55 C
2775 20-02-2019 15:10:00 11.1 C 73 % 6.45 C
Sensor: Nr:Datum:Temp:Feuchte:Taupunkt:
Aussen-T/F 2776 20-02-2019 15:15:00 11.1 C 73 % 6.45 C
2777 20-02-2019 15:20:00 11.1 C 73 % 6.45 C
2778 20-02-2019 15:25:00 11.1 C 73 % 6.45 C
2779 20-02-2019 15:30:00 11 C 73 % 6.35 C
2780 20-02-2019 15:35:00 11.1 C 73 % 6.45 C
2781 20-02-2019 15:40:00 11.1 C 73 % 6.45 C
2782 20-02-2019 15:45:00 11.1 C 73 % 6.45 C
2783 20-02-2019 15:50:00 11.1 C 72 % 6.25 C
2784 20-02-2019 15:55:00 11.2 C 72 % 6.35 C
2785 20-02-2019 16:00:00 11.3 C 71 % 6.24 C
2786 20-02-2019 16:05:00 11.3 C 73 % 6.64 C
2787 20-02-2019 16:10:00 11.3 C 72 % 6.44 C
2788 20-02-2019 16:15:00 11.3 C 72 % 6.44 C
2789 20-02-2019 16:20:00 11.3 C 71 % 6.24 C
2790 20-02-2019 16:25:00 11.3 C 72 % 6.44 C
2791 20-02-2019 16:30:00 11.2 C 71 % 6.14 C
2792 20-02-2019 16:35:00 11.3 C 71 % 6.24 C
2793 20-02-2019 16:40:00 11.3 C 71 % 6.24 C
2794 20-02-2019 16:45:00 11.5 C 71 % 6.43 C
2795 20-02-2019 16:50:00 11.7 C 71 % 6.62 C
2796 20-02-2019 16:55:00 11.7 C 69 % 6.21 C
2797 20-02-2019 17:00:00 11.7 C 69 % 6.21 C
2798 20-02-2019 17:05:00 11.5 C 71 % 6.43 C
2799 20-02-2019 17:10:00 11.3 C 71 % 6.24 C
2800 20-02-2019 17:15:00 11.1 C 72 % 6.25 C
Sensor: Nr:Datum:Temp:Feuchte:Taupunkt:
Aussen-T/F 2801 20-02-2019 17:20:00 10.9 C 73 % 6.26 C
2802 20-02-2019 17:25:00 10.7 C 74 % 6.26 C
2803 20-02-2019 17:30:00 10.4 C 74 % 5.97 C
2804 20-02-2019 17:35:00 10.1 C 75 % 5.88 C
2805 20-02-2019 17:40:00 9.7 C 76 % 5.68 C
2806 20-02-2019 17:45:00 9.3 C 77 % 5.48 C
2807 20-02-2019 17:50:00 8.9 C 78 % 5.28 C
2808 20-02-2019 17:55:00 8.6 C 79 % 5.17 C
2809 20-02-2019 18:00:00 8.3 C 80 % 5.06 C
2810 20-02-2019 18:05:00 8 C 81 % 4.94 C
2811 20-02-2019 18:10:00 7.7 C 82 % 4.83 C
2812 20-02-2019 18:15:00 7.6 C 83 % 4.9 C
2813 20-02-2019 18:20:00 7.4 C 84 % 4.88 C
2814 20-02-2019 18:25:00 7.2 C 84 % 4.68 C
2815 20-02-2019 18:30:00 7.1 C 85 % 4.75 C
2816 20-02-2019 18:35:00 7 C 85 % 4.66 C
2817 20-02-2019 18:40:00 6.9 C 85 % 4.56 C
2818 20-02-2019 18:45:00 6.8 C 86 % 4.63 C
2819 20-02-2019 18:50:00 6.8 C 86 % 4.63 C
2820 20-02-2019 18:55:00 6.7 C 86 % 4.53 C
2821 20-02-2019 19:00:00 6.6 C 86 % 4.43 C
2822 20-02-2019 19:05:00 6.5 C 86 % 4.33 C
2823 20-02-2019 19:10:00 6.4 C 87 % 4.4 C
2824 20-02-2019 19:15:00 6.3 C 87 % 4.3 C
2825 20-02-2019 19:20:00 6.3 C 87 % 4.3 C
Sensor: Nr:Datum:Temp:Feuchte:Taupunkt:
Aussen-T/F 2826 20-02-2019 19:25:00 6.2 C 88 % 4.36 C
2827 20-02-2019 19:30:00 6.1 C 88 % 4.27 C
2828 20-02-2019 19:35:00 6.1 C 88 % 4.27 C
2829 20-02-2019 19:40:00 5.9 C 88 % 4.07 C
2830 20-02-2019 19:45:00 5.9 C 89 % 4.23 C
2831 20-02-2019 19:50:00 5.9 C 89 % 4.23 C
2832 20-02-2019 19:55:00 5.8 C 89 % 4.13 C
2833 20-02-2019 20:00:00 5.6 C 88 % 3.77 C
2834 20-02-2019 20:05:00 5.4 C 88 % 3.58 C
2835 20-02-2019 20:10:00 5.2 C 89 % 3.54 C
2836 20-02-2019 20:15:00 5.2 C 89 % 3.54 C
2837 20-02-2019 20:20:00 5.1 C 90 % 3.6 C
2838 20-02-2019 20:25:00 4.9 C 90 % 3.4 C
2839 20-02-2019 20:30:00 4.8 C 90 % 3.3 C
2840 20-02-2019 20:35:00 4.6 C 90 % 3.1 C
2841 20-02-2019 20:40:00 4.4 C 90 % 2.91 C
2842 20-02-2019 20:45:00 4.4 C 91 % 3.06 C
2843 20-02-2019 20:50:00 4.4 C 91 % 3.06 C
2844 20-02-2019 20:55:00 4.4 C 91 % 3.06 C
2845 20-02-2019 21:00:00 4.4 C 92 % 3.22 C
2846 20-02-2019 21:05:00 4.3 C 91 % 2.96 C
2847 20-02-2019 21:10:00 4.2 C 91 % 2.87 C
2848 20-02-2019 21:15:00 4.1 C 91 % 2.77 C
2849 20-02-2019 21:20:00 3.8 C 90 % 2.31 C
2850 20-02-2019 21:25:00 3.7 C 91 % 2.37 C
Sensor: Nr:Datum:Temp:Feuchte:Taupunkt:
Aussen-T/F 2851 20-02-2019 21:30:00 3.6 C 92 % 2.42 C
2852 20-02-2019 21:35:00 3.6 C 92 % 2.42 C
2853 20-02-2019 21:40:00 3.6 C 92 % 2.42 C
2854 20-02-2019 21:45:00 3.4 C 92 % 2.23 C
2855 20-02-2019 21:50:00 3.4 C 92 % 2.23 C
2856 20-02-2019 21:55:00 3.2 C 92 % 2.03 C
2857 20-02-2019 22:00:00 3.2 C 92 % 2.03 C
2858 20-02-2019 22:05:00 3.1 C 92 % 1.93 C
2859 20-02-2019 22:10:00 2.9 C 92 % 1.73 C
2860 20-02-2019 22:15:00 2.8 C 92 % 1.63 C
2861 20-02-2019 22:20:00 2.7 C 92 % 1.53 C
2862 20-02-2019 22:25:00 2.6 C 93 % 1.59 C
2863 20-02-2019 22:30:00 2.5 C 93 % 1.49 C
2864 20-02-2019 22:35:00 2.6 C 93 % 1.59 C
2865 20-02-2019 22:40:00 2.6 C 94 % 1.73 C
2866 20-02-2019 22:45:00 2.6 C 94 % 1.73 C
2867 20-02-2019 22:50:00 2.5 C 94 % 1.63 C
2868 20-02-2019 22:55:00 2.3 C 93 % 1.29 C
2869 20-02-2019 23:00:00 2.2 C 94 % 1.34 C
2870 20-02-2019 23:05:00 2.3 C 94 % 1.44 C
2871 20-02-2019 23:10:00 2.4 C 94 % 1.54 C
2872 20-02-2019 23:15:00 2.3 C 94 % 1.44 C
2873 20-02-2019 23:20:00 2.2 C 94 % 1.34 C
2874 20-02-2019 23:25:00 1.9 C 94 % 1.04 C
2875 20-02-2019 23:30:00 1.8 C 94 % 0.94 C
Sensor: Nr:Datum:Temp:Feuchte:Taupunkt:
Aussen-T/F 2876 20-02-2019 23:35:00 1.9 C 94 % 1.04 C
2877 20-02-2019 23:40:00 1.9 C 94 % 1.04 C
2878 20-02-2019 23:45:00 2 C 95 % 1.29 C
2879 20-02-2019 23:50:00 2.2 C 95 % 1.48 C
2880 20-02-2019 23:55:00 2.2 C 95 % 1.48 C
2881 21-02-2019 00:00:00 2.1 C 94 % 1.24 C
2882 21-02-2019 00:05:00 1.9 C 95 % 1.19 C
2883 21-02-2019 00:10:00 1.8 C 94 % 0.94 C
2884 21-02-2019 00:15:00 1.7 C 94 % 0.84 C
2885 21-02-2019 00:20:00 1.6 C 94 % 0.74 C
2886 21-02-2019 00:25:00 1.5 C 94 % 0.64 C
2887 21-02-2019 00:30:00 1.4 C 94 % 0.54 C
2888 21-02-2019 00:35:00 1.4 C 95 % 0.69 C
2889 21-02-2019 00:40:00 1.4 C 95 % 0.69 C
2890 21-02-2019 00:45:00 1.3 C 95 % 0.59 C
2891 21-02-2019 00:50:00 1.3 C 95 % 0.59 C
2892 21-02-2019 00:55:00 1.5 C 95 % 0.79 C
2893 21-02-2019 01:00:00 1.6 C 95 % 0.89 C
2894 21-02-2019 01:05:00 1.6 C 95 % 0.89 C
2895 21-02-2019 01:10:00 1.7 C 95 % 0.99 C
2896 21-02-2019 01:15:00 1.7 C 95 % 0.99 C
2897 21-02-2019 01:20:00 1.8 C 95 % 1.09 C
2898 21-02-2019 01:25:00 1.7 C 95 % 0.99 C
2899 21-02-2019 01:30:00 1.6 C 95 % 0.89 C
2900 21-02-2019 01:35:00 1.3 C 95 % 0.59 C
Sensor: Nr:Datum:Temp:Feuchte:Taupunkt:
Aussen-T/F 2901 21-02-2019 01:40:00 1.3 C 95 % 0.59 C
2902 21-02-2019 01:45:00 1.3 C 95 % 0.59 C
2903 21-02-2019 01:50:00 1.6 C 96 % 1.03 C
2904 21-02-2019 01:55:00 1.8 C 96 % 1.23 C
2905 21-02-2019 02:00:00 1.8 C 96 % 1.23 C
2906 21-02-2019 02:05:00 1.8 C 96 % 1.23 C
2907 21-02-2019 02:10:00 1.7 C 95 % 0.99 C
2908 21-02-2019 02:15:00 1.4 C 95 % 0.69 C
2909 21-02-2019 02:20:00 1.2 C 95 % 0.49 C
2910 21-02-2019 02:25:00 0.9 C 95 % 0.19 C
2911 21-02-2019 02:30:00 0.8 C 95 % 0.09 C
2912 21-02-2019 02:35:00 0.7 C 95 % -0.01 C
2913 21-02-2019 02:40:00 0.7 C 95 % -0.01 C
2914 21-02-2019 02:45:00 0.6 C 95 % -0.11 C
2915 21-02-2019 02:50:00 0.6 C 95 % -0.11 C
2916 21-02-2019 02:55:00 0.6 C 95 % -0.11 C
2917 21-02-2019 03:00:00 0.7 C 96 % 0.14 C
2918 21-02-2019 03:05:00 0.7 C 96 % 0.14 C
2919 21-02-2019 03:10:00 0.7 C 95 % -0.01 C
2920 21-02-2019 03:15:00 0.7 C 96 % 0.14 C
2921 21-02-2019 03:20:00 0.7 C 96 % 0.14 C
2922 21-02-2019 03:25:00 0.6 C 96 % 0.04 C
2923 21-02-2019 03:30:00 0.7 C 96 % 0.14 C
2924 21-02-2019 03:35:00 0.7 C 96 % 0.14 C
2925 21-02-2019 03:40:00 0.8 C 96 % 0.24 C
Sensor: Nr:Datum:Temp:Feuchte:Taupunkt:
Aussen-T/F 2926 21-02-2019 03:45:00 0.8 C 96 % 0.24 C
2927 21-02-2019 03:50:00 0.8 C 96 % 0.24 C
2928 21-02-2019 03:55:00 1 C 96 % 0.44 C
2929 21-02-2019 04:00:00 1.1 C 96 % 0.54 C
2930 21-02-2019 04:05:00 1.2 C 96 % 0.63 C
2931 21-02-2019 04:10:00 1.1 C 96 % 0.54 C
2932 21-02-2019 04:15:00 0.9 C 96 % 0.34 C
2933 21-02-2019 04:20:00 0.8 C 96 % 0.24 C
2934 21-02-2019 04:25:00 0.8 C 96 % 0.24 C
2935 21-02-2019 04:30:00 0.8 C 96 % 0.24 C
2936 21-02-2019 04:35:00 0.9 C 96 % 0.34 C
2937 21-02-2019 04:40:00 0.9 C 96 % 0.34 C
2938 21-02-2019 04:45:00 0.9 C 96 % 0.34 C
2939 21-02-2019 04:50:00 0.8 C 96 % 0.24 C
2940 21-02-2019 04:55:00 0.8 C 96 % 0.24 C
2941 21-02-2019 05:00:00 0.7 C 96 % 0.14 C
2942 21-02-2019 05:05:00 0.6 C 96 % 0.04 C
2943 21-02-2019 05:10:00 0.6 C 96 % 0.04 C
2944 21-02-2019 05:15:00 0.5 C 96 % -0.06 C
2945 21-02-2019 05:20:00 0.5 C 96 % -0.06 C
2946 21-02-2019 05:25:00 0.7 C 96 % 0.14 C
2947 21-02-2019 05:30:00 0.9 C 96 % 0.34 C
2948 21-02-2019 05:35:00 1.2 C 96 % 0.63 C
2949 21-02-2019 05:40:00 1.6 C 97 % 1.18 C
2950 21-02-2019 05:45:00 1.8 C 97 % 1.38 C
Sensor: Nr:Datum:Temp:Feuchte:Taupunkt:
Aussen-T/F 2951 21-02-2019 05:50:00 1.8 C 97 % 1.38 C
2952 21-02-2019 05:55:00 1.9 C 97 % 1.48 C
2953 21-02-2019 06:00:00 1.9 C 97 % 1.48 C
2954 21-02-2019 06:05:00 1.9 C 97 % 1.48 C
2955 21-02-2019 06:10:00 1.8 C 97 % 1.38 C
2956 21-02-2019 06:15:00 1.7 C 96 % 1.13 C
2957 21-02-2019 06:20:00 1.4 C 96 % 0.83 C
2958 21-02-2019 06:25:00 1.3 C 96 % 0.73 C
2959 21-02-2019 06:30:00 1.2 C 96 % 0.63 C
2960 21-02-2019 06:35:00 1 C 96 % 0.44 C
2961 21-02-2019 06:40:00 0.8 C 96 % 0.24 C
2962 21-02-2019 06:45:00 0.7 C 96 % 0.14 C
2963 21-02-2019 06:50:00 0.6 C 96 % 0.04 C
2964 21-02-2019 06:55:00 0.7 C 96 % 0.14 C
2965 21-02-2019 07:00:00 0.7 C 96 % 0.14 C
2966 21-02-2019 07:05:00 0.8 C 96 % 0.24 C
2967 21-02-2019 07:10:00 1.1 C 96 % 0.54 C
2968 21-02-2019 07:15:00 1.2 C 96 % 0.63 C
2969 21-02-2019 07:20:00 1.3 C 97 % 0.88 C
2970 21-02-2019 07:25:00 1.3 C 97 % 0.88 C
2971 21-02-2019 07:30:00 1.3 C 97 % 0.88 C
2972 21-02-2019 07:35:00 1.3 C 97 % 0.88 C
2973 21-02-2019 07:40:00 1.3 C 97 % 0.88 C
2974 21-02-2019 07:45:00 1.4 C 96 % 0.83 C
2975 21-02-2019 07:50:00 1.4 C 96 % 0.83 C
Sensor: Nr:Datum:Temp:Feuchte:Taupunkt:
Aussen-T/F 2976 21-02-2019 07:55:00 1.5 C 96 % 0.93 C
2977 21-02-2019 08:00:00 1.6 C 97 % 1.18 C
2978 21-02-2019 08:05:00 1.7 C 97 % 1.28 C
2979 21-02-2019 08:10:00 1.8 C 97 % 1.38 C
2980 21-02-2019 08:15:00 1.9 C 97 % 1.48 C
2981 21-02-2019 08:20:00 2.1 C 97 % 1.67 C
2982 21-02-2019 08:25:00 2.1 C 97 % 1.67 C
2983 21-02-2019 08:30:00 2.2 C 97 % 1.77 C
2984 21-02-2019 08:35:00 2.3 C 97 % 1.87 C
2985 21-02-2019 08:40:00 2.3 C 97 % 1.87 C
2986 21-02-2019 08:45:00 2.4 C 97 % 1.97 C
2987 21-02-2019 08:50:00 2.4 C 97 % 1.97 C
2988 21-02-2019 08:55:00 2.5 C 97 % 2.07 C
2989 21-02-2019 09:00:00 2.6 C 97 % 2.17 C
2990 21-02-2019 09:05:00 2.6 C 97 % 2.17 C
2991 21-02-2019 09:10:00 2.7 C 97 % 2.27 C
2992 21-02-2019 09:15:00 2.7 C 97 % 2.27 C
2993 21-02-2019 09:20:00 2.8 C 97 % 2.37 C
2994 21-02-2019 09:25:00 2.8 C 97 % 2.37 C
2995 21-02-2019 09:30:00 2.8 C 97 % 2.37 C
2996 21-02-2019 09:35:00 2.9 C 97 % 2.47 C
2997 21-02-2019 09:40:00 2.9 C 97 % 2.47 C
2998 21-02-2019 09:45:00 3 C 97 % 2.57 C
2999 21-02-2019 09:50:00 3.1 C 97 % 2.67 C
3000 21-02-2019 09:55:00 3.2 C 97 % 2.77 C
Sensor: Nr:Datum:Temp:Feuchte:Taupunkt:
Aussen-T/F 3001 21-02-2019 10:00:00 3.2 C 97 % 2.77 C
3002 21-02-2019 10:05:00 3.3 C 97 % 2.87 C
3003 21-02-2019 10:10:00 3.4 C 97 % 2.97 C
3004 21-02-2019 10:15:00 3.7 C 97 % 3.27 C
3005 21-02-2019 10:20:00 3.8 C 97 % 3.37 C
3006 21-02-2019 10:25:00 3.9 C 97 % 3.47 C
3007 21-02-2019 10:30:00 4 C 97 % 3.57 C
3008 21-02-2019 10:35:00 4.2 C 97 % 3.77 C
3009 21-02-2019 10:40:00 4.2 C 97 % 3.77 C
3010 21-02-2019 10:45:00 4.3 C 97 % 3.87 C
3011 21-02-2019 10:50:00 4.4 C 97 % 3.97 C
3012 21-02-2019 10:55:00 4.6 C 97 % 4.17 C
3013 21-02-2019 11:00:00 4.8 C 97 % 4.37 C
3014 21-02-2019 11:05:00 4.9 C 96 % 4.32 C
3015 21-02-2019 11:10:00 5.1 C 96 % 4.52 C
3016 21-02-2019 11:15:00 5.3 C 96 % 4.72 C
3017 21-02-2019 11:20:00 5.4 C 96 % 4.81 C
3018 21-02-2019 11:25:00 5.6 C 95 % 4.86 C
3019 21-02-2019 11:30:00 5.7 C 95 % 4.96 C
3020 21-02-2019 11:35:00 5.9 C 95 % 5.16 C
3021 21-02-2019 11:40:00 6.2 C 94 % 5.31 C
3022 21-02-2019 11:45:00 6.4 C 93 % 5.35 C
3023 21-02-2019 11:50:00 6.6 C 93 % 5.55 C
3024 21-02-2019 11:55:00 6.8 C 92 % 5.59 C
3025 21-02-2019 12:00:00 7 C 92 % 5.79 C
Sensor: Nr:Datum:Temp:Feuchte:Taupunkt:
Aussen-T/F 3026 21-02-2019 12:05:00 7.2 C 92 % 5.99 C
3027 21-02-2019 12:10:00 7.4 C 91 % 6.03 C
3028 21-02-2019 12:15:00 7.7 C 91 % 6.33 C
3029 21-02-2019 12:20:00 7.8 C 90 % 6.27 C
3030 21-02-2019 12:25:00 8.1 C 90 % 6.56 C
3031 21-02-2019 12:30:00 8.3 C 90 % 6.76 C
3032 21-02-2019 12:35:00 8.5 C 90 % 6.96 C
3033 21-02-2019 12:40:00 8.8 C 90 % 7.25 C
3034 21-02-2019 12:45:00 9.3 C 89 % 7.58 C
3035 21-02-2019 12:50:00 9.8 C 87 % 7.74 C
3036 21-02-2019 12:55:00 10.1 C 86 % 7.87 C
3037 21-02-2019 13:00:00 10.3 C 85 % 7.89 C
3038 21-02-2019 13:05:00 10.5 C 84 % 7.91 C
3039 21-02-2019 13:10:00 10.7 C 84 % 8.11 C
3040 21-02-2019 13:15:00 10.8 C 83 % 8.03 C
3041 21-02-2019 13:20:00 11 C 84 % 8.4 C
3042 21-02-2019 13:25:00 11.3 C 83 % 8.52 C
3043 21-02-2019 13:30:00 11.5 C 81 % 8.36 C
3044 21-02-2019 13:35:00 11.7 C 81 % 8.55 C
3045 21-02-2019 13:40:00 11.8 C 80 % 8.47 C
3046 21-02-2019 13:45:00 11.9 C 79 % 8.38 C
3047 21-02-2019 13:50:00 12 C 79 % 8.48 C
3048 21-02-2019 13:55:00 12.1 C 79 % 8.57 C
3049 21-02-2019 14:00:00 12.1 C 79 % 8.57 C
3050 21-02-2019 14:05:00 12.2 C 78 % 8.48 C
Sensor: Nr:Datum:Temp:Feuchte:Taupunkt:
Aussen-T/F 3051 21-02-2019 14:10:00 12.3 C 79 % 8.77 C
3052 21-02-2019 14:15:00 12.6 C 78 % 8.87 C
3053 21-02-2019 14:20:00 12.7 C 77 % 8.78 C
3054 21-02-2019 14:25:00 12.7 C 76 % 8.58 C
3055 21-02-2019 14:30:00 12.8 C 76 % 8.68 C
3056 21-02-2019 14:35:00 12.8 C 76 % 8.68 C
3057 21-02-2019 14:40:00 12.7 C 76 % 8.58 C
3058 21-02-2019 14:45:00 12.7 C 76 % 8.58 C
3059 21-02-2019 14:50:00 12.7 C 76 % 8.58 C
3060 21-02-2019 14:55:00 12.9 C 77 % 8.97 C
3061 21-02-2019 15:00:00 13.2 C 75 % 8.87 C
3062 21-02-2019 15:05:00 13.2 C 75 % 8.87 C
3063 21-02-2019 15:10:00 13.3 C 74 % 8.77 C
3064 21-02-2019 15:15:00 13.4 C 74 % 8.87 C
3065 21-02-2019 15:20:00 13.4 C 74 % 8.87 C
3066 21-02-2019 15:25:00 13.3 C 74 % 8.77 C
3067 21-02-2019 15:30:00 13.3 C 75 % 8.97 C
3068 21-02-2019 15:35:00 13.3 C 74 % 8.77 C
3069 21-02-2019 15:40:00 13.3 C 75 % 8.97 C
3070 21-02-2019 15:45:00 13.4 C 74 % 8.87 C
3071 21-02-2019 15:50:00 13.4 C 73 % 8.66 C
3072 21-02-2019 15:55:00 13.4 C 74 % 8.87 C
3073 21-02-2019 16:00:00 13.3 C 73 % 8.57 C
3074 21-02-2019 16:05:00 13.3 C 73 % 8.57 C
3075 21-02-2019 16:10:00 13.3 C 74 % 8.77 C
Sensor: Nr:Datum:Temp:Feuchte:Taupunkt:
Aussen-T/F 3076 21-02-2019 16:15:00 13.3 C 75 % 8.97 C
3077 21-02-2019 16:20:00 13.4 C 75 % 9.06 C
3078 21-02-2019 16:25:00 13.4 C 74 % 8.87 C
3079 21-02-2019 16:30:00 13.4 C 74 % 8.87 C
3080 21-02-2019 16:35:00 13.4 C 74 % 8.87 C
3081 21-02-2019 16:40:00 13.4 C 74 % 8.87 C
3082 21-02-2019 16:45:00 13.3 C 75 % 8.97 C
3083 21-02-2019 16:50:00 13.3 C 74 % 8.77 C
3084 21-02-2019 16:55:00 13.3 C 74 % 8.77 C
3085 21-02-2019 17:00:00 13.2 C 73 % 8.47 C
3086 21-02-2019 17:05:00 13.1 C 73 % 8.38 C
3087 21-02-2019 17:10:00 13.1 C 73 % 8.38 C
3088 21-02-2019 17:15:00 13.1 C 75 % 8.77 C
3089 21-02-2019 17:20:00 13.1 C 80 % 9.73 C
3090 21-02-2019 17:25:00 12.8 C 81 % 9.62 C
3091 21-02-2019 17:30:00 12.6 C 82 % 9.61 C
3092 21-02-2019 17:35:00 12.3 C 83 % 9.5 C
3093 21-02-2019 17:40:00 12 C 84 % 9.38 C
3094 21-02-2019 17:45:00 11.7 C 84 % 9.09 C
3095 21-02-2019 17:50:00 11.5 C 85 % 9.07 C
3096 21-02-2019 17:55:00 11.3 C 85 % 8.87 C
3097 21-02-2019 18:00:00 11.1 C 86 % 8.85 C
3098 21-02-2019 18:05:00 10.9 C 86 % 8.65 C
3099 21-02-2019 18:10:00 10.8 C 86 % 8.56 C
3100 21-02-2019 18:15:00 10.7 C 86 % 8.46 C
Sensor: Nr:Datum:Temp:Feuchte:Taupunkt:
Aussen-T/F 3101 21-02-2019 18:20:00 10.6 C 86 % 8.36 C
3102 21-02-2019 18:25:00 10.6 C 86 % 8.36 C
3103 21-02-2019 18:30:00 10.5 C 86 % 8.26 C
3104 21-02-2019 18:35:00 10.4 C 86 % 8.16 C
3105 21-02-2019 18:40:00 10.4 C 86 % 8.16 C
3106 21-02-2019 18:45:00 10.3 C 86 % 8.06 C
3107 21-02-2019 18:50:00 10.3 C 87 % 8.23 C
3108 21-02-2019 18:55:00 10.2 C 87 % 8.14 C
3109 21-02-2019 19:00:00 10.2 C 87 % 8.14 C
3110 21-02-2019 19:05:00 10.1 C 86 % 7.87 C
3111 21-02-2019 19:10:00 10 C 86 % 7.77 C
3112 21-02-2019 19:15:00 9.8 C 86 % 7.57 C
3113 21-02-2019 19:20:00 9.8 C 87 % 7.74 C
3114 21-02-2019 19:25:00 9.7 C 88 % 7.81 C
3115 21-02-2019 19:30:00 9.7 C 88 % 7.81 C
3116 21-02-2019 19:35:00 9.7 C 88 % 7.81 C
3117 21-02-2019 19:40:00 9.6 C 88 % 7.71 C
3118 21-02-2019 19:45:00 9.6 C 87 % 7.55 C
3119 21-02-2019 19:50:00 9.4 C 88 % 7.52 C
3120 21-02-2019 19:55:00 9.3 C 88 % 7.42 C
3121 21-02-2019 20:00:00 9.2 C 88 % 7.32 C
3122 21-02-2019 20:05:00 9.2 C 89 % 7.48 C
3123 21-02-2019 20:10:00 9.2 C 89 % 7.48 C
3124 21-02-2019 20:15:00 9.1 C 89 % 7.39 C
3125 21-02-2019 20:20:00 9.1 C 89 % 7.39 C
Sensor: Nr:Datum:Temp:Feuchte:Taupunkt:
Aussen-T/F 3126 21-02-2019 20:25:00 9.2 C 90 % 7.65 C
3127 21-02-2019 20:30:00 9.2 C 90 % 7.65 C
3128 21-02-2019 20:35:00 9.2 C 90 % 7.65 C
3129 21-02-2019 20:40:00 9.2 C 90 % 7.65 C
3130 21-02-2019 20:45:00 9.2 C 90 % 7.65 C
3131 21-02-2019 20:50:00 9.2 C 90 % 7.65 C
3132 21-02-2019 20:55:00 9.2 C 90 % 7.65 C
3133 21-02-2019 21:00:00 9.3 C 90 % 7.75 C
3134 21-02-2019 21:05:00 9.3 C 90 % 7.75 C
3135 21-02-2019 21:10:00 9.3 C 91 % 7.91 C
3136 21-02-2019 21:15:00 9.3 C 91 % 7.91 C
3137 21-02-2019 21:20:00 9.3 C 91 % 7.91 C
3138 21-02-2019 21:25:00 9.3 C 91 % 7.91 C
3139 21-02-2019 21:30:00 9.3 C 91 % 7.91 C
3140 21-02-2019 21:35:00 9.3 C 91 % 7.91 C
3141 21-02-2019 21:40:00 9.3 C 90 % 7.75 C
3142 21-02-2019 21:45:00 9.4 C 90 % 7.85 C
3143 21-02-2019 21:50:00 9.4 C 90 % 7.85 C
3144 21-02-2019 21:55:00 9.4 C 90 % 7.85 C
3145 21-02-2019 22:00:00 9.3 C 90 % 7.75 C
3146 21-02-2019 22:05:00 9.3 C 90 % 7.75 C
3147 21-02-2019 22:10:00 9.3 C 89 % 7.58 C
3148 21-02-2019 22:15:00 9.3 C 90 % 7.75 C
3149 21-02-2019 22:20:00 9.3 C 89 % 7.58 C
3150 21-02-2019 22:25:00 9.3 C 89 % 7.58 C
Sensor: Nr:Datum:Temp:Feuchte:Taupunkt:
Aussen-T/F 3151 21-02-2019 22:30:00 9.3 C 89 % 7.58 C
3152 21-02-2019 22:35:00 9.3 C 89 % 7.58 C
3153 21-02-2019 22:40:00 9.3 C 89 % 7.58 C
3154 21-02-2019 22:45:00 9.2 C 89 % 7.48 C
3155 21-02-2019 22:50:00 9.2 C 89 % 7.48 C
3156 21-02-2019 22:55:00 9.2 C 89 % 7.48 C
3157 21-02-2019 23:00:00 9.1 C 89 % 7.39 C
3158 21-02-2019 23:05:00 9.1 C 89 % 7.39 C
3159 21-02-2019 23:10:00 9 C 89 % 7.29 C
3160 21-02-2019 23:15:00 9 C 90 % 7.45 C
3161 21-02-2019 23:20:00 9.1 C 90 % 7.55 C
3162 21-02-2019 23:25:00 9.2 C 90 % 7.65 C
3163 21-02-2019 23:30:00 9.3 C 90 % 7.75 C
3164 21-02-2019 23:35:00 9.3 C 89 % 7.58 C
3165 21-02-2019 23:40:00 9.4 C 89 % 7.68 C
3166 21-02-2019 23:45:00 9.3 C 89 % 7.58 C
3167 21-02-2019 23:50:00 9.4 C 89 % 7.68 C
3168 21-02-2019 23:55:00 9.4 C 89 % 7.68 C
3169 22-02-2019 00:00:00 9.4 C 89 % 7.68 C
3170 22-02-2019 00:05:00 9.4 C 88 % 7.52 C
3171 22-02-2019 00:10:00 9.3 C 89 % 7.58 C
3172 22-02-2019 00:15:00 9.3 C 89 % 7.58 C
3173 22-02-2019 00:20:00 9.3 C 89 % 7.58 C
3174 22-02-2019 00:25:00 9.3 C 89 % 7.58 C
3175 22-02-2019 00:30:00 9.4 C 89 % 7.68 C
Sensor: Nr:Datum:Temp:Feuchte:Taupunkt:
Aussen-T/F 3176 22-02-2019 00:35:00 9.5 C 90 % 7.94 C
3177 22-02-2019 00:40:00 9.8 C 90 % 8.24 C
3178 22-02-2019 00:45:00 10 C 88 % 8.11 C
3179 22-02-2019 00:50:00 10.1 C 88 % 8.21 C
3180 22-02-2019 00:55:00 10.1 C 88 % 8.21 C
3181 22-02-2019 01:00:00 10.1 C 88 % 8.21 C
3182 22-02-2019 01:05:00 10.1 C 87 % 8.04 C
3183 22-02-2019 01:10:00 9.9 C 87 % 7.84 C
3184 22-02-2019 01:15:00 9.8 C 87 % 7.74 C
3185 22-02-2019 01:20:00 9.8 C 88 % 7.91 C
3186 22-02-2019 01:25:00 9.7 C 88 % 7.81 C
3187 22-02-2019 01:30:00 9.7 C 89 % 7.98 C
3188 22-02-2019 01:35:00 9.7 C 89 % 7.98 C
3189 22-02-2019 01:40:00 9.7 C 89 % 7.98 C
3190 22-02-2019 01:45:00 9.6 C 89 % 7.88 C
3191 22-02-2019 01:50:00 9.6 C 89 % 7.88 C
3192 22-02-2019 01:55:00 9.5 C 89 % 7.78 C
3193 22-02-2019 02:00:00 9.4 C 89 % 7.68 C
3194 22-02-2019 02:05:00 9.4 C 89 % 7.68 C
3195 22-02-2019 02:10:00 9.4 C 90 % 7.85 C
3196 22-02-2019 02:15:00 9.4 C 90 % 7.85 C
3197 22-02-2019 02:20:00 9.4 C 90 % 7.85 C
3198 22-02-2019 02:25:00 9.3 C 90 % 7.75 C
3199 22-02-2019 02:30:00 9.3 C 90 % 7.75 C
3200 22-02-2019 02:35:00 9.3 C 90 % 7.75 C
Sensor: Nr:Datum:Temp:Feuchte:Taupunkt:
Aussen-T/F 3201 22-02-2019 02:40:00 9.2 C 90 % 7.65 C
3202 22-02-2019 02:45:00 9.2 C 91 % 7.81 C
3203 22-02-2019 02:50:00 9.3 C 91 % 7.91 C
3204 22-02-2019 02:55:00 9.3 C 92 % 8.07 C
3205 22-02-2019 03:00:00 9.4 C 92 % 8.17 C
3206 22-02-2019 03:05:00 9.4 C 91 % 8.01 C
3207 22-02-2019 03:10:00 9.4 C 92 % 8.17 C
3208 22-02-2019 03:15:00 9.4 C 92 % 8.17 C
3209 22-02-2019 03:20:00 9.5 C 92 % 8.27 C
3210 22-02-2019 03:25:00 9.5 C 92 % 8.27 C
3211 22-02-2019 03:30:00 9.6 C 92 % 8.37 C
3212 22-02-2019 03:35:00 9.6 C 93 % 8.53 C
3213 22-02-2019 03:40:00 9.7 C 93 % 8.62 C
3214 22-02-2019 03:45:00 9.7 C 92 % 8.46 C
3215 22-02-2019 03:50:00 9.7 C 92 % 8.46 C
3216 22-02-2019 03:55:00 9.7 C 92 % 8.46 C
3217 22-02-2019 04:00:00 9.8 C 92 % 8.56 C
3218 22-02-2019 04:05:00 9.8 C 92 % 8.56 C
3219 22-02-2019 04:10:00 9.8 C 92 % 8.56 C
3220 22-02-2019 04:15:00 9.8 C 93 % 8.72 C
3221 22-02-2019 04:20:00 9.8 C 93 % 8.72 C
3222 22-02-2019 04:25:00 9.7 C 93 % 8.62 C
3223 22-02-2019 04:30:00 9.7 C 93 % 8.62 C
3224 22-02-2019 04:35:00 9.6 C 93 % 8.53 C
3225 22-02-2019 04:40:00 9.6 C 93 % 8.53 C
Sensor: Nr:Datum:Temp:Feuchte:Taupunkt:
Aussen-T/F 3226 22-02-2019 04:45:00 9.5 C 93 % 8.43 C
3227 22-02-2019 04:50:00 9.5 C 94 % 8.58 C
3228 22-02-2019 04:55:00 9.4 C 94 % 8.48 C
3229 22-02-2019 05:00:00 9.4 C 94 % 8.48 C
3230 22-02-2019 05:05:00 9.4 C 94 % 8.48 C
3231 22-02-2019 05:10:00 9.4 C 94 % 8.48 C
3232 22-02-2019 05:15:00 9.4 C 94 % 8.48 C
3233 22-02-2019 05:20:00 9.4 C 94 % 8.48 C
3234 22-02-2019 05:25:00 9.3 C 94 % 8.39 C
3235 22-02-2019 05:30:00 9.3 C 94 % 8.39 C
3236 22-02-2019 05:35:00 9.3 C 94 % 8.39 C
3237 22-02-2019 05:40:00 9.3 C 94 % 8.39 C
3238 22-02-2019 05:45:00 9.3 C 95 % 8.54 C
3239 22-02-2019 05:50:00 9.3 C 95 % 8.54 C
3240 22-02-2019 05:55:00 9.3 C 95 % 8.54 C
3241 22-02-2019 06:00:00 9.3 C 95 % 8.54 C
3242 22-02-2019 06:05:00 9.3 C 95 % 8.54 C
3243 22-02-2019 06:10:00 9.3 C 95 % 8.54 C
3244 22-02-2019 06:15:00 9.4 C 95 % 8.64 C
3245 22-02-2019 06:20:00 9.4 C 95 % 8.64 C
3246 22-02-2019 06:25:00 9.4 C 95 % 8.64 C
3247 22-02-2019 06:30:00 9.4 C 95 % 8.64 C
3248 22-02-2019 06:35:00 9.4 C 95 % 8.64 C
3249 22-02-2019 06:40:00 9.3 C 95 % 8.54 C
3250 22-02-2019 06:45:00 9.3 C 95 % 8.54 C
Sensor: Nr:Datum:Temp:Feuchte:Taupunkt:
Aussen-T/F 3251 22-02-2019 06:50:00 9.3 C 95 % 8.54 C
3252 22-02-2019 06:55:00 9.3 C 95 % 8.54 C
3253 22-02-2019 07:00:00 9.3 C 95 % 8.54 C
3254 22-02-2019 07:05:00 9.3 C 95 % 8.54 C
3255 22-02-2019 07:10:00 9.3 C 95 % 8.54 C
3256 22-02-2019 07:15:00 9.2 C 95 % 8.44 C
3257 22-02-2019 07:20:00 9.2 C 95 % 8.44 C
3258 22-02-2019 07:25:00 9.2 C 95 % 8.44 C
3259 22-02-2019 07:30:00 9.2 C 95 % 8.44 C
3260 22-02-2019 07:35:00 9.2 C 96 % 8.6 C
3261 22-02-2019 07:40:00 9.2 C 96 % 8.6 C
3262 22-02-2019 07:45:00 9.2 C 96 % 8.6 C
3263 22-02-2019 07:50:00 9.2 C 96 % 8.6 C
3264 22-02-2019 07:55:00 9.2 C 96 % 8.6 C
3265 22-02-2019 08:00:00 9.1 C 96 % 8.5 C
3266 22-02-2019 08:05:00 9.1 C 96 % 8.5 C
3267 22-02-2019 08:10:00 9.1 C 96 % 8.5 C
3268 22-02-2019 08:15:00 9.1 C 96 % 8.5 C
3269 22-02-2019 08:20:00 9.1 C 96 % 8.5 C
3270 22-02-2019 08:25:00 9.1 C 96 % 8.5 C
3271 22-02-2019 08:30:00 9.2 C 96 % 8.6 C
3272 22-02-2019 08:35:00 9.2 C 96 % 8.6 C
3273 22-02-2019 08:40:00 9.2 C 96 % 8.6 C
3274 22-02-2019 08:45:00 9.2 C 96 % 8.6 C
3275 22-02-2019 08:50:00 9.3 C 96 % 8.7 C
Sensor: Nr:Datum:Temp:Feuchte:Taupunkt:
Aussen-T/F 3276 22-02-2019 08:55:00 9.3 C 96 % 8.7 C
3277 22-02-2019 09:00:00 9.4 C 96 % 8.8 C
3278 22-02-2019 09:05:00 9.4 C 96 % 8.8 C
3279 22-02-2019 09:10:00 9.5 C 96 % 8.89 C
3280 22-02-2019 09:15:00 9.5 C 96 % 8.89 C
3281 22-02-2019 09:20:00 9.5 C 96 % 8.89 C
3282 22-02-2019 09:25:00 9.5 C 96 % 8.89 C
3283 22-02-2019 09:30:00 9.5 C 96 % 8.89 C
3284 22-02-2019 09:35:00 9.5 C 96 % 8.89 C
3285 22-02-2019 09:40:00 9.5 C 96 % 8.89 C
3286 22-02-2019 09:45:00 9.6 C 96 % 8.99 C
3287 22-02-2019 09:50:00 9.6 C 96 % 8.99 C
3288 22-02-2019 09:55:00 9.6 C 96 % 8.99 C
3289 22-02-2019 10:00:00 9.7 C 96 % 9.09 C
3290 22-02-2019 10:05:00 9.7 C 96 % 9.09 C
3291 22-02-2019 10:10:00 9.8 C 96 % 9.19 C
3292 22-02-2019 10:15:00 9.8 C 96 % 9.19 C
3293 22-02-2019 10:20:00 9.8 C 96 % 9.19 C
3294 22-02-2019 10:25:00 9.9 C 96 % 9.29 C
3295 22-02-2019 10:30:00 9.9 C 96 % 9.29 C
3296 22-02-2019 10:35:00 10 C 96 % 9.39 C
3297 22-02-2019 10:40:00 10.1 C 96 % 9.49 C
3298 22-02-2019 10:45:00 10.1 C 96 % 9.49 C
3299 22-02-2019 10:50:00 10.2 C 96 % 9.59 C
3300 22-02-2019 10:55:00 10.2 C 96 % 9.59 C
Sensor: Nr:Datum:Temp:Feuchte:Taupunkt:
Aussen-T/F 3301 22-02-2019 11:00:00 10.3 C 96 % 9.69 C
3302 22-02-2019 11:05:00 10.3 C 96 % 9.69 C
3303 22-02-2019 11:10:00 10.5 C 96 % 9.89 C
3304 22-02-2019 11:15:00 10.6 C 96 % 9.99 C
3305 22-02-2019 11:20:00 10.6 C 96 % 9.99 C
3306 22-02-2019 11:25:00 10.6 C 95 % 9.83 C
3307 22-02-2019 11:30:00 10.7 C 95 % 9.93 C
3308 22-02-2019 11:35:00 10.7 C 95 % 9.93 C
3309 22-02-2019 11:40:00 10.7 C 94 % 9.77 C
3310 22-02-2019 11:45:00 10.8 C 93 % 9.71 C
3311 22-02-2019 11:50:00 10.9 C 93 % 9.81 C
3312 22-02-2019 11:55:00 11 C 93 % 9.91 C
3313 22-02-2019 12:00:00 11.2 C 92 % 9.95 C
3314 22-02-2019 12:05:00 11.2 C 91 % 9.79 C
3315 22-02-2019 12:10:00 11.3 C 91 % 9.89 C
3316 22-02-2019 12:15:00 11.4 C 89 % 9.65 C
3317 22-02-2019 12:20:00 11.4 C 89 % 9.65 C
3318 22-02-2019 12:25:00 11.6 C 88 % 9.68 C
3319 22-02-2019 12:30:00 11.7 C 88 % 9.78 C
3320 22-02-2019 12:35:00 11.8 C 87 % 9.71 C
3321 22-02-2019 12:40:00 11.8 C 85 % 9.36 C
3322 22-02-2019 12:45:00 11.9 C 85 % 9.46 C
3323 22-02-2019 12:50:00 11.9 C 85 % 9.46 C
3324 22-02-2019 12:55:00 12 C 85 % 9.56 C
3325 22-02-2019 13:00:00 12.1 C 85 % 9.66 C
Sensor: Nr:Datum:Temp:Feuchte:Taupunkt:
Aussen-T/F 3326 22-02-2019 13:05:00 12.1 C 84 % 9.48 C
3327 22-02-2019 13:10:00 12.1 C 84 % 9.48 C
3328 22-02-2019 13:15:00 12.1 C 84 % 9.48 C
3329 22-02-2019 13:20:00 12.2 C 84 % 9.58 C
3330 22-02-2019 13:25:00 12.5 C 82 % 9.51 C
3331 22-02-2019 13:30:00 12.8 C 82 % 9.81 C
3332 22-02-2019 13:35:00 12.8 C 80 % 9.44 C
3333 22-02-2019 13:40:00 12.8 C 80 % 9.44 C
3334 22-02-2019 13:45:00 12.8 C 80 % 9.44 C
3335 22-02-2019 13:50:00 12.7 C 80 % 9.34 C
3336 22-02-2019 13:55:00 12.6 C 80 % 9.25 C
3337 22-02-2019 14:00:00 12.6 C 80 % 9.25 C
3338 22-02-2019 14:05:00 12.6 C 80 % 9.25 C
3339 22-02-2019 14:10:00 12.6 C 79 % 9.06 C
3340 22-02-2019 14:15:00 12.7 C 79 % 9.16 C
3341 22-02-2019 14:20:00 12.7 C 78 % 8.97 C
3342 22-02-2019 14:25:00 12.8 C 78 % 9.06 C
3343 22-02-2019 14:30:00 12.8 C 78 % 9.06 C
3344 22-02-2019 14:35:00 12.9 C 79 % 9.35 C
3345 22-02-2019 14:40:00 13 C 76 % 8.87 C
3346 22-02-2019 14:45:00 13.1 C 76 % 8.97 C
3347 22-02-2019 14:50:00 13.1 C 76 % 8.97 C
3348 22-02-2019 14:55:00 13.1 C 76 % 8.97 C
3349 22-02-2019 15:00:00 13.2 C 75 % 8.87 C
3350 22-02-2019 15:05:00 13.3 C 76 % 9.16 C
Sensor: Nr:Datum:Temp:Feuchte:Taupunkt:
Aussen-T/F 3351 22-02-2019 15:10:00 13.3 C 75 % 8.97 C
3352 22-02-2019 15:15:00 13.4 C 74 % 8.87 C
3353 22-02-2019 15:20:00 13.4 C 74 % 8.87 C
3354 22-02-2019 15:25:00 13.4 C 73 % 8.66 C
3355 22-02-2019 15:30:00 13.3 C 74 % 8.77 C
3356 22-02-2019 15:35:00 13.3 C 74 % 8.77 C
3357 22-02-2019 15:40:00 13.2 C 74 % 8.67 C
3358 22-02-2019 15:45:00 13.2 C 74 % 8.67 C
3359 22-02-2019 15:50:00 13.2 C 75 % 8.87 C
3360 22-02-2019 15:55:00 13.1 C 74 % 8.58 C
3361 22-02-2019 16:00:00 13.1 C 74 % 8.58 C
3362 22-02-2019 16:05:00 13.1 C 75 % 8.77 C
3363 22-02-2019 16:10:00 13.1 C 75 % 8.77 C
3364 22-02-2019 16:15:00 12.9 C 74 % 8.38 C
3365 22-02-2019 16:20:00 12.9 C 73 % 8.18 C
3366 22-02-2019 16:25:00 12.8 C 73 % 8.09 C
3367 22-02-2019 16:30:00 12.8 C 72 % 7.88 C
3368 22-02-2019 16:35:00 12.7 C 72 % 7.79 C
3369 22-02-2019 16:40:00 12.7 C 72 % 7.79 C
3370 22-02-2019 16:45:00 12.7 C 74 % 8.19 C
3371 22-02-2019 16:50:00 12.7 C 74 % 8.19 C
3372 22-02-2019 16:55:00 12.6 C 73 % 7.89 C
3373 22-02-2019 17:00:00 12.5 C 74 % 8 C
3374 22-02-2019 17:05:00 12.4 C 74 % 7.9 C
3375 22-02-2019 17:10:00 12.3 C 75 % 8 C
Sensor: Nr:Datum:Temp:Feuchte:Taupunkt:
Aussen-T/F 3376 22-02-2019 17:15:00 12.2 C 73 % 7.51 C
3377 22-02-2019 17:20:00 12.2 C 74 % 7.71 C
3378 22-02-2019 17:25:00 12.1 C 76 % 8 C
3379 22-02-2019 17:30:00 11.9 C 77 % 8 C
3380 22-02-2019 17:35:00 11.7 C 77 % 7.81 C
3381 22-02-2019 17:40:00 11.4 C 78 % 7.71 C
3382 22-02-2019 17:45:00 11.3 C 78 % 7.61 C
3383 22-02-2019 17:50:00 11.1 C 79 % 7.6 C
3384 22-02-2019 17:55:00 10.8 C 79 % 7.31 C
3385 22-02-2019 18:00:00 10.4 C 80 % 7.1 C
3386 22-02-2019 18:05:00 10.1 C 80 % 6.81 C
3387 22-02-2019 18:10:00 9.8 C 81 % 6.7 C
3388 22-02-2019 18:15:00 9.4 C 82 % 6.49 C
3389 22-02-2019 18:20:00 9.2 C 82 % 6.29 C
3390 22-02-2019 18:25:00 9 C 83 % 6.27 C
3391 22-02-2019 18:30:00 8.8 C 84 % 6.25 C
3392 22-02-2019 18:35:00 8.7 C 84 % 6.15 C
3393 22-02-2019 18:40:00 8.6 C 85 % 6.23 C
3394 22-02-2019 18:45:00 8.4 C 85 % 6.03 C
3395 22-02-2019 18:50:00 8.3 C 85 % 5.93 C
3396 22-02-2019 18:55:00 8.2 C 86 % 6 C
3397 22-02-2019 19:00:00 8.2 C 86 % 6 C
3398 22-02-2019 19:05:00 8.3 C 86 % 6.1 C
3399 22-02-2019 19:10:00 8.3 C 87 % 6.27 C
3400 22-02-2019 19:15:00 8.4 C 87 % 6.37 C
Sensor: Nr:Datum:Temp:Feuchte:Taupunkt:
Aussen-T/F 3401 22-02-2019 19:20:00 8.5 C 86 % 6.3 C
3402 22-02-2019 19:25:00 8.6 C 86 % 6.39 C
3403 22-02-2019 19:30:00 8.6 C 86 % 6.39 C
3404 22-02-2019 19:35:00 8.6 C 86 % 6.39 C
3405 22-02-2019 19:40:00 8.7 C 86 % 6.49 C
3406 22-02-2019 19:45:00 8.7 C 86 % 6.49 C
3407 22-02-2019 19:50:00 8.8 C 86 % 6.59 C
3408 22-02-2019 19:55:00 8.9 C 86 % 6.69 C
3409 22-02-2019 20:00:00 8.9 C 85 % 6.52 C
3410 22-02-2019 20:05:00 9 C 85 % 6.62 C
3411 22-02-2019 20:10:00 9 C 85 % 6.62 C
3412 22-02-2019 20:15:00 9.1 C 85 % 6.72 C
3413 22-02-2019 20:20:00 9.1 C 85 % 6.72 C
3414 22-02-2019 20:25:00 9.1 C 85 % 6.72 C
3415 22-02-2019 20:30:00 9.1 C 85 % 6.72 C
3416 22-02-2019 20:35:00 9 C 85 % 6.62 C
3417 22-02-2019 20:40:00 8.9 C 86 % 6.69 C
3418 22-02-2019 20:45:00 8.9 C 86 % 6.69 C
3419 22-02-2019 20:50:00 8.9 C 86 % 6.69 C
3420 22-02-2019 20:55:00 8.9 C 86 % 6.69 C
3421 22-02-2019 21:00:00 8.8 C 86 % 6.59 C
3422 22-02-2019 21:05:00 8.8 C 86 % 6.59 C
3423 22-02-2019 21:10:00 8.8 C 86 % 6.59 C
3424 22-02-2019 21:15:00 8.8 C 86 % 6.59 C
3425 22-02-2019 21:20:00 8.7 C 87 % 6.66 C
Sensor: Nr:Datum:Temp:Feuchte:Taupunkt:
Aussen-T/F 3426 22-02-2019 21:25:00 8.7 C 86 % 6.49 C
3427 22-02-2019 21:30:00 8.6 C 86 % 6.39 C
3428 22-02-2019 21:35:00 8.4 C 86 % 6.2 C
3429 22-02-2019 21:40:00 8.3 C 86 % 6.1 C
3430 22-02-2019 21:45:00 8.1 C 86 % 5.9 C
3431 22-02-2019 21:50:00 7.9 C 86 % 5.71 C
3432 22-02-2019 21:55:00 7.8 C 87 % 5.78 C
3433 22-02-2019 22:00:00 7.6 C 87 % 5.58 C
3434 22-02-2019 22:05:00 7.4 C 88 % 5.55 C
3435 22-02-2019 22:10:00 7.3 C 88 % 5.45 C
3436 22-02-2019 22:15:00 7.2 C 88 % 5.35 C
3437 22-02-2019 22:20:00 7.1 C 89 % 5.41 C
3438 22-02-2019 22:25:00 7 C 89 % 5.31 C
3439 22-02-2019 22:30:00 6.9 C 89 % 5.22 C
3440 22-02-2019 22:35:00 6.8 C 89 % 5.12 C
3441 22-02-2019 22:40:00 6.7 C 90 % 5.18 C
3442 22-02-2019 22:45:00 6.6 C 90 % 5.08 C
3443 22-02-2019 22:50:00 6.4 C 90 % 4.88 C
3444 22-02-2019 22:55:00 6.3 C 90 % 4.78 C
3445 22-02-2019 23:00:00 6.2 C 90 % 4.69 C
3446 22-02-2019 23:05:00 6.1 C 91 % 4.74 C
3447 22-02-2019 23:10:00 6.1 C 91 % 4.74 C
3448 22-02-2019 23:15:00 6 C 91 % 4.65 C
3449 22-02-2019 23:20:00 6 C 92 % 4.8 C
3450 22-02-2019 23:25:00 5.9 C 92 % 4.7 C
Sensor: Nr:Datum:Temp:Feuchte:Taupunkt:
Aussen-T/F 3451 22-02-2019 23:30:00 5.9 C 92 % 4.7 C
3452 22-02-2019 23:35:00 5.9 C 92 % 4.7 C
3453 22-02-2019 23:40:00 5.9 C 92 % 4.7 C
3454 22-02-2019 23:45:00 5.9 C 92 % 4.7 C
3455 22-02-2019 23:50:00 5.8 C 92 % 4.6 C
3456 22-02-2019 23:55:00 5.7 C 92 % 4.5 C
3457 23-02-2019 00:00:00 5.7 C 92 % 4.5 C
3458 23-02-2019 00:05:00 5.7 C 92 % 4.5 C
3459 23-02-2019 00:10:00 5.6 C 92 % 4.41 C
3460 23-02-2019 00:15:00 5.4 C 92 % 4.21 C
3461 23-02-2019 00:20:00 5.3 C 92 % 4.11 C
3462 23-02-2019 00:25:00 5.3 C 92 % 4.11 C
3463 23-02-2019 00:30:00 5.2 C 92 % 4.01 C
3464 23-02-2019 00:35:00 5.2 C 92 % 4.01 C
3465 23-02-2019 00:40:00 5.2 C 93 % 4.16 C
3466 23-02-2019 00:45:00 5.1 C 93 % 4.06 C
3467 23-02-2019 00:50:00 5.1 C 93 % 4.06 C
3468 23-02-2019 00:55:00 5 C 93 % 3.96 C
3469 23-02-2019 01:00:00 4.9 C 93 % 3.87 C
3470 23-02-2019 01:05:00 4.8 C 93 % 3.77 C
3471 23-02-2019 01:10:00 4.8 C 93 % 3.77 C
3472 23-02-2019 01:15:00 4.7 C 93 % 3.67 C
3473 23-02-2019 01:20:00 4.7 C 93 % 3.67 C
3474 23-02-2019 01:25:00 4.6 C 93 % 3.57 C
3475 23-02-2019 01:30:00 4.4 C 93 % 3.37 C
Sensor: Nr:Datum:Temp:Feuchte:Taupunkt:
Aussen-T/F 3476 23-02-2019 01:35:00 4.4 C 93 % 3.37 C
3477 23-02-2019 01:40:00 4.4 C 93 % 3.37 C
3478 23-02-2019 01:45:00 4.3 C 94 % 3.42 C
3479 23-02-2019 01:50:00 4.3 C 94 % 3.42 C
3480 23-02-2019 01:55:00 4.3 C 94 % 3.42 C
3481 23-02-2019 02:00:00 4.3 C 94 % 3.42 C
3482 23-02-2019 02:05:00 4.3 C 94 % 3.42 C
3483 23-02-2019 02:10:00 4.4 C 94 % 3.52 C
3484 23-02-2019 02:15:00 4.4 C 94 % 3.52 C
3485 23-02-2019 02:20:00 4.3 C 94 % 3.42 C
3486 23-02-2019 02:25:00 4.3 C 94 % 3.42 C
3487 23-02-2019 02:30:00 4.2 C 94 % 3.32 C
3488 23-02-2019 02:35:00 4.1 C 94 % 3.22 C
3489 23-02-2019 02:40:00 4 C 94 % 3.12 C
3490 23-02-2019 02:45:00 4 C 94 % 3.12 C
3491 23-02-2019 02:50:00 4 C 94 % 3.12 C
3492 23-02-2019 02:55:00 3.9 C 94 % 3.02 C
3493 23-02-2019 03:00:00 3.8 C 94 % 2.93 C
3494 23-02-2019 03:05:00 3.8 C 95 % 3.07 C
3495 23-02-2019 03:10:00 3.8 C 95 % 3.07 C
3496 23-02-2019 03:15:00 3.8 C 95 % 3.07 C
3497 23-02-2019 03:20:00 3.9 C 95 % 3.17 C
3498 23-02-2019 03:25:00 3.8 C 95 % 3.07 C
3499 23-02-2019 03:30:00 3.7 C 95 % 2.98 C
3500 23-02-2019 03:35:00 3.7 C 95 % 2.98 C
Sensor: Nr:Datum:Temp:Feuchte:Taupunkt:
Aussen-T/F 3501 23-02-2019 03:40:00 3.8 C 95 % 3.07 C
3502 23-02-2019 03:45:00 3.8 C 95 % 3.07 C
3503 23-02-2019 03:50:00 3.9 C 95 % 3.17 C
3504 23-02-2019 03:55:00 4 C 95 % 3.27 C
3505 23-02-2019 04:00:00 4.1 C 95 % 3.37 C
3506 23-02-2019 04:05:00 4.2 C 95 % 3.47 C
3507 23-02-2019 04:10:00 4.2 C 95 % 3.47 C
3508 23-02-2019 04:15:00 4.3 C 95 % 3.57 C
3509 23-02-2019 04:20:00 4.3 C 95 % 3.57 C
3510 23-02-2019 04:25:00 4.3 C 95 % 3.57 C
3511 23-02-2019 04:30:00 4.4 C 95 % 3.67 C
3512 23-02-2019 04:35:00 4.3 C 95 % 3.57 C
3513 23-02-2019 04:40:00 4.3 C 95 % 3.57 C
3514 23-02-2019 04:45:00 4.3 C 95 % 3.57 C
3515 23-02-2019 04:50:00 4.3 C 95 % 3.57 C
3516 23-02-2019 04:55:00 4.2 C 95 % 3.47 C
3517 23-02-2019 05:00:00 4.2 C 95 % 3.47 C
3518 23-02-2019 05:05:00 4.2 C 95 % 3.47 C
3519 23-02-2019 05:10:00 4.3 C 95 % 3.57 C
3520 23-02-2019 05:15:00 4.3 C 95 % 3.57 C
3521 23-02-2019 05:20:00 4.5 C 94 % 3.62 C
3522 23-02-2019 05:25:00 4.6 C 94 % 3.72 C
3523 23-02-2019 05:30:00 4.6 C 93 % 3.57 C
3524 23-02-2019 05:35:00 4.7 C 93 % 3.67 C
3525 23-02-2019 05:40:00 4.7 C 93 % 3.67 C
Sensor: Nr:Datum:Temp:Feuchte:Taupunkt:
Aussen-T/F 3526 23-02-2019 05:45:00 4.7 C 92 % 3.51 C
3527 23-02-2019 05:50:00 4.7 C 92 % 3.51 C
3528 23-02-2019 05:55:00 4.8 C 91 % 3.46 C
3529 23-02-2019 06:00:00 4.8 C 91 % 3.46 C
3530 23-02-2019 06:05:00 4.8 C 91 % 3.46 C
3531 23-02-2019 06:10:00 4.9 C 90 % 3.4 C
3532 23-02-2019 06:15:00 4.8 C 91 % 3.46 C
3533 23-02-2019 06:20:00 4.8 C 91 % 3.46 C
3534 23-02-2019 06:25:00 4.8 C 89 % 3.14 C
3535 23-02-2019 06:30:00 4.8 C 89 % 3.14 C
3536 23-02-2019 06:35:00 4.8 C 89 % 3.14 C
3537 23-02-2019 06:40:00 4.9 C 89 % 3.24 C
3538 23-02-2019 06:45:00 4.9 C 90 % 3.4 C
3539 23-02-2019 06:50:00 4.9 C 89 % 3.24 C
3540 23-02-2019 06:55:00 4.8 C 89 % 3.14 C
3541 23-02-2019 07:00:00 4.8 C 88 % 2.99 C
3542 23-02-2019 07:05:00 4.8 C 88 % 2.99 C
3543 23-02-2019 07:10:00 4.8 C 88 % 2.99 C
3544 23-02-2019 07:15:00 4.7 C 87 % 2.73 C
3545 23-02-2019 07:20:00 4.8 C 87 % 2.82 C
3546 23-02-2019 07:25:00 4.8 C 87 % 2.82 C
3547 23-02-2019 07:30:00 4.8 C 87 % 2.82 C
3548 23-02-2019 07:35:00 4.8 C 86 % 2.66 C
3549 23-02-2019 07:40:00 4.8 C 86 % 2.66 C
3550 23-02-2019 07:45:00 4.8 C 87 % 2.82 C
Sensor: Nr:Datum:Temp:Feuchte:Taupunkt:
Aussen-T/F 3551 23-02-2019 07:50:00 4.8 C 86 % 2.66 C
3552 23-02-2019 07:55:00 4.8 C 86 % 2.66 C
3553 23-02-2019 08:00:00 4.8 C 86 % 2.66 C
3554 23-02-2019 08:05:00 4.8 C 87 % 2.82 C
3555 23-02-2019 08:10:00 4.8 C 86 % 2.66 C
3556 23-02-2019 08:15:00 4.8 C 85 % 2.5 C
3557 23-02-2019 08:20:00 4.8 C 85 % 2.5 C
3558 23-02-2019 08:25:00 4.8 C 85 % 2.5 C
3559 23-02-2019 08:30:00 4.9 C 85 % 2.6 C
3560 23-02-2019 08:35:00 4.9 C 85 % 2.6 C
3561 23-02-2019 08:40:00 4.9 C 84 % 2.43 C
3562 23-02-2019 08:45:00 4.9 C 84 % 2.43 C
3563 23-02-2019 08:50:00 4.9 C 84 % 2.43 C
3564 23-02-2019 08:55:00 4.9 C 84 % 2.43 C
3565 23-02-2019 09:00:00 4.9 C 84 % 2.43 C
3566 23-02-2019 09:05:00 4.9 C 83 % 2.26 C
3567 23-02-2019 09:10:00 4.8 C 83 % 2.16 C
3568 23-02-2019 09:15:00 4.8 C 83 % 2.16 C
3569 23-02-2019 09:20:00 4.8 C 84 % 2.33 C
3570 23-02-2019 09:25:00 4.8 C 84 % 2.33 C
3571 23-02-2019 09:30:00 4.8 C 84 % 2.33 C
3572 23-02-2019 09:35:00 4.7 C 84 % 2.23 C
3573 23-02-2019 09:40:00 4.7 C 83 % 2.07 C
3574 23-02-2019 09:45:00 4.7 C 83 % 2.07 C
3575 23-02-2019 09:50:00 4.7 C 83 % 2.07 C
Sensor: Nr:Datum:Temp:Feuchte:Taupunkt:
Aussen-T/F 3576 23-02-2019 09:55:00 4.7 C 83 % 2.07 C
3577 23-02-2019 10:00:00 4.7 C 83 % 2.07 C
3578 23-02-2019 10:05:00 4.7 C 83 % 2.07 C
3579 23-02-2019 10:10:00 4.7 C 83 % 2.07 C
3580 23-02-2019 10:15:00 4.8 C 83 % 2.16 C
3581 23-02-2019 10:20:00 4.8 C 82 % 1.99 C
3582 23-02-2019 10:25:00 4.8 C 82 % 1.99 C
3583 23-02-2019 10:30:00 4.9 C 82 % 2.09 C
3584 23-02-2019 10:35:00 5 C 81 % 2.02 C
3585 23-02-2019 10:40:00 5.1 C 81 % 2.12 C
3586 23-02-2019 10:45:00 5.2 C 81 % 2.21 C
3587 23-02-2019 10:50:00 5.3 C 81 % 2.31 C
3588 23-02-2019 10:55:00 5.4 C 80 % 2.23 C
3589 23-02-2019 11:00:00 5.4 C 81 % 2.41 C
3590 23-02-2019 11:05:00 5.6 C 81 % 2.6 C
3591 23-02-2019 11:10:00 5.7 C 80 % 2.53 C
3592 23-02-2019 11:15:00 5.8 C 80 % 2.62 C
3593 23-02-2019 11:20:00 5.9 C 80 % 2.72 C
3594 23-02-2019 11:25:00 6.1 C 80 % 2.92 C
3595 23-02-2019 11:30:00 6.2 C 79 % 2.84 C
3596 23-02-2019 11:35:00 6.3 C 79 % 2.93 C
3597 23-02-2019 11:40:00 6.4 C 78 % 2.85 C
3598 23-02-2019 11:45:00 6.6 C 77 % 2.86 C
3599 23-02-2019 11:50:00 6.7 C 77 % 2.96 C
3600 23-02-2019 11:55:00 6.8 C 76 % 2.87 C
Sensor: Nr:Datum:Temp:Feuchte:Taupunkt:
Aussen-T/F 3601 23-02-2019 12:00:00 6.9 C 76 % 2.97 C
3602 23-02-2019 12:05:00 7.1 C 75 % 2.98 C
3603 23-02-2019 12:10:00 7.2 C 74 % 2.89 C
3604 23-02-2019 12:15:00 7.3 C 74 % 2.98 C
3605 23-02-2019 12:20:00 7.5 C 73 % 2.98 C
3606 23-02-2019 12:25:00 7.7 C 72 % 2.98 C
3607 23-02-2019 12:30:00 7.8 C 71 % 2.88 C
3608 23-02-2019 12:35:00 7.8 C 71 % 2.88 C
3609 23-02-2019 12:40:00 7.9 C 70 % 2.78 C
3610 23-02-2019 12:45:00 8 C 71 % 3.07 C
3611 23-02-2019 12:50:00 8.1 C 70 % 2.97 C
3612 23-02-2019 12:55:00 8.2 C 71 % 3.26 C
3613 23-02-2019 13:00:00 8.3 C 69 % 2.96 C
3614 23-02-2019 13:05:00 8.4 C 68 % 2.85 C
3615 23-02-2019 13:10:00 8.4 C 69 % 3.05 C
3616 23-02-2019 13:15:00 8.7 C 68 % 3.13 C
3617 23-02-2019 13:20:00 8.9 C 68 % 3.32 C
3618 23-02-2019 13:25:00 9.1 C 67 % 3.31 C
3619 23-02-2019 13:30:00 9.3 C 66 % 3.28 C
3620 23-02-2019 13:35:00 9.3 C 66 % 3.28 C
3621 23-02-2019 13:40:00 9.4 C 67 % 3.59 C
3622 23-02-2019 13:45:00 9.6 C 65 % 3.35 C
3623 23-02-2019 13:50:00 9.6 C 65 % 3.35 C
3624 23-02-2019 13:55:00 9.7 C 64 % 3.23 C
3625 23-02-2019 14:00:00 9.7 C 64 % 3.23 C
Sensor: Nr:Datum:Temp:Feuchte:Taupunkt:
Aussen-T/F 3626 23-02-2019 14:05:00 9.7 C 63 % 3.01 C
3627 23-02-2019 14:10:00 9.7 C 64 % 3.23 C
3628 23-02-2019 14:15:00 9.8 C 63 % 3.1 C
3629 23-02-2019 14:20:00 9.8 C 62 % 2.88 C
3630 23-02-2019 14:25:00 9.9 C 62 % 2.97 C
3631 23-02-2019 14:30:00 10 C 61 % 2.84 C
3632 23-02-2019 14:35:00 10.1 C 60 % 2.7 C
3633 23-02-2019 14:40:00 10.2 C 59 % 2.56 C
3634 23-02-2019 14:45:00 10.3 C 54 % 1.41 C
3635 23-02-2019 14:50:00 10.4 C 52 % 0.98 C
3636 23-02-2019 14:55:00 10.6 C 49 % 0.35 C
3637 23-02-2019 15:00:00 10.6 C 47 % -0.23 C
3638 23-02-2019 15:05:00 10.7 C 46 % -0.43 C
3639 23-02-2019 15:10:00 10.8 C 48 % 0.24 C
3640 23-02-2019 15:15:00 10.8 C 46 % -0.34 C
3641 23-02-2019 15:20:00 10.8 C 46 % -0.34 C
3642 23-02-2019 15:25:00 10.8 C 46 % -0.34 C
3643 23-02-2019 15:30:00 10.8 C 45 % -0.64 C
3644 23-02-2019 15:35:00 10.8 C 42 % -1.58 C
3645 23-02-2019 15:40:00 10.8 C 42 % -1.58 C
3646 23-02-2019 15:45:00 10.8 C 43 % -1.26 C
3647 23-02-2019 15:50:00 10.8 C 42 % -1.58 C
3648 23-02-2019 15:55:00 10.9 C 44 % -0.86 C
3649 23-02-2019 16:00:00 10.9 C 43 % -1.17 C
3650 23-02-2019 16:05:00 10.9 C 43 % -1.17 C
Sensor: Nr:Datum:Temp:Feuchte:Taupunkt:
Aussen-T/F 3651 23-02-2019 16:10:00 11.1 C 46 % -0.07 C
3652 23-02-2019 16:15:00 11.1 C 52 % 1.63 C
3653 23-02-2019 16:20:00 11 C 43 % -1.08 C
3654 23-02-2019 16:25:00 10.9 C 42 % -1.49 C
3655 23-02-2019 16:30:00 10.8 C 44 % -0.95 C
3656 23-02-2019 16:35:00 10.8 C 47 % -0.04 C
3657 23-02-2019 16:40:00 10.6 C 46 % -0.52 C
3658 23-02-2019 16:45:00 10.4 C 52 % 0.98 C
3659 23-02-2019 16:50:00 10.2 C 53 % 1.06 C
3660 23-02-2019 16:55:00 9.9 C 54 % 1.04 C
3661 23-02-2019 17:00:00 9.6 C 56 % 1.27 C
3662 23-02-2019 17:05:00 9.3 C 59 % 1.71 C
3663 23-02-2019 17:10:00 8.9 C 61 % 1.8 C
3664 23-02-2019 17:15:00 8.7 C 62 % 1.84 C
3665 23-02-2019 17:20:00 8.3 C 62 % 1.46 C
3666 23-02-2019 17:25:00 8 C 64 % 1.62 C
3667 23-02-2019 17:30:00 7.8 C 64 % 1.43 C
3668 23-02-2019 17:35:00 7.5 C 65 % 1.36 C
3669 23-02-2019 17:40:00 7.3 C 65 % 1.17 C
3670 23-02-2019 17:45:00 7.1 C 66 % 1.19 C
3671 23-02-2019 17:50:00 6.8 C 67 % 1.11 C
3672 23-02-2019 17:55:00 6.6 C 67 % 0.92 C
3673 23-02-2019 18:00:00 6.4 C 69 % 1.14 C
3674 23-02-2019 18:05:00 6.2 C 70 % 1.15 C
3675 23-02-2019 18:10:00 5.9 C 70 % 0.86 C
Sensor: Nr:Datum:Temp:Feuchte:Taupunkt:
Aussen-T/F 3676 23-02-2019 18:15:00 5.7 C 70 % 0.67 C
3677 23-02-2019 18:20:00 5.6 C 71 % 0.77 C
3678 23-02-2019 18:25:00 5.4 C 71 % 0.58 C
3679 23-02-2019 18:30:00 5.3 C 71 % 0.48 C
3680 23-02-2019 18:35:00 5.2 C 71 % 0.38 C
3681 23-02-2019 18:40:00 5.1 C 72 % 0.48 C
3682 23-02-2019 18:45:00 5 C 72 % 0.38 C
3683 23-02-2019 18:50:00 4.9 C 72 % 0.29 C
3684 23-02-2019 18:55:00 4.8 C 72 % 0.19 C
3685 23-02-2019 19:00:00 4.7 C 73 % 0.28 C
3686 23-02-2019 19:05:00 4.7 C 73 % 0.28 C
3687 23-02-2019 19:10:00 4.6 C 73 % 0.19 C
3688 23-02-2019 19:15:00 4.6 C 74 % 0.38 C
3689 23-02-2019 19:20:00 4.5 C 74 % 0.28 C
3690 23-02-2019 19:25:00 4.4 C 73 % 0 C
3691 23-02-2019 19:30:00 4.3 C 74 % 0.09 C
3692 23-02-2019 19:35:00 4.3 C 75 % 0.27 C
3693 23-02-2019 19:40:00 4.2 C 75 % 0.17 C
3694 23-02-2019 19:45:00 4.1 C 74 % -0.11 C
3695 23-02-2019 19:50:00 4.1 C 75 % 0.08 C
3696 23-02-2019 19:55:00 3.9 C 75 % -0.12 C
3697 23-02-2019 20:00:00 3.9 C 75 % -0.12 C
3698 23-02-2019 20:05:00 3.8 C 75 % -0.21 C
3699 23-02-2019 20:10:00 3.7 C 75 % -0.31 C
3700 23-02-2019 20:15:00 3.7 C 75 % -0.31 C
Sensor: Nr:Datum:Temp:Feuchte:Taupunkt:
Aussen-T/F 3701 23-02-2019 20:20:00 3.6 C 75 % -0.41 C
3702 23-02-2019 20:25:00 3.5 C 76 % -0.32 C
3703 23-02-2019 20:30:00 3.4 C 76 % -0.42 C
3704 23-02-2019 20:35:00 3.3 C 77 % -0.34 C
3705 23-02-2019 20:40:00 3.2 C 77 % -0.43 C
3706 23-02-2019 20:45:00 3 C 77 % -0.63 C
3707 23-02-2019 20:50:00 2.8 C 77 % -0.82 C
3708 23-02-2019 20:55:00 2.7 C 78 % -0.74 C
3709 23-02-2019 21:00:00 2.6 C 78 % -0.84 C
3710 23-02-2019 21:05:00 2.4 C 79 % -0.86 C
3711 23-02-2019 21:10:00 2.3 C 78 % -1.13 C
3712 23-02-2019 21:15:00 2.2 C 78 % -1.23 C
3713 23-02-2019 21:20:00 2.2 C 79 % -1.05 C
3714 23-02-2019 21:25:00 2.1 C 79 % -1.15 C
3715 23-02-2019 21:30:00 2.1 C 80 % -0.98 C
3716 23-02-2019 21:35:00 2 C 79 % -1.25 C
3717 23-02-2019 21:40:00 1.8 C 80 % -1.27 C
3718 23-02-2019 21:45:00 1.7 C 80 % -1.37 C
3719 23-02-2019 21:50:00 1.6 C 81 % -1.3 C
3720 23-02-2019 21:55:00 1.4 C 81 % -1.49 C
3721 23-02-2019 22:00:00 1.3 C 81 % -1.59 C
3722 23-02-2019 22:05:00 1.2 C 82 % -1.52 C
3723 23-02-2019 22:10:00 1.2 C 82 % -1.52 C
3724 23-02-2019 22:15:00 1.1 C 83 % -1.46 C
3725 23-02-2019 22:20:00 1.1 C 84 % -1.29 C
Sensor: Nr:Datum:Temp:Feuchte:Taupunkt:
Aussen-T/F 3726 23-02-2019 22:25:00 1.1 C 84 % -1.29 C
3727 23-02-2019 22:30:00 1.1 C 83 % -1.46 C
3728 23-02-2019 22:35:00 0.9 C 83 % -1.65 C
3729 23-02-2019 22:40:00 0.8 C 83 % -1.75 C
3730 23-02-2019 22:45:00 0.7 C 83 % -1.85 C
3731 23-02-2019 22:50:00 0.7 C 83 % -1.85 C
3732 23-02-2019 22:55:00 0.6 C 83 % -1.95 C
3733 23-02-2019 23:00:00 0.6 C 84 % -1.78 C
3734 23-02-2019 23:05:00 0.6 C 84 % -1.78 C
3735 23-02-2019 23:10:00 0.5 C 83 % -2.04 C
3736 23-02-2019 23:15:00 0.4 C 83 % -2.14 C
3737 23-02-2019 23:20:00 0.4 C 84 % -1.98 C
3738 23-02-2019 23:25:00 0.5 C 83 % -2.04 C
3739 23-02-2019 23:30:00 0.4 C 83 % -2.14 C
3740 23-02-2019 23:35:00 0.5 C 83 % -2.04 C
3741 23-02-2019 23:40:00 0.4 C 83 % -2.14 C
3742 23-02-2019 23:45:00 0.4 C 84 % -1.98 C
3743 23-02-2019 23:50:00 0.4 C 84 % -1.98 C
3744 23-02-2019 23:55:00 0.4 C 84 % -1.98 C
3745 24-02-2019 00:00:00 0.2 C 84 % -2.18 C
3746 24-02-2019 00:05:00 0.1 C 84 % -2.27 C
3747 24-02-2019 00:10:00 -0.1 C 84 % -2.47 C
3748 24-02-2019 00:15:00 -0.2 C 85 % -2.41 C
3749 24-02-2019 00:20:00 -0.3 C 85 % -2.51 C
3750 24-02-2019 00:25:00 -0.3 C 85 % -2.51 C
Sensor: Nr:Datum:Temp:Feuchte:Taupunkt:
Aussen-T/F 3751 24-02-2019 00:30:00 -0.3 C 86 % -2.35 C
3752 24-02-2019 00:35:00 -0.3 C 86 % -2.35 C
3753 24-02-2019 00:40:00 -0.4 C 86 % -2.45 C
3754 24-02-2019 00:45:00 -0.4 C 86 % -2.45 C
3755 24-02-2019 00:50:00 -0.5 C 87 % -2.39 C
3756 24-02-2019 00:55:00 -0.6 C 87 % -2.49 C
3757 24-02-2019 01:00:00 -0.6 C 87 % -2.49 C
3758 24-02-2019 01:05:00 -0.6 C 87 % -2.49 C
3759 24-02-2019 01:10:00 -0.6 C 87 % -2.49 C
3760 24-02-2019 01:15:00 -0.6 C 87 % -2.49 C
3761 24-02-2019 01:20:00 -0.6 C 87 % -2.49 C
3762 24-02-2019 01:25:00 -0.6 C 87 % -2.49 C
3763 24-02-2019 01:30:00 -0.7 C 87 % -2.59 C
3764 24-02-2019 01:35:00 -0.7 C 87 % -2.59 C
3765 24-02-2019 01:40:00 -0.7 C 87 % -2.59 C
3766 24-02-2019 01:45:00 -0.7 C 87 % -2.59 C
3767 24-02-2019 01:50:00 -0.8 C 87 % -2.69 C
3768 24-02-2019 01:55:00 -0.8 C 87 % -2.69 C
3769 24-02-2019 02:00:00 -0.9 C 87 % -2.79 C
3770 24-02-2019 02:05:00 -1 C 87 % -2.88 C
3771 24-02-2019 02:10:00 -1.1 C 88 % -2.83 C
3772 24-02-2019 02:15:00 -1.1 C 88 % -2.83 C
3773 24-02-2019 02:20:00 -1.1 C 88 % -2.83 C
3774 24-02-2019 02:25:00 -1.2 C 88 % -2.93 C
3775 24-02-2019 02:30:00 -1.2 C 88 % -2.93 C
Sensor: Nr:Datum:Temp:Feuchte:Taupunkt:
Aussen-T/F 3776 24-02-2019 02:35:00 -1.2 C 88 % -2.93 C
3777 24-02-2019 02:40:00 -1.3 C 88 % -3.03 C
3778 24-02-2019 02:45:00 -1.3 C 88 % -3.03 C
3779 24-02-2019 02:50:00 -1.3 C 88 % -3.03 C
3780 24-02-2019 02:55:00 -1.3 C 89 % -2.88 C
3781 24-02-2019 03:00:00 -1.3 C 89 % -2.88 C
3782 24-02-2019 03:05:00 -1.4 C 89 % -2.97 C
3783 24-02-2019 03:10:00 -1.4 C 89 % -2.97 C
3784 24-02-2019 03:15:00 -1.4 C 89 % -2.97 C
3785 24-02-2019 03:20:00 -1.4 C 89 % -2.97 C
3786 24-02-2019 03:25:00 -1.5 C 89 % -3.07 C
3787 24-02-2019 03:30:00 -1.5 C 89 % -3.07 C
3788 24-02-2019 03:35:00 -1.6 C 89 % -3.17 C
3789 24-02-2019 03:40:00 -1.6 C 89 % -3.17 C
3790 24-02-2019 03:45:00 -1.6 C 89 % -3.17 C
3791 24-02-2019 03:50:00 -1.6 C 90 % -3.02 C
3792 24-02-2019 03:55:00 -1.7 C 90 % -3.12 C
3793 24-02-2019 04:00:00 -1.7 C 90 % -3.12 C
3794 24-02-2019 04:05:00 -1.7 C 90 % -3.12 C
3795 24-02-2019 04:10:00 -1.7 C 90 % -3.12 C
3796 24-02-2019 04:15:00 -1.6 C 90 % -3.02 C
3797 24-02-2019 04:20:00 -1.7 C 90 % -3.12 C
3798 24-02-2019 04:25:00 -1.7 C 90 % -3.12 C
3799 24-02-2019 04:30:00 -1.7 C 90 % -3.12 C
3800 24-02-2019 04:35:00 -1.8 C 90 % -3.22 C
Sensor: Nr:Datum:Temp:Feuchte:Taupunkt:
Aussen-T/F 3801 24-02-2019 04:40:00 -1.8 C 90 % -3.22 C
3802 24-02-2019 04:45:00 -1.8 C 90 % -3.22 C
3803 24-02-2019 04:50:00 -1.8 C 90 % -3.22 C
3804 24-02-2019 04:55:00 -1.8 C 90 % -3.22 C
3805 24-02-2019 05:00:00 -1.8 C 90 % -3.22 C
3806 24-02-2019 05:05:00 -1.8 C 90 % -3.22 C
3807 24-02-2019 05:10:00 -1.8 C 90 % -3.22 C
3808 24-02-2019 05:15:00 -1.8 C 90 % -3.22 C
3809 24-02-2019 05:20:00 -1.8 C 90 % -3.22 C
3810 24-02-2019 05:25:00 -1.9 C 90 % -3.32 C
3811 24-02-2019 05:30:00 -1.9 C 90 % -3.32 C
3812 24-02-2019 05:35:00 -1.9 C 90 % -3.32 C
3813 24-02-2019 05:40:00 -2 C 90 % -3.42 C
3814 24-02-2019 05:45:00 -2 C 90 % -3.42 C
3815 24-02-2019 05:50:00 -1.9 C 90 % -3.32 C
3816 24-02-2019 05:55:00 -1.9 C 90 % -3.32 C
3817 24-02-2019 06:00:00 -1.9 C 90 % -3.32 C
3818 24-02-2019 06:05:00 -1.9 C 90 % -3.32 C
3819 24-02-2019 06:10:00 -2 C 90 % -3.42 C
3820 24-02-2019 06:15:00 -2 C 90 % -3.42 C
3821 24-02-2019 06:20:00 -2.1 C 90 % -3.52 C
3822 24-02-2019 06:25:00 -2.1 C 90 % -3.52 C
3823 24-02-2019 06:30:00 -2.1 C 91 % -3.37 C
3824 24-02-2019 06:35:00 -2.1 C 91 % -3.37 C
3825 24-02-2019 06:40:00 -2.1 C 91 % -3.37 C
Sensor: Nr:Datum:Temp:Feuchte:Taupunkt:
Aussen-T/F 3826 24-02-2019 06:45:00 -2.1 C 91 % -3.37 C
3827 24-02-2019 06:50:00 -2.2 C 91 % -3.47 C
3828 24-02-2019 06:55:00 -2.2 C 91 % -3.47 C
3829 24-02-2019 07:00:00 -2.2 C 91 % -3.47 C
3830 24-02-2019 07:05:00 -2.3 C 91 % -3.57 C
3831 24-02-2019 07:10:00 -2.3 C 91 % -3.57 C
3832 24-02-2019 07:15:00 -2.3 C 91 % -3.57 C
3833 24-02-2019 07:20:00 -2.4 C 91 % -3.66 C
3834 24-02-2019 07:25:00 -2.4 C 91 % -3.66 C
3835 24-02-2019 07:30:00 -2.4 C 91 % -3.66 C
3836 24-02-2019 07:35:00 -2.4 C 91 % -3.66 C
3837 24-02-2019 07:40:00 -2.4 C 91 % -3.66 C
3838 24-02-2019 07:45:00 -2.4 C 92 % -3.52 C
3839 24-02-2019 07:50:00 -2.4 C 92 % -3.52 C
3840 24-02-2019 07:55:00 -2.4 C 92 % -3.52 C
3841 24-02-2019 08:00:00 -2.3 C 92 % -3.42 C
3842 24-02-2019 08:05:00 -2.3 C 92 % -3.42 C
3843 24-02-2019 08:10:00 -2.2 C 92 % -3.32 C
3844 24-02-2019 08:15:00 -2.2 C 92 % -3.32 C
3845 24-02-2019 08:20:00 -2.2 C 92 % -3.32 C
3846 24-02-2019 08:25:00 -2.1 C 92 % -3.22 C
3847 24-02-2019 08:30:00 -2.1 C 92 % -3.22 C
3848 24-02-2019 08:35:00 -2 C 92 % -3.12 C
3849 24-02-2019 08:40:00 -2 C 92 % -3.12 C
3850 24-02-2019 08:45:00 -2 C 92 % -3.12 C
Sensor: Nr:Datum:Temp:Feuchte:Taupunkt:
Aussen-T/F 3851 24-02-2019 08:50:00 -2 C 92 % -3.12 C
3852 24-02-2019 08:55:00 -1.9 C 92 % -3.02 C
3853 24-02-2019 09:00:00 -1.9 C 92 % -3.02 C
3854 24-02-2019 09:05:00 -1.8 C 92 % -2.92 C
3855 24-02-2019 09:10:00 -1.8 C 92 % -2.92 C
3856 24-02-2019 09:15:00 -1.7 C 92 % -2.83 C
3857 24-02-2019 09:20:00 -1.6 C 92 % -2.73 C
3858 24-02-2019 09:25:00 -1.6 C 92 % -2.73 C
3859 24-02-2019 09:30:00 -1.5 C 92 % -2.63 C
3860 24-02-2019 09:35:00 -1.4 C 92 % -2.53 C
3861 24-02-2019 09:40:00 -1.3 C 92 % -2.43 C
3862 24-02-2019 09:45:00 -1.2 C 92 % -2.33 C
3863 24-02-2019 09:50:00 -1.1 C 92 % -2.23 C
3864 24-02-2019 09:55:00 -1 C 91 % -2.28 C
3865 24-02-2019 10:00:00 -0.9 C 91 % -2.18 C
3866 24-02-2019 10:05:00 -0.8 C 91 % -2.08 C
3867 24-02-2019 10:10:00 -0.6 C 90 % -2.03 C
3868 24-02-2019 10:15:00 -0.4 C 90 % -1.84 C
3869 24-02-2019 10:20:00 -0.2 C 90 % -1.64 C
3870 24-02-2019 10:25:00 0 C 89 % -1.59 C
3871 24-02-2019 10:30:00 0.3 C 89 % -1.29 C
3872 24-02-2019 10:35:00 0.7 C 88 % -1.05 C
3873 24-02-2019 10:40:00 1 C 88 % -0.76 C
3874 24-02-2019 10:45:00 1.4 C 87 % -0.52 C
3875 24-02-2019 10:50:00 1.7 C 86 % -0.38 C
Sensor: Nr:Datum:Temp:Feuchte:Taupunkt:
Aussen-T/F 3876 24-02-2019 10:55:00 2.2 C 85 % -0.05 C
3877 24-02-2019 11:00:00 2.6 C 83 % 0.01 C
3878 24-02-2019 11:05:00 2.9 C 82 % 0.14 C
3879 24-02-2019 11:10:00 3.2 C 82 % 0.43 C
3880 24-02-2019 11:15:00 3.4 C 81 % 0.46 C
3881 24-02-2019 11:20:00 3.7 C 80 % 0.58 C
3882 24-02-2019 11:25:00 3.9 C 79 % 0.6 C
3883 24-02-2019 11:30:00 4.2 C 76 % 0.36 C
3884 24-02-2019 11:35:00 4.6 C 75 % 0.56 C
3885 24-02-2019 11:40:00 4.8 C 76 % 0.94 C
3886 24-02-2019 11:45:00 5.1 C 74 % 0.86 C
3887 24-02-2019 11:50:00 5.3 C 74 % 1.05 C
3888 24-02-2019 11:55:00 5.4 C 73 % 0.96 C
3889 24-02-2019 12:00:00 5.6 C 73 % 1.15 C
3890 24-02-2019 12: